GFSSW_500_spd_000.txt.gz
Wind_Speed
15 16 16 16 15 15 15 15 15 15 14 11 10 6 7 6 3 1 3 9 14 22 21 21 17 15 15 17 18 18 13 6 7 10 12 13 12 12 12 14 13 9 5 8 13
15 15 16 17 17 16 15 15 14 14 16 15 13 11 8 9 6 1 1 9 14 21 23 23 21 19 16 19 18 16 13 6 11 10 12 11 11 11 11 11 11 11 10 7 12
15 16 18 16 16 17 17 16 16 15 12 15 17 15 12 12 10 4 2 8 14 22 25 21 23 19 22 21 19 15 14 8 9 12 10 9 10 10 9 9 12 8 13 12 12
17 17 18 17 16 16 16 16 17 17 15 12 15 18 18 15 15 7 5 5 9 18 18 21 19 22 22 24 21 16 13 13 10 10 11 10 9 9 8 7 11 11 7 14 11
18 18 18 19 18 17 16 16 16 17 17 14 12 14 21 21 18 13 11 11 11 13 19 25 21 23 19 22 21 17 14 14 12 12 13 12 10 9 8 7 10 12 10 10 13
19 19 18 19 17 18 17 17 16 16 16 17 14 14 15 23 21 20 16 13 11 13 18 22 24 23 23 24 23 19 16 15 14 13 13 13 12 11 9 7 8 12 11 10 12
20 19 18 18 18 19 19 19 17 15 15 16 18 16 17 14 24 24 22 16 16 17 16 23 30 26 20 22 25 19 15 16 17 16 16 16 13 11 11 11 7 8 9 9 10
19 19 19 19 20 22 23 22 19 17 17 18 18 19 21 17 15 26 27 24 21 20 20 22 29 31 25 23 21 18 15 12 18 19 17 17 10 10 9 10 10 8 6 7 8
22 21 21 21 21 21 22 22 22 21 21 22 20 19 22 21 18 18 27 29 27 25 24 22 26 26 28 24 24 21 15 15 19 22 20 16 13 10 9 8 7 10 8 5 8
24 26 26 22 24 23 23 24 24 23 24 23 22 22 20 20 21 19 22 30 32 31 30 26 24 24 25 28 24 22 19 17 18 20 20 17 15 12 11 11 7 10 10 9 5
26 27 28 24 25 26 26 25 25 25 25 24 24 22 23 22 18 22 23 26 33 36 35 31 26 22 20 21 21 20 20 17 23 22 21 18 15 13 12 11 11 7 8 10 9
29 29 30 28 27 28 28 29 27 27 24 27 26 21 24 22 21 22 22 26 30 36 39 40 30 27 29 25 24 26 25 21 21 27 25 21 20 18 14 11 11 10 6 6 6
35 34 35 34 33 32 31 31 31 31 29 26 30 30 27 28 24 24 23 23 26 35 42 41 35 35 34 32 31 30 29 25 24 29 28 26 25 22 18 17 14 12 10 8 7
40 37 36 40 38 38 36 34 34 34 34 29 29 32 28 28 28 26 23 23 25 29 39 45 45 43 37 35 33 35 30 28 28 32 30 30 21 21 20 18 17 14 10 9 9
45 45 42 40 40 41 39 39 37 36 37 35 32 29 29 29 27 26 24 23 23 28 36 43 47 43 45 37 36 33 31 38 31 32 30 31 29 24 27 23 16 14 13 10 8
47 48 47 48 48 45 44 41 40 40 41 36 33 31 30 30 30 28 27 25 25 27 33 38 46 49 47 45 40 37 38 40 39 33 38 32 33 26 23 16 17 20 20 18 14
48 50 53 51 51 50 48 47 45 46 42 40 37 35 36 36 35 33 32 30 28 27 29 37 44 48 52 52 48 45 42 38 38 38 35 34 37 32 25 22 21 20 24 22 22
51 52 54 55 52 53 53 51 51 48 44 45 43 42 39 39 39 39 36 34 31 30 32 35 43 44 54 57 53 49 48 41 38 35 32 34 36 28 26 28 24 24 27 24 26
55 55 56 55 55 54 56 56 52 51 51 50 47 45 46 46 42 40 40 38 36 32 32 35 38 44 53 58 58 55 58 44 34 33 33 29 35 31 25 29 27 21 26 27 26
59 58 61 61 60 60 62 57 56 54 54 50 51 50 48 49 49 42 41 39 37 32 30 35 37 41 50 57 59 64 55 54 47 43 39 33 28 22 25 25 24 23 22 23 24
67 67 66 69 68 68 67 65 61 63 57 55 52 53 53 48 49 46 40 42 39 38 32 31 36 36 47 56 59 63 64 63 48 46 41 38 35 28 26 31 27 21 26 24 22
74 70 70 73 73 74 73 70 70 66 65 59 57 56 55 52 47 44 45 40 42 37 36 30 33 36 41 48 55 49 60 57 59 59 47 45 36 26 29 33 30 25 21 28 29
68 71 73 73 72 71 70 72 71 70 66 61 59 59 55 55 48 47 47 42 40 37 36 30 33 31 37 38 50 55 55 52 56 49 52 47 42 32 27 32 32 24 26 23 21
62 66 70 72 71 70 69 71 71 70 68 61 59 60 59 57 53 48 48 42 41 39 41 38 32 36 33 34 37 52 64 60 53 63 59 56 40 35 34 45 33 29 25 23 21
61 63 65 62 64 66 66 68 69 71 75 66 64 61 61 58 53 48 48 47 43 42 41 40 38 32 35 36 30 38 43 57 70 67 60 53 51 48 43 44 36 33 30 27 23
55 56 57 54 55 60 60 63 67 69 71 66 63 62 62 61 54 49 51 49 47 45 45 42 38 38 35 33 34 36 40 44 47 72 69 60 56 41 44 52 47 32 30 29 27
44 50 51 52 51 51 54 58 62 68 67 63 68 67 67 65 64 58 55 51 54 53 50 46 41 42 31 24 30 37 39 39 48 49 56 64 68 67 54 47 42 37 32 26 27

GFSSW_500_spd_003.txt.gz
Wind_Speed
11 12 12 13 14 15 14 13 12 10 12 11 11 9 8 5 3 2 5 7 16 22 22 21 18 17 12 8 17 25 23 3 5 16 6 8 8 8 9 10 11 11 7 7 13
12 12 12 13 13 13 14 14 13 11 10 11 13 13 11 9 5 5 1 8 13 21 24 23 20 17 18 10 19 18 22 11 13 8 8 7 8 7 7 8 9 10 10 7 13
14 13 13 13 12 13 14 14 13 12 11 11 11 14 14 14 10 3 4 7 10 17 25 25 22 18 16 15 17 7 1 12 7 13 11 7 9 8 6 5 7 7 10 11 11
13 13 14 13 13 13 14 14 14 13 12 10 11 11 14 17 16 9 8 6 8 14 17 22 22 21 18 16 15 12 8 2 9 9 9 8 9 8 7 6 8 8 8 13 14
14 14 14 14 14 14 14 14 14 13 12 12 11 12 11 14 18 15 12 11 9 14 20 18 23 23 24 22 15 13 13 10 9 10 9 11 9 8 7 6 8 10 10 11 14
15 17 17 15 14 12 13 14 16 15 12 12 12 12 13 11 15 20 17 14 13 13 18 20 20 21 28 26 16 12 11 11 11 10 12 12 8 7 6 6 6 8 10 9 12
19 18 17 17 16 15 14 15 16 17 16 13 12 12 11 12 12 15 21 19 18 15 16 22 26 24 25 25 24 21 15 12 13 12 14 14 8 7 7 8 6 6 7 8 12
22 22 19 18 19 18 15 16 17 15 16 17 17 16 16 10 13 14 16 22 21 20 19 24 28 27 25 24 23 22 17 11 12 16 17 16 5 6 7 8 8 8 7 8 10
23 22 20 21 23 21 18 17 16 17 16 18 20 20 19 17 12 12 15 17 25 25 23 22 22 26 24 22 26 23 16 12 19 20 18 16 8 12 9 8 9 8 8 8 9
25 26 24 22 22 22 21 20 19 17 18 20 20 21 19 19 16 13 14 16 20 28 28 26 27 30 30 28 25 20 17 15 17 22 22 19 11 19 13 11 11 10 8 9 8
24 27 29 27 28 25 24 25 22 22 20 20 20 22 21 20 17 18 15 15 18 24 31 30 31 26 25 26 23 18 17 18 16 23 25 20 18 15 14 13 12 11 10 9 9
27 29 31 30 30 31 30 30 28 27 22 24 23 19 23 23 19 19 19 17 17 18 29 36 34 29 28 30 28 24 23 20 15 30 22 20 17 17 18 13 12 14 13 10 8
36 34 34 34 32 32 33 33 32 32 29 29 26 24 25 25 25 25 21 21 18 20 24 33 32 33 34 35 34 30 27 23 21 28 18 22 19 22 26 17 15 15 14 13 12
35 33 34 38 37 36 34 35 35 35 34 31 33 30 27 25 27 27 25 24 22 20 23 28 33 39 40 37 34 33 29 25 24 33 27 25 21 27 24 24 20 18 16 14 13
42 40 39 38 39 40 39 40 39 39 37 38 33 29 32 28 27 28 27 26 23 20 25 22 29 37 43 40 38 35 28 28 27 30 30 24 27 24 24 23 26 21 17 16 18
45 44 43 42 42 42 42 44 45 44 46 43 37 31 30 30 29 28 29 28 27 26 26 24 26 33 39 43 43 32 31 30 30 31 35 32 32 29 34 23 29 25 23 23 22
54 49 47 46 46 46 48 48 48 50 46 46 42 38 35 36 35 33 31 32 31 29 29 25 26 28 37 45 45 44 37 34 36 37 40 30 37 34 26 29 25 23 24 27 25
58 55 55 54 52 50 49 51 53 53 52 51 48 43 41 36 38 39 37 37 34 33 32 32 31 30 31 39 45 51 46 42 40 34 34 32 37 35 32 27 23 24 22 25 32
62 60 57 58 58 57 57 56 52 51 54 56 52 49 48 42 41 44 45 40 39 36 37 35 34 30 30 35 46 47 55 43 35 30 32 30 31 31 25 32 33 32 26 26 36
66 65 63 62 61 62 62 59 58 57 59 58 57 53 50 48 47 47 48 44 41 41 37 36 35 33 32 35 41 51 43 48 48 44 38 33 31 27 31 33 30 30 26 26 27
81 72 69 66 64 67 67 62 63 63 63 62 60 56 54 43 39 44 51 44 42 42 41 36 38 31 31 38 38 47 57 47 45 45 43 38 33 31 26 22 26 26 20 24 26
82 80 76 61 62 64 64 67 69 71 67 68 67 66 58 48 51 46 52 40 29 45 43 41 38 41 36 33 35 39 44 54 47 51 47 42 36 27 30 26 27 29 25 19 25
80 75 60 65 64 63 65 71 75 77 76 72 75 70 64 58 59 58 55 47 43 41 38 39 41 38 38 32 36 42 42 47 54 44 50 48 45 33 25 28 28 29 31 21 23
68 65 57 61 61 64 68 75 81 80 80 81 80 77 67 64 63 62 56 52 42 51 44 44 36 41 37 36 30 33 40 44 47 57 53 52 41 35 35 37 34 37 28 30 30
54 54 59 61 54 61 72 73 73 82 82 81 82 76 73 66 64 64 58 47 55 53 46 46 44 37 40 33 25 32 34 40 48 49 55 48 44 42 40 37 33 31 41 36 31
40 40 47 52 56 55 44 51 63 68 70 82 74 74 67 69 60 57 50 50 51 42 50 47 44 38 39 31 34 31 32 37 38 47 51 50 49 43 43 37 33 35 41 43 32
32 35 37 36 41 47 52 53 45 52 65 68 63 60 72 57 58 62 54 43 51 43 41 48 41 37 38 34 31 34 39 37 38 40 42 52 55 46 47 46 46 48 47 45 35

GFSSW_500_spd_006.txt.gz
Wind_Speed
10 10 10 11 11 11 11 10 8 7 6 9 13 12 10 7 4 3 7 8 13 20 21 20 17 15 11 9 13 12 8 8 1 8 17 8 9 7 4 8 5 11 4 3 11
11 11 11 12 12 12 12 11 9 8 7 7 8 13 14 11 7 4 2 7 10 16 20 20 19 17 15 17 19 5 15 17 12 8 17 7 11 6 5 6 9 11 11 8 9
11 11 11 12 12 13 14 13 12 9 7 7 8 7 13 15 10 4 6 6 10 15 18 20 21 18 18 17 17 6 12 13 12 14 6 10 15 7 5 6 8 6 8 10 9
13 12 12 11 11 12 13 14 12 11 11 8 7 8 7 12 14 12 9 7 8 14 15 17 21 19 18 18 17 12 4 5 8 9 10 13 13 6 5 7 5 7 8 9 9
13 13 14 14 13 11 12 13 13 12 12 11 8 7 7 8 12 16 13 12 8 11 16 17 18 22 19 20 15 10 13 4 10 14 11 8 17 12 7 8 6 7 6 6 7
16 17 16 15 14 13 12 14 15 15 14 12 10 8 7 8 6 13 16 15 12 12 17 19 19 22 23 25 17 9 13 12 10 12 12 10 19 11 8 9 7 4 5 7 8
20 19 18 17 16 14 14 14 15 15 15 13 11 11 9 10 10 9 11 19 17 14 15 20 23 28 22 23 21 18 16 18 19 10 19 16 21 12 10 9 7 4 3 4 9
21 20 19 18 17 17 17 17 16 15 13 14 14 14 13 11 11 10 9 15 21 19 16 21 27 24 26 23 24 19 19 17 13 16 16 13 16 8 11 5 6 5 3 6 10
22 20 19 19 20 19 17 18 18 17 16 15 16 16 17 14 11 10 11 10 20 23 21 20 25 27 24 27 27 23 19 17 8 20 15 9 22 28 14 7 7 7 5 6 9
22 22 20 19 21 21 21 21 19 20 22 20 16 16 15 15 12 11 11 11 14 23 27 24 22 23 28 28 27 20 19 18 17 14 18 15 26 23 17 12 10 9 7 8 10
23 25 25 24 25 24 24 23 21 23 22 24 23 21 16 17 15 15 13 12 11 16 25 27 29 25 24 23 19 19 16 15 20 24 19 22 27 28 18 7 13 11 9 8 10
25 28 30 30 30 29 28 28 27 26 23 27 25 21 20 21 17 20 15 12 14 13 19 27 31 25 25 26 26 24 24 22 17 23 22 19 25 23 15 15 16 14 13 12 10
29 28 30 33 31 32 32 32 32 33 29 26 27 24 26 23 20 21 22 18 16 17 17 21 20 29 30 30 29 28 28 22 19 22 20 18 21 18 23 24 20 17 16 14 13
32 33 34 36 34 35 34 34 36 37 36 28 32 27 25 28 24 24 24 24 24 17 18 19 21 29 35 35 31 30 30 26 23 29 30 28 32 26 22 24 18 21 17 16 14
42 41 38 39 41 37 37 38 39 39 40 36 34 33 30 30 31 26 27 28 23 21 24 16 21 26 31 38 34 31 26 30 27 27 30 26 31 24 28 32 27 19 18 19 20
49 48 45 46 43 44 41 43 42 42 45 38 40 34 35 31 32 33 29 28 28 29 28 21 21 24 26 33 37 33 31 29 31 29 36 32 37 27 30 26 29 37 26 21 21
53 54 53 53 51 50 51 48 47 49 43 42 42 41 37 38 37 37 31 32 31 30 30 22 22 23 25 34 35 40 35 36 35 38 39 27 37 30 28 31 36 36 36 16 26
60 59 55 53 53 52 51 52 57 51 49 47 42 47 45 42 41 40 41 38 37 34 31 31 30 27 26 28 37 37 40 45 42 38 33 30 38 33 31 36 42 26 13 27 29
61 61 59 57 55 53 53 57 57 52 52 52 49 50 50 50 43 47 49 43 40 38 37 35 35 29 29 29 35 35 44 41 38 33 34 30 31 27 32 33 34 22 20 28 23
70 69 70 68 65 57 60 59 57 54 55 54 57 52 49 41 44 40 48 48 47 43 37 35 33 31 30 31 33 38 30 41 48 46 44 35 34 31 27 34 40 28 30 29 27
80 78 67 73 70 66 66 62 56 57 60 63 63 63 60 43 38 40 44 43 45 45 44 40 40 35 32 43 36 38 42 44 39 49 48 42 39 27 25 32 36 40 33 31 28
88 84 72 75 69 67 68 63 59 57 65 69 68 67 67 61 48 45 44 43 44 34 39 43 39 45 41 33 34 38 39 43 52 49 51 47 43 24 24 27 34 39 36 33 33
83 81 62 70 78 69 63 60 62 63 69 72 75 76 69 66 67 61 47 42 37 41 42 39 45 41 44 40 35 42 40 39 47 50 47 52 53 38 26 31 22 29 20 20 28
70 65 58 55 63 65 61 61 66 69 75 77 74 77 77 76 69 67 62 52 47 39 39 46 44 49 50 47 35 37 41 40 43 47 57 51 43 42 37 38 32 26 23 37 39
51 52 50 56 49 40 48 61 70 76 76 71 82 81 76 78 76 75 70 59 54 47 46 49 55 46 46 40 30 35 36 40 43 45 50 52 47 37 49 37 30 40 34 35 39
38 40 41 42 41 47 50 35 50 71 63 64 73 78 77 88 76 84 80 64 58 52 45 54 58 54 47 39 40 34 35 38 39 43 42 51 45 46 40 49 39 36 34 40 41
27 31 33 28 30 35 43 56 34 38 48 63 68 66 72 81 84 84 85 84 78 62 51 45 56 58 57 47 35 40 45 35 36 36 38 39 54 45 49 42 48 39 31 31 35

GFSSW_500_spd_009.txt.gz
Wind_Speed
10 10 10 10 9 8 8 7 5 6 6 7 8 12 11 8 4 3 7 9 13 20 22 17 13 15 12 13 12 12 2 11 13 8 8 16 16 17 13 4 10 9 10 6 9
11 11 10 10 11 11 10 10 9 6 6 6 6 8 13 12 8 7 2 5 10 17 22 20 17 17 15 14 11 15 6 10 2 2 17 12 14 12 14 10 7 5 3 7 10
13 12 12 12 13 12 11 11 10 8 7 6 6 6 6 12 11 9 8 6 9 11 22 22 22 19 16 18 19 8 7 4 5 5 13 18 18 8 12 14 7 5 2 6 8
13 11 11 13 14 13 13 12 12 10 8 6 7 6 5 3 12 14 10 9 8 12 17 20 19 20 17 21 17 20 12 8 10 13 14 18 16 11 10 12 10 8 3 8 9
14 13 14 13 13 13 13 13 12 12 11 8 7 6 6 4 7 13 14 13 9 10 15 19 18 22 19 19 19 20 12 1 9 7 16 22 16 21 14 13 9 8 9 2 10
15 16 16 15 15 14 13 13 13 13 12 9 7 5 7 6 6 7 15 16 13 11 15 19 18 20 23 24 20 21 12 7 3 12 17 15 19 17 18 16 9 7 7 4 9
15 15 14 13 15 15 14 15 14 13 11 11 8 5 6 7 7 6 8 18 18 15 13 17 24 28 26 26 24 19 19 17 11 16 17 16 26 10 18 16 6 5 6 5 3
17 16 13 12 11 12 13 14 15 14 13 13 10 9 11 9 8 8 7 12 21 20 17 17 24 22 27 25 29 24 25 24 18 12 13 14 16 19 17 15 10 3 5 3 4
18 18 15 13 14 12 13 15 15 14 15 14 14 13 16 12 10 8 8 8 14 23 22 19 20 20 23 25 29 28 23 22 18 17 21 10 16 14 21 21 18 6 5 1 5
22 21 20 17 17 17 17 19 18 17 16 17 15 16 14 14 12 10 8 9 11 17 25 24 22 21 19 23 22 22 19 20 15 10 13 20 12 14 17 23 15 11 4 3 6
20 23 23 24 22 21 24 23 22 21 20 19 16 17 19 17 15 16 12 10 11 12 16 24 27 21 17 16 13 19 22 18 9 15 21 23 22 15 19 22 23 14 5 4 6
23 23 24 26 25 26 28 28 29 28 22 24 23 14 22 21 18 17 17 13 12 13 15 17 20 23 22 22 22 21 22 22 20 22 27 26 22 13 12 15 17 16 5 6 6
30 27 26 30 28 29 28 26 29 30 28 22 29 23 24 21 20 19 20 18 17 14 15 15 11 22 26 27 25 27 22 24 25 19 22 24 21 23 15 25 20 13 5 3 8
39 36 33 34 35 34 34 31 36 34 38 23 32 29 28 27 18 22 23 23 22 20 19 18 17 23 27 31 28 27 24 27 28 23 23 23 21 20 27 29 21 4 6 7 5
42 43 40 41 43 42 39 36 39 39 47 35 35 29 29 32 26 24 25 26 22 21 28 15 21 20 23 29 32 23 28 34 33 28 25 23 30 23 25 29 18 19 10 11 9
46 47 43 46 40 46 43 42 42 44 50 39 41 35 31 28 28 29 30 30 28 30 31 22 24 24 20 24 32 27 31 37 38 31 35 31 29 30 28 26 28 21 10 19 15
53 52 51 47 50 47 48 47 47 52 48 44 41 41 40 37 36 38 35 34 32 32 29 24 27 25 24 25 29 31 38 39 47 46 46 35 34 33 14 23 30 28 23 25 22
55 56 55 55 54 55 53 53 56 53 49 43 45 45 47 45 40 42 40 37 37 37 32 32 33 28 24 27 28 32 38 47 47 49 46 41 41 32 17 15 23 31 35 29 34
61 61 60 61 58 58 55 56 57 51 48 48 50 52 51 51 49 42 44 42 38 37 39 36 35 28 31 25 30 30 38 31 43 45 43 44 40 26 25 23 27 31 23 32 26
65 63 62 64 64 63 65 63 58 54 53 54 55 55 56 49 39 46 45 45 47 42 38 37 40 36 32 31 34 37 30 35 39 46 50 42 45 38 23 24 32 32 28 32 31
76 74 64 66 68 67 65 63 62 59 59 62 63 61 60 61 60 54 48 46 45 41 40 39 42 39 40 42 39 36 40 43 37 41 43 45 45 31 26 19 29 30 32 36 41
84 81 66 64 66 68 67 64 65 64 63 66 69 70 68 67 67 66 64 50 35 32 38 41 41 46 46 43 42 39 40 40 47 41 46 45 41 32 28 26 30 32 34 33 36
87 81 62 64 68 63 64 63 67 68 70 73 75 76 73 73 75 73 69 57 49 49 42 37 48 45 48 49 50 47 41 42 43 44 45 44 37 35 39 36 29 36 34 30 24
77 69 56 54 59 63 66 71 72 74 77 80 84 83 83 82 83 79 78 70 62 62 60 52 52 57 56 54 50 53 48 42 44 48 44 48 40 32 42 43 36 32 31 30 28
51 51 47 40 42 52 56 62 66 69 75 79 87 90 90 92 89 88 85 83 74 69 64 64 63 59 60 52 47 52 48 43 46 45 47 40 46 40 40 45 38 31 26 27 29
29 28 29 26 29 42 43 49 54 51 62 72 71 78 85 93 94 94 93 90 85 78 72 63 64 59 62 58 51 51 49 43 42 40 42 41 42 45 45 41 37 32 37 39 38
18 19 20 19 25 30 37 44 43 50 41 54 60 71 66 76 86 97 96 96 92 83 75 70 68 63 70 62 52 50 59 51 40 38 36 44 40 39 49 50 49 36 37 40 37

GFSSW_500_spd_012.txt.gz
Wind_Speed
10 10 9 8 7 6 7 7 9 9 9 6 4 10 12 10 8 7 11 11 14 20 19 15 11 12 16 12 12 6 7 4 8 8 13 16 18 11 6 4 7 3 5 7 13
11 10 10 9 8 8 7 6 6 6 7 8 6 4 10 13 12 9 4 8 13 13 21 19 16 16 21 17 16 16 12 11 12 12 12 12 18 12 11 12 5 5 3 9 11
13 11 10 9 10 10 9 7 6 5 5 7 6 5 4 10 15 13 12 9 12 13 23 25 21 17 19 20 15 16 11 9 12 14 16 12 13 17 15 13 10 7 3 10 14
13 12 11 11 11 10 9 9 8 7 4 5 5 4 4 7 12 16 15 13 11 14 18 22 20 18 17 14 11 15 15 15 10 9 18 21 18 14 12 7 7 7 3 7 11
13 13 13 13 13 12 12 11 10 8 7 5 4 3 2 6 7 11 17 16 13 12 16 19 20 19 17 18 14 18 16 17 5 3 10 15 23 18 9 12 9 9 5 4 10
15 14 13 14 14 13 12 12 11 11 9 6 4 4 4 2 4 7 10 18 17 13 15 18 15 18 26 21 24 19 20 16 10 3 10 11 18 23 16 14 11 9 8 4 6
19 17 15 14 13 11 11 10 11 11 9 8 5 5 7 4 5 5 7 12 19 18 14 15 22 27 26 24 27 29 23 16 14 14 10 12 18 18 10 11 13 11 9 6 5
21 20 18 17 15 14 14 14 13 9 9 7 6 8 11 7 7 8 7 10 15 20 19 18 23 23 27 25 28 27 26 17 14 11 8 15 19 18 13 6 17 14 11 7 4
21 21 20 19 18 16 15 14 14 13 13 10 8 9 13 10 11 8 9 8 11 17 24 22 22 23 23 27 31 30 27 23 19 17 17 19 20 17 12 13 13 12 15 7 2
23 23 22 22 21 19 20 17 16 16 14 14 10 12 14 14 13 8 11 9 10 14 21 25 24 22 22 23 17 25 20 19 20 21 17 17 13 19 13 14 11 7 14 9 3
25 23 23 23 23 22 26 23 22 21 17 17 14 14 17 15 16 15 13 14 12 10 13 18 25 23 18 15 17 23 21 17 21 24 21 17 17 20 18 9 10 10 8 9 2
30 28 27 28 25 26 27 28 27 27 20 22 21 16 22 18 17 18 17 15 13 12 15 14 12 19 23 21 20 22 23 22 26 22 19 18 21 23 19 11 9 5 6 8 5
35 33 32 33 33 31 29 29 31 30 28 19 26 21 24 22 17 19 20 18 16 18 15 11 7 17 24 26 24 26 24 24 27 22 22 21 29 31 20 16 10 3 6 8 6
38 36 35 37 40 40 38 33 36 33 35 22 29 25 26 25 23 22 19 23 24 19 19 18 17 20 21 28 29 27 20 27 30 27 28 27 30 29 26 16 16 3 1 7 10
44 42 40 37 41 42 42 42 43 41 47 32 36 30 29 30 24 25 29 24 22 23 23 12 23 22 20 19 28 20 29 29 33 29 32 29 32 20 25 20 11 5 7 10 9
49 47 46 46 43 44 43 43 44 46 54 39 38 33 30 29 29 31 30 32 30 30 25 23 24 24 20 22 26 22 34 35 38 37 46 37 33 24 29 17 10 11 12 10 9
54 54 53 50 52 46 48 47 47 52 48 42 47 41 40 39 35 36 35 35 33 34 28 27 25 24 26 27 28 28 38 40 44 51 50 40 40 25 26 22 14 16 10 12 17
57 56 55 57 55 56 53 54 54 54 50 51 49 49 44 41 42 41 43 42 38 38 33 35 30 27 26 26 26 32 36 44 48 49 45 44 48 30 22 19 14 10 12 16 18
64 62 61 61 60 60 60 62 60 58 58 55 50 50 50 49 48 49 50 45 38 37 37 37 37 29 32 25 31 30 42 35 43 44 51 42 50 35 28 24 20 14 20 20 18
62 64 63 64 66 65 64 62 63 63 62 62 56 57 57 57 56 55 54 52 45 41 38 41 40 34 34 35 38 38 31 39 42 45 49 46 50 39 32 27 21 18 22 21 22
71 67 66 67 67 70 71 67 64 61 66 67 68 64 62 62 62 60 57 56 54 43 40 42 45 37 41 47 40 39 41 41 42 41 40 35 34 38 32 31 24 26 22 19 25
78 74 71 71 66 68 67 67 70 71 69 72 73 72 70 70 69 69 63 59 59 60 63 52 43 50 49 44 44 47 44 42 44 40 38 34 26 14 35 36 29 27 25 17 20
80 73 71 67 67 64 65 70 74 76 78 77 79 79 79 76 76 75 72 69 68 67 68 61 62 54 56 56 55 57 50 46 45 44 45 44 31 21 29 40 39 35 29 25 29
66 59 51 52 55 60 61 67 75 79 84 85 82 85 85 83 81 82 82 75 72 70 72 65 68 68 66 56 54 57 53 51 50 52 47 43 42 22 30 45 40 35 32 32 37
38 35 32 30 39 51 57 62 71 78 83 85 87 86 89 90 87 88 88 83 79 76 74 73 74 73 71 64 53 56 55 55 55 52 54 39 44 36 26 47 45 37 34 28 21
26 21 15 11 25 37 42 44 54 60 69 72 82 81 88 90 93 93 95 89 86 80 76 75 78 77 76 70 64 59 60 60 57 54 52 48 45 38 32 38 52 51 41 31 25
22 18 12 7 13 24 34 41 41 39 43 52 55 68 75 79 88 94 98 99 90 86 83 80 82 79 76 70 61 56 67 65 61 58 54 53 44 37 40 34 50 55 52 43 34

GFSSW_500_spd_015.txt.gz
Wind_Speed
9 8 8 8 8 9 10 10 9 9 8 8 8 8 12 13 12 9 13 15 8 18 18 13 11 13 15 12 12 8 4 2 6 10 15 19 20 17 12 7 2 7 7 8 14
12 11 10 10 10 8 9 9 9 9 8 7 7 9 8 14 15 13 10 13 15 12 17 17 16 13 18 15 14 7 4 5 5 13 18 17 22 23 16 6 3 2 7 8 10
13 13 12 11 10 10 9 9 9 7 8 7 5 7 10 9 17 17 16 15 12 15 19 26 24 17 20 15 13 12 7 10 3 10 18 14 18 22 18 13 10 3 6 9 10
15 14 14 14 13 13 11 10 9 8 7 8 7 5 9 10 9 18 19 17 14 14 19 21 19 17 20 15 16 14 12 13 8 2 10 13 17 19 14 8 8 5 0 9 14
18 17 16 16 17 16 15 14 13 10 8 8 8 8 8 8 8 7 18 19 17 15 15 16 16 18 19 18 16 18 24 17 11 8 4 11 13 14 10 12 13 8 6 3 14
22 21 19 18 17 17 18 17 14 12 9 8 9 9 10 6 6 7 9 18 19 17 16 14 14 19 26 20 18 24 27 21 15 7 5 4 12 11 12 13 14 12 11 3 5
22 23 22 21 20 19 18 16 14 13 12 9 7 9 12 6 7 9 8 11 18 20 19 16 20 27 26 25 25 22 21 18 10 11 6 3 14 15 13 9 14 15 10 9 6
23 24 24 23 22 22 21 17 16 14 13 11 10 12 12 9 11 10 10 11 13 20 21 20 22 27 28 27 27 26 24 17 15 11 7 4 11 16 16 11 10 12 7 9 4
24 25 25 26 23 24 23 19 17 16 15 13 13 15 16 11 11 10 13 13 14 15 23 26 23 23 29 29 30 31 24 20 17 13 15 8 8 10 11 12 11 3 8 6 2
30 30 29 26 25 27 28 24 22 19 14 14 14 17 20 14 14 11 13 10 14 15 18 22 25 24 22 25 21 22 22 23 16 20 20 14 6 10 9 10 8 3 5 4 1
34 32 33 32 27 27 31 32 28 25 21 21 17 20 20 19 18 16 19 13 15 14 15 18 21 21 20 18 21 20 24 26 23 24 22 17 12 5 4 6 3 1 4 4 1
40 39 38 37 36 32 30 29 30 30 25 26 24 20 24 22 18 19 20 16 15 15 18 15 8 16 23 22 22 27 24 26 23 30 27 24 20 9 8 7 8 3 3 2 4
43 41 39 41 40 40 38 35 34 33 29 24 29 26 29 25 20 20 19 20 19 19 17 15 10 16 22 25 25 25 23 27 22 33 33 30 23 16 11 14 9 8 4 3 7
49 49 45 41 42 43 42 42 41 40 38 24 32 31 31 29 23 27 21 22 23 20 21 20 19 21 20 24 26 28 20 30 30 37 37 35 29 22 13 10 10 10 10 4 3
52 52 51 48 47 47 45 44 44 43 46 38 37 34 34 33 27 29 27 31 27 24 26 17 22 23 22 14 24 20 28 31 36 41 40 40 38 28 19 15 11 13 16 9 2
53 54 56 54 52 51 52 49 46 47 51 44 43 44 38 37 34 35 35 34 33 32 27 27 28 27 24 23 22 23 34 35 41 44 51 40 39 30 25 14 14 20 12 11 10
56 55 57 56 55 57 53 56 54 53 52 49 49 48 44 39 39 40 40 38 36 36 32 30 27 27 25 27 27 30 41 44 48 54 41 40 42 22 27 17 19 18 11 11 10
59 59 59 59 57 60 60 59 61 58 55 56 54 50 47 46 47 46 46 45 41 39 35 39 36 31 29 27 28 28 36 46 43 45 40 40 45 24 26 21 25 18 16 17 13
62 62 64 61 64 59 66 65 62 62 61 59 56 55 51 49 51 51 50 50 45 42 40 39 37 32 35 31 35 33 40 32 45 44 47 42 38 31 33 30 28 23 23 19 17
67 66 67 68 67 69 67 68 69 69 66 65 61 61 58 56 55 54 54 55 53 53 48 46 45 39 36 40 43 40 30 38 45 47 46 37 35 30 32 32 27 30 23 15 15
76 73 72 69 68 68 70 70 71 72 72 70 68 66 65 63 61 60 59 61 59 56 56 54 54 43 44 51 43 40 43 43 43 45 41 34 29 30 27 32 30 28 24 22 19
78 77 77 74 71 70 70 72 75 77 78 79 78 74 73 72 71 69 66 68 65 63 62 59 61 55 54 46 42 47 45 47 49 40 36 36 34 22 23 29 31 32 32 29 25
57 61 67 66 63 65 67 68 71 75 78 83 84 82 79 78 76 76 74 72 70 69 68 65 65 60 57 56 58 58 54 51 45 44 46 42 31 21 20 23 37 40 38 36 30
38 40 37 41 42 51 56 62 67 73 79 82 86 88 87 85 84 83 82 79 76 75 74 72 71 67 64 60 58 60 59 54 50 55 44 44 34 20 25 28 34 45 44 39 36
33 31 29 22 27 37 46 54 62 68 73 79 84 89 90 88 87 89 90 87 82 81 81 79 77 75 70 67 66 64 62 56 58 54 55 38 42 32 25 29 29 42 46 47 43
29 26 23 19 17 26 34 39 47 55 61 59 70 80 86 88 88 86 92 93 88 84 83 84 82 80 78 74 69 71 68 63 61 57 56 48 49 37 26 34 35 39 49 51 46
24 24 20 12 16 17 21 28 33 31 36 42 50 61 62 81 86 87 88 93 92 86 86 86 86 85 84 79 76 74 70 67 62 61 59 56 46 40 36 36 38 37 39 45 50

GFSSW_500_spd_018.txt.gz
Wind_Speed
13 13 12 12 11 11 11 10 11 10 11 10 8 9 10 15 14 12 14 14 5 4 14 12 11 11 12 12 11 13 11 12 12 12 13 11 11 12 10 10 7 7 8 8 10
15 15 15 14 13 13 12 11 11 11 10 11 8 9 9 11 17 18 14 12 11 10 7 13 14 13 17 15 14 8 10 12 13 13 13 13 15 13 11 11 7 2 5 9 11
18 17 17 17 17 15 14 14 13 11 11 11 9 10 10 10 13 18 18 14 12 13 16 21 21 19 16 16 16 11 9 6 10 9 12 17 17 15 15 14 11 4 2 9 12
21 20 19 19 19 19 18 16 15 13 12 12 10 11 12 10 11 11 20 18 16 13 16 12 15 17 14 12 19 15 13 10 12 13 13 10 14 17 16 14 14 11 2 8 14
22 23 23 22 21 21 21 20 19 18 15 13 14 11 14 12 9 11 12 20 18 17 15 11 9 16 17 17 19 16 16 15 12 11 14 11 10 17 16 17 19 14 10 5 12
22 23 23 24 24 24 23 22 20 20 18 15 15 13 16 16 10 6 10 14 18 18 18 14 10 18 26 22 19 22 24 22 15 11 13 11 12 15 16 14 17 15 11 6 7
25 25 24 23 24 26 27 23 21 20 18 18 15 13 18 12 8 10 9 11 14 18 19 17 16 21 25 23 24 26 22 25 19 10 6 10 16 15 14 14 12 13 11 6 3
28 27 26 25 24 25 28 25 24 22 18 18 18 18 20 13 12 14 9 9 13 15 20 22 20 21 27 25 27 27 25 25 25 11 8 13 16 16 15 14 11 9 9 5 5
31 30 30 29 28 28 28 28 26 24 21 20 18 19 23 16 16 17 13 15 13 15 17 23 23 19 24 26 26 29 24 23 19 13 17 9 17 18 14 15 11 6 7 4 5
37 37 38 35 32 32 30 29 28 25 23 21 20 22 23 21 19 19 19 16 15 16 15 16 19 23 22 19 15 19 21 23 21 19 17 8 15 18 16 14 11 7 4 3 4
41 41 42 42 39 37 35 32 32 31 28 28 24 24 24 25 23 23 23 17 17 15 13 14 15 12 18 18 17 19 25 25 24 26 19 13 18 17 15 14 11 5 2 2 3
46 44 43 45 45 42 39 39 36 35 29 33 32 25 30 30 27 26 23 22 17 14 19 15 6 10 19 22 21 24 21 24 27 26 24 18 21 17 17 14 14 9 4 2 6
47 48 48 49 48 47 45 44 43 41 37 28 33 34 36 35 28 28 27 25 21 22 19 17 12 16 18 21 24 23 20 25 29 29 28 24 23 21 19 15 14 19 10 8 9
50 51 49 49 52 52 49 47 47 47 45 38 36 38 38 38 33 32 30 28 26 21 24 21 19 19 18 20 22 24 20 26 34 36 36 34 28 29 20 16 16 18 16 12 11
49 54 53 53 50 55 56 54 52 49 49 45 42 42 41 40 34 34 31 34 27 25 29 20 20 20 19 12 20 18 27 26 33 40 40 41 33 31 27 20 25 21 22 17 11
52 56 56 56 54 54 56 58 58 56 55 52 46 44 42 44 40 38 41 38 34 37 34 29 29 30 23 22 21 24 32 35 39 45 47 33 37 28 26 20 22 24 26 24 21
61 61 57 56 56 57 57 58 60 62 59 58 56 51 47 43 42 40 42 41 40 39 34 32 31 31 29 27 28 30 37 43 45 47 32 34 39 19 24 24 20 25 21 17 18
64 62 59 60 60 61 62 60 61 63 64 63 62 59 51 50 48 46 45 45 45 43 38 37 38 31 29 27 26 27 37 40 39 37 31 38 29 11 20 24 25 29 26 25 23
73 73 69 66 61 66 65 66 64 63 66 64 63 63 61 53 50 47 50 47 44 43 44 45 44 37 38 33 34 34 35 32 41 40 39 38 23 25 22 26 28 32 28 29 24
80 77 74 74 72 69 70 69 71 71 68 67 66 66 66 60 56 55 54 54 54 51 49 50 47 42 37 42 44 39 31 38 44 44 38 35 26 24 17 25 30 30 28 29 28
75 75 73 74 75 73 71 71 71 76 75 74 71 70 68 67 61 61 61 59 58 57 58 55 52 48 47 51 44 41 42 44 44 43 41 36 23 21 18 19 30 30 29 31 32
48 51 51 56 64 68 70 70 72 70 76 80 79 77 74 72 69 65 66 66 64 63 62 59 58 55 53 52 48 46 46 46 47 39 38 34 24 18 17 21 28 32 33 33 33
41 40 39 35 39 46 53 60 66 69 71 79 82 84 80 78 75 71 71 70 69 68 66 64 64 59 56 56 57 58 53 51 47 45 45 39 23 24 15 16 23 32 33 31 32
35 34 33 33 33 28 29 43 53 62 67 72 80 84 84 84 82 78 75 75 74 73 71 69 68 64 63 60 60 60 57 56 54 55 45 44 27 17 22 19 23 33 38 39 37
27 25 25 25 27 27 22 28 41 51 59 57 72 79 84 84 86 84 81 80 79 78 77 75 72 69 66 62 63 62 61 59 60 56 55 42 36 27 20 22 25 29 39 45 44
25 22 20 20 21 21 20 21 21 35 47 50 49 64 77 80 85 85 85 85 84 83 82 80 77 75 71 69 66 64 64 62 60 59 59 49 45 35 25 26 32 31 30 35 42
28 26 24 19 19 20 20 19 16 15 24 31 48 54 58 72 80 83 87 88 88 88 88 86 84 80 77 75 74 71 64 64 63 63 59 53 48 40 33 30 33 37 36 32 32

GFSSW_500_spd_021.txt.gz
Wind_Speed
16 16 17 16 15 14 13 12 12 12 11 9 9 9 9 9 11 12 13 11 7 11 14 13 10 11 14 14 15 14 11 9 5 4 6 9 12 11 8 9 10 8 12 10 10
18 18 18 18 18 17 15 14 14 14 13 12 11 9 10 9 10 13 11 11 11 10 12 14 15 14 15 16 18 14 12 11 8 5 7 8 11 14 11 10 9 8 8 11 10
21 21 21 20 20 19 19 17 15 15 15 14 13 13 11 10 10 12 15 15 14 17 20 25 22 17 17 17 18 14 18 11 11 7 4 9 12 16 14 11 7 7 11 12 13
21 21 22 22 22 21 21 20 18 18 17 16 15 15 16 12 11 11 13 16 17 15 14 17 20 17 14 17 19 17 19 14 11 9 8 8 10 15 17 15 11 8 9 15 15
23 21 21 21 22 23 24 22 21 22 21 20 18 18 18 16 8 11 13 12 18 18 15 12 13 20 19 18 21 20 20 19 15 13 11 7 7 11 16 16 13 11 8 11 16
24 24 24 23 22 23 24 23 23 23 23 22 21 20 21 20 7 10 9 12 13 19 18 13 13 20 27 24 21 26 22 21 24 12 13 10 7 7 9 13 13 11 9 5 14
28 29 28 27 25 24 23 23 24 25 24 23 22 21 23 22 11 13 11 11 11 14 19 19 19 22 26 26 25 28 23 19 22 21 14 11 12 9 6 7 10 10 9 4 10
30 31 33 32 29 27 25 23 24 24 25 24 22 23 24 23 14 15 15 10 12 12 16 22 23 23 26 26 28 29 26 19 20 16 16 18 19 14 10 7 8 9 8 6 8
36 36 36 34 33 32 31 29 26 25 26 25 24 23 26 27 18 18 21 17 16 13 13 16 21 22 22 22 25 28 21 21 26 20 18 18 20 17 14 9 8 8 7 7 8
41 40 40 39 39 38 37 34 31 28 27 26 25 26 27 27 24 21 26 19 19 19 15 12 13 17 22 20 12 18 22 23 28 24 22 18 20 22 19 17 14 10 8 7 7
43 43 44 44 43 41 40 39 37 34 31 29 27 28 27 29 28 25 26 24 21 18 13 13 11 5 14 20 18 17 24 27 30 33 28 20 23 24 21 19 15 13 10 8 9
48 47 46 47 47 46 44 42 43 40 34 33 33 29 32 32 32 29 29 28 23 18 19 17 5 11 18 23 23 23 23 28 33 33 31 31 26 27 19 17 15 17 15 9 12
51 51 49 49 51 50 49 48 46 46 43 34 36 33 37 38 36 33 32 31 27 27 22 19 16 17 19 22 26 25 22 28 32 35 30 27 30 31 23 23 19 12 18 19 16
48 49 51 49 51 53 53 51 50 49 50 43 41 41 39 42 40 37 36 34 32 26 28 25 23 21 19 17 22 24 20 27 33 35 36 30 32 36 31 28 23 13 16 20 19
56 55 52 50 49 51 53 54 54 53 52 52 48 45 43 45 43 41 38 40 35 30 32 21 22 21 20 12 18 19 26 26 31 36 38 34 32 37 36 31 21 16 22 19 20
61 60 59 57 52 51 52 53 53 55 58 56 52 48 45 45 47 43 44 42 40 38 36 34 31 32 23 25 23 25 32 33 35 38 42 31 33 36 37 25 22 21 24 22 20
69 65 64 62 61 61 63 62 59 59 60 60 58 56 50 47 45 42 47 46 44 42 42 37 36 31 33 30 30 29 36 38 39 40 31 31 40 17 32 30 23 25 24 27 24
78 75 73 68 67 65 64 63 64 62 61 62 61 59 54 54 50 44 45 49 47 46 44 41 42 34 30 30 29 30 33 34 35 30 39 34 14 10 28 32 28 29 26 28 30
82 82 81 76 73 71 70 67 66 67 64 61 61 60 60 57 54 50 49 46 46 47 47 46 46 39 37 32 35 34 32 27 38 37 36 27 16 11 18 31 32 29 30 31 28
60 57 62 67 69 70 72 71 71 69 69 69 67 66 64 60 58 57 53 55 52 52 49 49 50 46 41 41 43 39 33 37 38 38 35 25 20 11 14 20 27 31 30 32 27
48 42 42 42 42 50 56 63 65 70 72 73 73 72 70 64 61 60 61 59 57 55 55 54 53 52 49 49 48 43 42 40 39 39 34 26 17 12 13 19 27 35 32 32 30
42 38 33 31 30 32 34 44 53 61 70 73 76 77 75 72 66 63 64 64 64 60 57 57 54 53 53 51 47 45 44 43 45 36 31 31 28 18 13 19 26 34 36 34 32
37 33 29 25 23 24 25 28 32 46 62 71 76 79 77 76 70 68 66 67 67 66 62 61 61 57 54 56 54 53 52 52 48 47 45 37 26 19 12 16 21 33 41 39 38
43 29 27 23 20 18 18 22 25 30 49 62 69 76 77 78 75 72 70 71 70 70 68 67 65 61 59 58 56 55 55 54 50 53 43 39 31 19 23 17 21 27 38 42 41
43 36 26 24 22 21 16 17 18 20 30 45 55 66 72 74 76 76 76 76 75 75 73 70 69 67 64 63 62 61 59 58 57 53 52 38 37 31 23 24 23 27 36 42 44
41 38 32 23 20 19 17 13 12 11 12 30 33 32 53 69 77 77 78 80 80 80 78 77 74 72 70 67 66 65 62 63 60 56 53 44 43 34 28 27 28 30 33 40 45
42 36 33 24 18 14 16 14 12 9 10 7 31 41 30 31 63 78 78 81 82 83 82 80 79 77 74 72 70 70 65 63 60 58 55 48 44 36 34 29 28 31 30 33 41

GFSSW_500_spd_024.txt.gz
Wind_Speed
18 18 18 18 17 17 17 16 14 14 12 11 9 8 7 7 11 13 16 13 12 15 14 10 10 12 12 18 18 13 10 7 6 7 7 7 8 10 9 11 12 11 13 10 10
19 20 20 20 19 18 18 18 17 16 16 13 12 10 8 8 10 14 12 14 15 18 19 16 14 16 16 16 21 18 14 11 7 5 7 9 8 10 10 14 12 9 14 13 11
21 21 21 21 21 21 20 19 19 19 18 16 15 14 13 9 10 11 15 16 16 20 20 25 23 21 22 19 19 19 16 14 11 8 6 8 9 10 12 14 13 12 13 15 14
23 22 22 21 21 21 21 21 20 22 21 18 18 18 17 14 10 11 12 18 20 19 20 21 23 20 20 21 22 17 17 14 12 9 7 9 10 12 12 13 12 12 14 14 17
25 25 24 22 21 22 21 21 23 23 23 21 20 21 21 17 10 10 14 14 22 23 19 18 20 23 20 22 23 20 20 15 12 11 9 8 8 11 12 13 12 10 13 16 16
25 26 26 25 26 24 25 23 22 23 23 23 22 23 24 23 16 14 13 14 16 24 25 20 19 23 29 26 26 26 24 18 15 15 11 8 8 9 10 12 12 12 12 18 19
30 29 28 28 29 29 27 26 25 23 22 23 23 23 26 25 20 14 17 17 16 17 26 27 25 25 28 31 29 30 29 26 24 15 14 12 10 9 8 8 10 10 11 13 20
34 35 34 33 32 30 29 28 27 26 25 23 24 25 24 26 24 19 23 17 17 16 21 27 28 26 26 30 31 31 30 26 25 28 16 13 14 13 11 10 9 7 8 10 15
38 38 39 38 37 36 34 33 31 30 29 26 24 26 26 28 26 21 23 23 21 17 16 20 27 27 25 23 30 33 24 25 27 29 28 22 21 19 15 12 11 9 9 10 12
42 43 45 44 42 40 40 38 36 35 33 30 27 28 28 28 29 26 24 28 23 22 19 17 17 22 26 24 22 26 30 24 28 27 24 25 26 23 19 16 14 13 13 13 14
44 45 46 49 48 46 45 43 41 39 38 35 31 31 29 30 34 30 28 30 27 23 18 17 19 14 17 24 23 24 28 27 29 33 27 29 30 26 22 21 17 14 14 15 14
44 42 42 47 49 50 49 49 47 45 40 41 38 33 32 33 35 35 33 32 28 22 22 20 11 16 23 29 28 25 22 28 32 36 33 32 32 29 26 23 20 19 18 18 19
48 47 47 47 47 48 50 51 52 52 48 42 42 37 37 37 36 36 35 34 33 32 25 21 22 24 25 28 32 32 30 33 36 39 37 36 34 32 27 25 23 21 20 19 17
57 57 54 54 53 53 51 50 50 53 55 49 45 46 42 42 41 39 37 38 36 33 30 30 29 27 26 26 27 31 29 32 38 42 40 41 39 36 29 30 28 23 16 17 18
64 62 64 62 60 57 56 53 53 50 54 59 51 48 46 47 43 43 40 44 41 35 35 29 29 25 25 19 23 24 33 36 34 40 38 41 41 40 37 38 32 26 16 19 19
74 73 71 70 67 65 60 61 58 57 57 59 56 51 46 48 49 47 45 46 44 41 40 36 34 35 28 31 26 31 37 37 37 35 45 34 34 37 41 40 35 31 23 21 20
78 80 80 76 73 73 70 66 65 63 59 58 60 57 51 48 51 48 50 50 49 46 43 41 40 37 38 37 34 35 38 39 40 42 35 32 35 25 47 39 37 31 25 25 24
64 65 68 71 70 67 71 72 70 69 71 64 58 56 52 52 50 49 49 52 53 48 47 44 44 40 37 38 35 36 37 35 39 37 34 29 22 20 30 39 37 34 29 29 29
63 64 65 52 50 50 56 63 63 74 72 69 66 62 58 55 53 52 49 49 49 52 50 49 45 44 40 37 37 35 36 27 37 36 32 21 21 22 18 35 42 37 32 28 28
59 61 61 44 35 33 34 42 56 67 70 67 65 70 67 63 57 54 54 55 52 51 56 54 50 49 44 41 42 42 30 41 39 36 29 25 20 16 16 28 40 39 33 27 25
55 59 56 43 28 21 23 30 37 49 62 66 68 70 69 66 61 58 62 60 58 57 58 57 53 53 51 51 48 48 47 43 36 32 29 24 18 18 18 23 34 37 31 28 26
54 54 52 43 27 17 18 21 27 33 49 61 68 69 69 70 64 63 64 64 63 63 54 54 56 58 54 51 52 47 42 41 41 35 31 24 18 18 17 23 32 38 34 34 32
51 48 43 40 26 18 15 17 22 26 31 47 61 71 70 68 67 68 68 65 64 64 62 62 58 56 56 57 58 55 49 49 45 38 35 32 29 23 17 20 29 39 43 41 33
50 46 42 36 34 19 15 14 15 19 22 30 48 62 67 65 69 72 72 70 69 67 66 62 62 60 57 50 53 56 54 54 50 46 42 39 36 24 19 21 30 36 43 44 39
48 47 41 36 33 24 17 13 14 14 17 22 24 38 60 63 70 70 76 75 74 71 69 68 64 64 62 64 61 59 58 56 55 49 47 41 38 35 25 24 24 34 38 44 44
45 46 42 36 30 23 18 13 11 9 10 12 21 21 22 57 67 71 77 78 79 76 74 71 70 69 65 62 63 64 61 61 56 52 48 43 40 37 33 25 25 29 36 41 48
40 42 44 41 27 21 16 15 13 9 10 9 15 35 27 29 54 71 75 72 80 78 78 75 75 73 68 65 64 68 64 62 57 54 50 43 41 35 34 29 27 29 37 41 48

GFSSW_500_spd_027.txt.gz
Wind_Speed
18 19 19 19 19 19 18 16 15 14 13 11 9 9 6 7 10 13 15 13 14 15 15 11 11 13 12 13 12 18 13 13 7 6 9 4 6 8 10 11 11 13 11 9 9
19 20 21 21 20 20 20 19 18 17 16 15 13 11 8 8 9 14 13 13 16 18 17 14 13 15 15 16 13 13 21 22 9 9 6 4 8 10 11 12 14 13 12 11 9
22 22 21 21 21 21 20 20 21 20 18 18 17 14 13 9 10 10 15 18 17 19 23 23 21 21 22 17 17 17 8 16 17 7 3 7 4 8 9 12 15 11 11 11 11
22 24 24 23 22 22 21 20 21 21 20 20 21 19 17 14 11 12 13 19 22 21 23 22 24 20 20 18 19 20 21 16 13 7 5 6 9 5 8 14 17 13 13 14 14
24 23 23 24 25 24 24 23 22 22 21 21 23 22 22 18 15 12 16 17 22 24 25 24 21 23 20 23 23 22 19 16 14 9 8 8 9 8 7 12 13 14 14 16 15
29 28 27 26 24 25 27 28 27 25 24 22 24 23 24 22 17 16 18 15 20 25 27 25 24 26 28 28 28 24 23 20 15 12 10 8 9 9 9 11 9 12 14 16 18
33 33 32 31 30 29 28 28 29 28 26 25 25 23 24 27 23 19 19 20 18 22 27 29 28 28 29 30 28 33 28 23 17 14 12 11 9 9 12 10 10 10 12 16 19
39 39 38 36 35 34 33 33 32 30 29 27 27 25 21 27 24 24 21 21 21 19 22 31 32 29 30 32 36 34 31 29 22 17 15 13 9 13 16 12 12 10 10 14 20
40 42 43 43 43 41 39 38 37 36 34 32 29 29 27 26 26 27 24 25 24 23 23 25 34 32 33 32 35 36 30 31 26 24 17 16 9 12 21 19 13 11 10 13 17
39 40 42 45 46 46 46 45 43 40 40 38 35 33 30 29 27 28 27 27 26 28 23 23 27 35 35 32 24 35 33 24 27 24 31 23 17 14 17 18 14 12 11 12 13
42 43 44 44 43 45 47 49 48 49 43 44 40 38 34 33 29 34 31 30 29 30 25 23 24 23 27 29 28 31 29 30 23 24 24 31 24 25 19 19 16 14 13 14 15
47 46 46 47 48 46 45 47 50 51 49 47 46 41 40 36 34 34 36 32 31 27 28 27 19 21 26 31 33 31 31 29 28 26 30 27 26 24 20 25 20 18 16 17 17
54 55 55 55 54 53 50 51 48 51 55 46 48 47 44 43 40 37 39 34 33 33 30 26 24 24 28 32 36 36 32 28 29 28 27 31 29 27 24 24 24 21 19 18 18
64 66 65 63 61 61 60 57 56 51 52 53 47 52 48 47 46 43 38 38 39 36 32 32 32 30 29 32 34 35 33 34 31 31 31 33 31 32 28 26 27 25 23 19 20
72 73 73 72 69 66 64 66 63 58 56 57 53 51 52 51 46 48 40 44 41 38 39 34 34 32 34 26 28 26 36 38 38 36 31 31 33 25 27 28 28 28 25 21 23
64 64 66 71 75 75 72 66 67 65 66 57 57 52 52 51 51 52 49 48 43 43 42 39 37 38 30 31 31 30 36 41 41 43 45 39 36 33 31 27 27 28 28 24 24
53 56 56 57 61 62 63 64 57 63 47 47 65 61 54 51 53 56 54 53 53 51 48 43 42 36 39 38 38 37 37 41 45 46 45 36 39 33 30 31 31 30 29 29 28
58 57 56 56 59 58 49 46 49 41 41 69 70 68 59 55 52 57 53 56 55 52 48 48 48 44 42 43 41 39 38 39 43 42 35 34 35 33 31 30 32 29 30 31 32
60 59 55 57 61 55 33 25 19 32 61 71 72 66 56 53 52 54 55 52 57 56 53 50 48 42 45 40 42 41 41 30 24 23 24 25 25 23 29 32 32 34 36 32 32
58 58 52 51 61 42 21 10 33 37 56 62 61 56 46 38 55 58 56 52 55 59 58 48 35 50 45 47 46 45 33 39 41 28 25 24 21 24 20 23 30 34 37 34 32
58 54 49 49 59 31 12 23 30 38 42 54 53 60 58 62 72 59 55 57 60 60 59 59 40 35 52 55 49 46 47 42 36 36 23 17 13 18 26 16 30 34 37 36 32
59 47 44 45 39 28 17 24 20 33 38 46 61 58 56 57 70 69 40 55 66 61 63 58 66 52 50 50 49 44 47 43 41 36 33 19 15 26 23 22 28 35 41 41 36
54 44 44 41 37 27 22 13 16 21 28 28 37 60 62 52 60 74 64 75 71 66 62 60 67 60 41 43 52 56 51 47 39 34 34 32 17 30 23 19 29 32 40 43 39
51 42 40 39 38 29 23 12 13 20 18 23 23 39 68 52 54 52 67 80 74 70 69 68 65 64 53 49 46 54 55 50 45 46 35 33 26 35 26 23 30 33 40 46 45
53 42 37 34 33 26 24 11 11 18 18 18 17 24 42 69 45 51 65 80 71 69 67 67 62 60 55 31 35 46 53 53 53 46 43 26 30 27 32 19 32 37 37 43 46
50 42 36 33 33 28 22 18 17 17 15 15 13 22 22 44 66 45 62 77 74 76 69 69 67 60 65 45 52 53 43 51 50 50 44 38 27 28 30 23 25 38 39 38 44
52 41 37 36 33 31 23 20 17 14 13 12 14 18 24 29 52 68 57 66 76 77 75 73 68 66 67 67 64 65 61 52 43 48 48 49 40 30 36 38 30 29 32 40 39

GFSSW_500_spd_030.txt.gz
Wind_Speed
18 18 19 19 20 19 19 18 17 14 13 12 11 10 8 7 9 12 13 12 13 13 13 12 12 12 10 10 13 14 9 4 7 8 15 4 8 2 8 10 12 12 10 8 6
20 20 21 21 21 21 20 19 19 18 16 15 15 12 10 9 8 11 13 14 14 15 15 14 14 14 14 14 15 15 7 19 18 13 13 9 7 8 7 10 12 12 10 8 7
21 21 21 22 22 22 22 22 20 18 19 18 17 16 13 11 10 10 13 17 16 17 18 19 18 17 18 18 17 15 9 14 17 16 8 6 6 5 5 8 9 11 10 8 9
24 24 23 23 23 23 23 22 22 20 18 20 20 19 18 15 11 15 12 17 20 18 20 20 21 17 16 16 18 18 12 11 15 12 6 8 15 7 3 7 5 11 12 9 10
28 28 28 27 27 25 25 25 23 23 22 22 22 20 21 18 19 15 17 16 18 22 22 22 20 18 15 19 19 18 14 11 5 3 9 11 6 2 7 7 6 10 13 10 10
32 31 31 30 30 30 29 28 27 26 26 26 26 22 21 18 20 18 18 18 17 20 26 25 23 21 24 23 23 20 18 19 4 5 10 6 13 9 7 8 7 7 8 11 12
37 37 37 37 35 34 33 33 32 30 28 27 27 25 21 25 21 19 23 22 20 19 23 28 28 28 25 28 26 25 28 27 19 19 13 10 9 1 13 11 13 7 7 10 13
35 36 37 37 38 39 39 38 37 35 35 33 31 28 20 30 20 23 24 23 22 24 23 26 33 30 30 30 32 32 33 30 23 21 17 11 8 16 14 13 16 12 9 8 13
34 35 36 37 37 38 40 41 42 42 40 38 36 34 27 28 24 25 25 25 26 26 26 27 31 34 33 33 34 36 34 31 21 20 14 12 14 21 17 19 13 13 10 9 11
39 40 40 41 41 40 40 41 42 46 45 45 42 38 36 32 32 27 27 27 27 29 28 28 29 34 38 36 29 33 31 28 26 21 19 17 15 17 19 18 23 12 11 10 10
46 47 47 46 45 43 40 43 43 45 45 47 49 43 41 37 36 32 31 33 30 34 30 30 31 27 28 34 32 30 27 31 21 19 24 16 19 24 28 35 18 17 16 14 11
50 52 54 52 52 53 52 51 49 48 45 44 48 47 46 43 41 38 37 35 34 30 32 36 28 23 26 33 37 35 28 27 23 21 22 23 24 26 32 20 6 20 18 13 13
59 59 59 58 59 60 58 59 59 58 54 40 44 48 42 50 43 44 40 36 34 34 33 32 25 28 27 30 36 37 34 29 26 24 25 27 23 27 35 19 22 24 24 22 12
65 66 66 66 69 68 68 65 61 63 61 53 49 48 47 50 51 44 45 41 41 37 34 35 33 34 32 32 32 36 35 34 32 28 30 30 29 32 32 23 31 27 28 28 10
58 51 48 49 47 47 57 60 64 63 58 50 62 51 51 52 45 48 44 47 45 38 42 37 36 38 36 29 33 31 33 37 37 32 32 32 33 30 30 34 32 30 32 20 15
37 36 37 42 48 51 50 54 55 54 54 20 44 55 57 53 51 49 50 48 44 44 45 39 39 40 34 33 32 25 29 34 38 34 42 40 34 30 34 27 26 28 21 17 18
36 38 48 54 51 51 52 60 58 45 28 28 49 64 63 60 50 52 54 57 55 56 53 46 45 42 38 37 33 34 33 36 39 48 48 37 42 37 25 29 29 30 29 25 25
42 44 51 58 51 48 50 51 57 21 25 49 60 58 66 62 57 45 54 59 54 55 51 48 50 46 45 43 37 41 38 39 44 44 37 36 35 29 32 28 23 18 28 26 29
48 52 58 51 47 46 49 49 42 27 36 51 62 43 46 47 55 36 50 54 56 55 55 52 50 43 45 44 44 44 44 32 30 22 25 28 25 22 29 40 33 32 30 31 30
53 58 54 51 45 45 46 34 31 34 38 36 51 41 44 52 55 53 48 45 51 55 57 55 37 46 40 43 45 46 35 38 38 30 24 18 22 18 24 36 43 39 35 33 32
53 53 55 46 42 44 28 29 26 30 37 44 44 54 44 54 61 62 53 42 44 39 55 59 49 35 36 49 50 47 45 40 35 34 23 16 17 20 21 21 30 30 37 38 37
51 49 53 45 41 36 28 33 24 17 17 38 47 49 49 54 61 59 64 63 54 55 56 61 61 47 36 42 43 48 46 43 42 38 34 21 16 22 25 24 24 32 34 39 36
51 49 53 47 42 37 34 27 16 13 20 23 42 49 60 43 57 58 59 63 66 62 61 57 69 56 42 35 39 49 50 48 38 35 37 33 18 24 25 22 22 25 32 29 32
45 49 47 41 39 41 36 23 10 17 21 17 24 30 56 63 40 57 59 49 66 69 70 68 70 68 60 52 40 47 45 44 42 40 36 36 23 28 26 30 31 28 31 34 36
46 50 44 38 32 37 34 20 16 18 22 21 24 16 31 56 56 44 46 56 63 75 70 67 65 71 55 41 29 43 45 45 47 40 40 26 31 29 32 25 34 35 32 31 32
45 49 39 39 34 35 33 28 21 22 20 14 13 19 21 34 44 50 42 50 47 68 72 70 64 68 63 52 43 42 38 41 42 43 32 31 23 33 35 27 26 36 33 35 39
42 47 37 41 35 34 29 28 22 21 15 12 14 14 22 26 40 63 37 34 45 63 70 69 68 74 69 60 50 44 43 40 40 41 38 41 29 32 34 33 29 33 39 38 34

GFSSW_500_spd_033.txt.gz
Wind_Speed
19 18 18 19 20 20 20 18 16 15 15 14 13 11 10 7 6 9 12 10 12 10 12 12 11 13 11 9 14 10 11 11 11 18 18 7 7 6 6 3 4 6 6 7 5
19 19 19 20 20 20 21 20 19 18 16 16 15 13 12 10 10 8 10 13 12 12 14 13 14 14 14 13 12 11 4 17 17 12 10 14 5 7 5 5 4 6 7 7 6
21 21 21 21 22 22 21 21 20 20 19 17 16 15 14 12 11 12 10 12 15 15 16 16 16 15 16 15 14 15 7 13 10 9 8 6 4 9 3 3 4 5 6 5 4
24 24 25 25 25 25 24 23 21 21 21 20 17 15 15 14 12 17 12 13 15 17 16 18 17 16 15 16 17 17 13 12 13 8 3 1 8 6 8 8 5 5 4 6 6
29 29 29 28 27 27 28 28 26 24 24 24 22 19 16 12 22 16 18 18 15 17 19 20 19 21 16 19 20 18 14 9 11 9 8 2 10 5 5 8 4 6 7 7 4
31 31 32 32 33 33 32 32 30 29 28 27 26 22 18 14 20 16 20 20 18 17 19 22 21 22 25 21 18 18 18 16 12 16 6 5 10 9 7 7 5 10 7 6 4
30 31 31 32 33 34 35 36 37 35 32 31 31 26 17 23 20 16 21 22 21 20 19 22 27 28 28 26 22 23 18 20 15 11 3 6 11 17 6 7 7 8 6 8 5
29 30 30 30 31 33 34 36 38 39 39 38 35 31 21 31 24 19 20 27 23 24 24 25 28 30 31 28 30 30 30 26 22 18 14 12 14 21 13 9 4 5 5 5 6
35 36 36 35 34 34 35 36 37 38 40 41 42 38 29 31 30 29 24 24 26 28 29 29 30 31 36 35 35 36 32 30 28 21 17 14 17 16 20 19 13 2 6 6 5
39 40 42 43 43 42 42 41 40 39 39 41 43 42 42 35 35 33 30 28 27 29 33 32 32 34 36 40 34 30 32 28 29 21 19 16 15 17 25 28 23 9 2 5 9
43 43 43 45 46 48 48 50 50 46 41 42 43 40 41 40 40 38 36 35 32 32 31 34 37 32 26 30 33 33 31 29 26 25 25 12 11 21 29 26 22 18 8 3 5
45 48 53 56 57 56 55 55 53 53 45 48 44 41 37 41 44 41 41 41 38 29 33 40 34 27 26 28 35 37 34 31 23 24 21 17 18 33 32 26 30 19 11 5 8
56 58 60 62 63 66 64 62 60 58 54 55 52 50 43 48 40 43 45 41 42 37 36 35 24 33 33 31 34 38 37 30 23 25 20 16 17 36 41 27 31 35 16 16 11
60 58 56 42 45 43 41 44 52 65 58 51 54 56 55 52 49 42 45 44 47 45 38 35 34 38 36 34 31 33 34 33 26 34 30 31 37 33 31 32 28 26 29 18 3
54 50 39 33 30 36 40 40 41 47 47 29 52 57 59 55 51 43 46 47 48 47 44 36 36 39 39 30 31 26 33 36 34 39 35 35 34 27 34 33 29 30 19 17 14
44 38 31 36 39 49 43 45 46 45 42 25 47 51 57 65 63 51 52 51 45 49 48 43 37 40 38 34 37 28 34 38 41 42 50 43 40 38 37 29 29 31 24 14 4
38 34 40 43 47 53 47 49 48 46 44 37 45 55 50 65 60 64 57 57 56 55 56 51 46 42 42 39 41 36 35 36 42 52 50 45 47 42 33 29 26 28 28 24 10
42 41 46 48 51 49 49 46 41 44 39 33 41 42 49 54 63 69 64 61 57 56 53 53 52 51 46 45 42 37 34 38 41 46 44 45 45 36 36 31 26 28 33 29 32
43 46 47 51 50 48 45 40 42 42 41 43 35 61 47 48 60 69 67 63 59 55 58 57 54 43 46 44 43 40 45 36 34 34 37 40 39 33 28 33 36 32 38 34 32
40 46 49 47 47 47 41 35 37 43 43 38 38 44 54 45 50 60 62 68 66 47 43 56 48 48 40 43 44 47 34 40 39 37 33 27 24 13 28 34 41 36 41 29 26
42 49 48 45 45 41 37 34 37 37 37 34 34 30 44 51 47 53 61 65 64 54 53 57 55 54 37 46 50 50 44 39 37 37 30 22 7 7 7 6 25 34 27 23 21
43 49 45 47 39 39 31 35 39 34 22 18 21 17 28 53 49 52 61 52 60 60 62 54 60 54 56 43 45 42 49 43 43 37 31 19 20 21 21 22 14 18 33 27 28
45 47 44 45 36 35 32 36 32 17 17 17 18 22 33 48 50 54 62 50 59 65 65 61 66 58 58 51 45 40 46 47 41 35 37 32 25 15 18 17 19 16 23 41 37
46 47 42 43 35 38 34 34 26 20 20 21 23 27 18 40 61 52 50 44 56 67 69 72 72 70 61 58 52 46 39 42 46 43 35 36 19 10 13 18 22 14 25 28 44
47 45 42 42 34 35 34 34 29 18 22 26 22 26 29 26 47 65 49 39 56 64 68 72 74 74 64 58 53 42 46 36 48 43 41 39 28 21 15 18 22 21 21 26 33
47 43 40 43 33 34 35 32 27 26 21 18 19 14 16 20 35 57 52 40 47 64 65 73 71 77 68 57 44 39 41 34 38 45 38 43 32 25 25 25 26 26 29 27 34
45 40 39 37 33 34 35 30 25 27 20 19 15 14 15 19 24 48 63 33 47 55 67 71 68 73 67 58 49 45 46 32 30 36 44 48 34 23 29 30 33 31 33 37 37

GFSSW_500_spd_036.txt.gz
Wind_Speed
15 16 16 16 16 16 15 14 14 14 14 13 13 10 10 6 7 7 13 9 12 11 12 12 12 13 13 12 16 6 5 5 17 4 30 16 11 10 5 5 4 1 2 4 2
18 18 18 18 18 18 18 17 16 16 15 14 13 13 11 11 9 7 10 14 14 14 14 15 16 13 15 12 14 12 3 22 16 11 9 17 13 8 7 9 6 1 3 4 3
21 21 22 22 22 22 22 21 20 18 17 16 14 12 12 12 13 13 12 13 15 17 16 17 16 15 17 14 12 15 13 9 17 16 5 10 10 8 3 4 7 4 4 4 3
26 27 27 27 26 25 25 24 24 24 22 19 16 13 11 11 16 17 14 14 15 19 18 19 16 17 14 14 13 16 15 16 14 18 9 9 20 15 8 4 8 7 5 3 3
26 27 28 29 29 30 31 30 28 26 26 25 22 17 13 12 24 17 19 18 15 17 22 21 21 21 15 17 14 16 17 14 18 11 7 10 11 16 6 4 8 8 6 5 5
25 26 27 27 28 30 31 32 33 33 31 30 27 23 15 19 25 15 22 20 20 18 19 22 22 23 25 22 15 19 20 20 20 17 9 8 16 10 8 7 10 8 7 4 7
25 25 26 27 27 28 29 30 31 33 33 35 34 29 19 29 26 17 19 24 22 21 19 22 30 30 29 29 25 26 27 28 24 14 13 13 12 10 12 7 6 6 7 5 3
30 31 32 32 31 30 30 31 31 31 33 34 36 35 25 33 29 22 25 25 25 25 25 25 29 32 35 30 32 32 32 26 21 16 17 12 11 6 6 5 7 5 3 6 1
35 35 36 38 38 37 36 36 33 33 35 35 35 35 31 35 37 32 26 29 29 29 31 31 33 30 37 36 38 36 29 27 28 25 18 15 10 9 10 8 7 5 4 1 4
41 43 43 41 41 42 41 40 40 39 42 39 37 37 36 36 38 36 31 35 31 33 36 36 36 34 37 39 34 34 28 27 26 25 21 18 18 16 12 8 2 7 4 1 6
44 46 47 49 48 46 46 47 48 43 46 49 47 41 39 41 39 43 40 40 40 39 32 35 40 37 27 30 31 35 34 28 22 26 27 18 18 23 16 7 4 2 8 8 3
53 50 52 54 56 56 56 57 55 51 45 46 52 51 48 47 41 41 46 45 44 40 37 42 37 26 31 33 33 38 38 30 27 28 24 18 20 25 14 5 5 11 8 9 2
52 55 57 58 57 59 59 57 59 59 55 58 55 51 56 53 48 44 44 46 48 45 45 42 26 33 35 35 35 36 38 32 29 30 28 32 28 36 23 16 17 14 7 6 6
57 56 57 47 50 38 32 32 37 37 45 52 51 49 51 60 59 55 54 49 51 49 49 46 36 39 39 38 35 36 29 35 34 36 40 31 30 40 28 22 16 19 10 7 9
55 49 44 45 31 24 29 35 36 33 39 37 39 43 46 52 64 63 61 59 51 53 54 47 43 42 44 37 35 26 33 39 37 38 42 43 43 38 31 27 22 14 11 10 5
48 43 42 38 31 31 35 37 39 38 40 39 36 37 36 45 56 65 68 66 59 54 55 51 47 48 40 36 39 34 37 41 44 45 52 46 46 42 39 26 21 22 17 13 8
43 41 40 37 35 38 41 40 38 37 36 38 40 47 44 42 49 51 68 71 65 62 63 59 58 54 48 45 46 42 44 46 52 58 58 45 51 40 35 28 24 23 12 11 12
43 40 33 35 38 40 41 37 33 34 37 42 49 47 49 52 52 46 66 70 73 69 63 58 59 58 52 50 45 45 48 49 51 54 47 41 55 37 37 29 27 17 14 11 15
43 35 30 37 40 37 38 35 35 37 39 39 41 49 51 52 50 53 62 60 70 74 73 63 62 57 53 49 47 42 49 41 43 47 46 48 48 41 39 37 33 30 32 28 18
34 27 34 40 39 39 39 35 40 40 41 43 44 38 35 40 45 61 61 56 62 73 78 70 68 62 56 46 48 46 40 44 46 44 46 44 42 39 38 31 26 32 32 24 25
31 34 38 41 38 38 35 34 38 37 40 42 39 33 31 34 29 67 65 56 64 69 77 75 73 65 49 60 52 52 50 45 42 44 41 34 33 28 33 35 35 35 34 30 23
34 36 39 41 36 36 33 31 35 34 38 36 29 24 28 25 27 57 67 55 58 67 70 74 77 69 63 53 53 48 51 46 45 45 37 28 24 38 32 31 29 45 45 36 21
34 37 42 38 34 35 32 30 33 32 34 26 26 27 27 29 31 30 62 56 47 56 66 69 78 67 66 56 57 51 49 48 46 38 39 32 35 40 33 31 29 33 51 33 28
35 41 39 37 35 33 32 30 30 31 30 23 25 30 31 28 32 24 58 56 40 60 64 70 78 73 71 64 54 58 54 51 49 45 39 36 31 30 25 23 26 21 22 30 32
38 41 38 35 35 33 33 31 31 28 26 23 22 25 26 27 27 28 57 49 42 64 61 71 73 74 73 68 63 59 54 50 53 48 41 33 36 23 25 19 22 19 14 26 28
40 38 33 36 34 32 32 32 31 29 21 21 23 22 20 16 19 19 54 50 34 33 59 64 68 73 70 66 60 56 55 50 41 44 41 36 37 25 27 24 27 20 17 19 29
36 30 31 32 36 33 32 30 30 30 19 25 22 20 16 19 15 14 41 48 32 36 59 67 64 68 69 65 60 55 50 48 35 31 36 39 37 31 30 27 29 21 20 21 22

GFSSW_500_spd_039.txt.gz
Wind_Speed
15 16 16 16 16 15 14 14 14 16 15 12 10 10 11 10 10 9 11 11 13 14 13 11 10 12 12 11 10 11 13 7 15 17 23 19 14 10 13 7 10 6 4 5 5
19 19 19 19 19 18 18 17 17 16 17 15 12 11 11 12 14 12 13 13 16 17 16 17 14 12 12 10 14 14 11 19 9 9 17 20 14 13 9 5 7 7 7 10 6
23 24 24 24 24 24 23 22 20 19 19 18 15 13 12 12 17 17 15 13 16 19 19 19 13 12 11 11 12 15 9 5 14 13 15 12 12 12 12 4 4 8 11 12 8
23 24 25 25 26 27 27 27 26 24 22 22 19 15 14 14 21 17 16 17 16 20 20 21 17 15 13 12 15 17 16 9 19 16 12 15 20 14 10 9 1 6 12 12 11
21 21 22 23 24 25 27 27 28 28 28 27 23 19 17 20 26 17 18 19 19 18 22 23 22 20 17 18 17 20 19 18 11 20 14 18 15 11 12 11 9 6 6 12 12
21 21 22 22 24 24 25 26 27 28 29 30 30 25 21 26 27 22 19 20 24 22 20 22 24 27 27 22 16 26 28 23 18 17 18 22 17 13 14 13 12 10 6 7 15
24 25 26 26 26 27 27 26 28 29 29 29 31 30 26 33 29 25 27 24 23 27 24 25 30 30 30 26 28 31 30 26 20 21 21 19 19 13 14 14 10 9 6 8 14
30 31 32 34 33 33 33 32 32 33 33 31 30 29 30 34 37 34 30 27 28 29 29 31 32 34 34 33 32 33 33 24 23 28 23 17 16 12 13 9 7 9 6 3 5
31 34 34 34 37 40 40 38 39 40 40 36 33 32 32 33 39 38 33 34 33 33 34 36 34 33 36 38 37 38 32 26 28 29 24 22 21 15 13 14 9 7 9 5 4
35 37 39 40 41 38 40 42 42 41 44 44 40 37 37 36 36 41 37 41 40 38 39 38 37 34 37 39 35 35 32 30 28 28 24 28 21 18 18 16 11 6 10 5 4
36 39 42 41 43 44 44 44 44 46 51 47 48 47 45 43 41 42 42 45 47 46 42 39 40 38 28 27 31 32 33 33 28 35 32 29 26 24 20 22 13 8 11 5 3
43 47 50 52 53 51 51 50 49 48 50 49 49 51 49 51 52 50 46 47 51 49 46 46 42 26 34 36 33 36 35 31 31 36 34 32 32 29 22 18 17 12 7 7 4
51 53 54 56 57 57 56 55 56 56 53 54 55 55 50 50 54 53 53 52 51 53 53 50 35 36 36 39 37 37 36 32 26 36 36 35 35 30 25 28 24 17 16 12 5
54 57 58 53 54 52 51 48 42 37 49 48 46 46 47 49 56 52 57 57 57 55 56 57 46 45 41 40 40 39 29 32 33 39 40 38 38 32 26 26 19 15 11 15 5
55 55 55 49 46 44 41 35 30 33 39 36 33 32 36 42 45 46 50 58 61 60 63 61 54 55 49 37 38 28 32 36 37 41 42 43 43 39 32 32 23 18 15 16 12
56 51 48 45 42 39 34 26 31 34 37 38 32 33 32 32 35 31 43 54 65 69 66 65 60 60 48 42 40 34 38 39 43 47 56 47 51 46 37 23 24 21 20 14 15
52 48 45 40 38 30 26 30 30 31 34 37 36 35 36 36 41 37 35 49 62 70 69 69 65 65 59 53 48 45 49 47 51 59 59 45 57 43 36 27 26 24 17 10 12
51 47 39 36 25 28 32 32 32 35 35 34 36 39 39 41 47 45 43 53 56 71 73 75 71 70 64 62 53 53 53 57 56 56 51 46 59 44 30 28 30 30 26 14 13
48 38 36 29 30 33 35 34 34 35 34 34 36 38 40 41 46 54 54 60 61 65 78 78 74 72 65 63 56 54 59 51 51 51 47 51 55 40 35 36 32 30 30 32 21
41 34 32 30 34 38 41 36 37 34 32 35 39 41 42 43 49 51 54 62 64 65 76 82 78 75 68 58 55 53 51 53 55 54 52 54 54 41 38 33 30 29 26 34 29
38 34 31 33 39 43 40 36 35 32 31 34 37 38 42 42 37 32 37 53 64 67 72 79 82 73 66 69 62 60 58 54 48 52 51 50 44 33 35 35 31 22 19 24 32
34 31 29 36 41 39 35 34 32 31 32 33 34 37 37 36 33 27 26 37 58 61 55 74 85 73 68 66 63 59 60 54 54 53 51 47 37 32 33 37 36 30 24 22 23
25 27 34 37 35 33 33 32 33 32 33 32 32 33 35 34 33 32 32 31 50 64 42 60 82 71 61 63 69 64 61 56 52 49 49 44 21 35 39 41 44 41 32 30 27
28 33 35 35 32 33 30 31 32 32 30 31 30 31 32 30 30 32 31 31 41 62 44 52 74 76 70 68 72 65 58 57 52 51 48 43 27 32 36 40 44 48 44 43 39
33 33 34 31 33 35 35 33 31 28 29 30 29 28 29 27 27 30 26 25 46 70 38 52 65 77 73 67 67 67 61 59 59 50 47 36 36 37 32 32 38 44 48 32 43
31 32 28 32 38 36 36 34 31 28 27 28 26 30 28 28 24 12 16 23 28 70 26 56 52 74 70 70 62 62 61 59 57 53 44 38 43 42 35 38 38 38 29 23 41
28 29 28 31 33 35 33 33 30 28 25 25 25 27 28 26 21 20 15 17 42 53 26 53 66 69 71 69 62 59 67 61 57 54 46 42 47 42 37 38 36 36 28 18 24

GFSSW_500_spd_042.txt.gz
Wind_Speed
15 15 15 15 14 14 14 14 14 14 13 10 10 11 11 13 14 10 9 14 13 13 15 8 8 11 12 9 9 11 10 14 15 17 12 13 17 15 10 11 10 9 8 10 9
19 19 19 19 19 18 17 17 17 17 16 14 12 11 12 13 16 14 14 11 16 17 17 18 13 11 12 8 9 15 13 14 12 9 22 22 17 19 15 9 8 8 11 14 11
20 20 20 21 21 22 22 22 22 21 21 18 16 14 13 15 17 17 15 15 16 18 19 15 10 10 9 10 12 17 13 14 16 9 17 28 11 12 16 12 10 11 14 14 17
19 20 20 20 20 21 22 23 23 23 25 24 21 18 18 19 20 14 17 18 18 17 19 20 17 16 17 11 16 17 15 9 9 11 14 6 14 15 13 12 11 10 12 12 18
17 18 18 18 19 19 20 21 22 23 24 25 26 24 23 24 22 21 19 18 23 19 20 22 23 21 20 18 18 19 18 17 9 12 10 12 18 14 12 10 11 12 12 11 15
18 19 20 21 22 22 21 21 22 23 23 23 25 25 28 30 29 24 24 22 22 24 21 23 27 29 28 22 20 24 19 20 16 13 11 15 19 16 15 11 12 13 12 12 20
21 22 22 24 26 28 29 29 29 27 25 24 24 26 27 30 33 29 28 27 26 26 28 27 30 31 31 27 29 29 26 20 21 17 21 18 20 12 13 14 13 10 11 11 19
27 28 28 29 30 31 33 32 34 35 34 32 28 28 29 29 33 34 32 31 30 30 30 32 30 32 34 31 32 32 32 21 26 20 19 20 19 16 16 13 11 11 10 9 12
27 29 27 26 24 27 29 32 34 35 36 37 37 34 34 33 34 35 35 35 36 35 35 34 35 32 35 35 37 39 35 24 27 24 19 22 18 18 17 13 13 14 13 11 9
28 28 30 29 30 30 33 33 33 35 36 38 40 42 41 39 40 38 35 36 39 42 41 37 34 35 34 36 40 38 32 28 30 26 24 22 24 23 21 19 17 15 13 12 9
35 36 37 37 37 37 38 40 42 43 37 37 41 44 46 46 46 44 42 40 41 45 45 43 39 31 25 29 29 33 35 33 31 30 27 24 24 27 24 19 17 16 14 12 9
41 43 44 42 43 45 48 48 51 48 47 43 43 43 47 49 52 52 49 47 46 45 48 51 43 27 35 37 33 34 36 36 34 35 32 29 26 30 19 22 23 22 20 14 13
45 46 47 47 49 49 50 55 56 56 51 53 54 54 46 48 49 53 56 53 52 51 49 52 43 41 40 39 40 38 35 35 34 39 37 35 35 32 22 28 31 28 26 18 15
46 47 47 47 48 50 54 57 56 57 54 53 54 49 45 49 53 51 54 56 56 57 55 54 47 52 48 43 42 42 34 33 38 43 45 43 40 41 33 32 34 30 21 24 19
48 49 49 48 46 48 47 48 45 48 50 49 42 37 32 34 41 44 47 52 55 57 61 59 50 56 55 43 42 35 37 38 39 45 47 49 46 39 37 38 35 29 25 27 19
48 47 45 46 47 43 38 36 34 34 34 34 31 31 29 30 33 34 35 41 49 54 61 62 57 58 60 52 48 36 44 44 46 48 59 51 55 43 33 29 29 29 27 25 22
47 43 43 42 39 32 30 26 28 28 32 32 33 33 33 35 38 37 38 37 39 46 55 65 64 61 60 59 56 47 51 51 52 59 60 51 56 45 32 31 32 27 25 22 22
43 40 40 38 31 29 26 27 31 32 35 34 34 37 38 39 40 41 42 43 42 44 42 60 66 64 66 64 59 56 55 58 60 59 56 53 63 50 35 34 34 31 26 26 26
37 39 38 32 31 29 26 30 34 38 38 36 38 40 41 41 42 43 47 50 48 50 52 51 66 67 68 65 63 63 63 55 55 55 54 58 59 50 37 37 40 36 36 33 32
36 37 33 30 30 26 29 35 40 39 36 34 37 39 41 44 45 45 49 53 54 55 58 61 64 59 70 68 67 65 64 58 60 60 59 60 56 49 37 37 42 38 39 33 31
38 32 28 23 23 28 35 39 37 35 35 37 38 39 41 43 42 44 47 53 56 62 66 64 70 64 73 75 66 67 67 66 59 59 60 60 54 40 40 36 34 40 38 37 36
29 23 25 28 32 35 35 34 35 34 34 36 38 38 41 41 40 42 45 49 51 54 59 66 71 77 67 70 65 68 68 68 67 64 61 60 52 38 37 37 36 39 38 37 37
19 24 31 33 33 31 29 33 35 37 34 36 35 35 37 36 35 35 38 42 42 42 44 51 63 73 65 65 69 69 71 68 65 61 61 56 49 42 36 37 40 39 38 38 39
26 28 30 31 30 28 27 32 36 36 35 34 32 33 34 34 32 32 35 38 36 35 34 42 59 67 69 64 71 70 71 68 69 64 59 57 41 37 36 42 41 42 42 41 38
27 27 32 34 34 33 33 35 35 35 33 30 30 30 32 31 32 34 36 34 32 27 31 36 53 54 63 69 69 69 70 72 71 66 59 51 33 35 35 38 42 44 45 45 44
28 30 30 30 32 33 33 34 35 34 32 27 26 25 29 33 29 30 34 27 21 24 29 26 53 45 55 65 64 64 69 71 71 65 60 45 39 41 38 37 42 50 53 51 52
25 27 28 28 29 28 30 31 31 31 29 25 22 23 29 30 28 26 27 24 24 24 23 35 57 30 47 62 64 67 68 69 68 64 56 43 44 42 41 40 41 45 48 49 35

GFSSW_500_spd_045.txt.gz
Wind_Speed
14 15 15 15 15 15 14 14 13 12 12 10 10 9 9 10 12 9 10 14 15 15 15 8 7 12 15 10 9 10 12 10 10 6 9 12 14 8 9 9 12 12 11 10 12
19 19 19 19 19 19 19 19 19 18 15 13 12 13 11 13 11 11 14 11 15 16 15 14 13 13 14 10 10 12 13 14 11 9 17 16 15 12 8 9 8 10 9 14 13
18 19 19 19 18 18 18 19 20 21 21 19 17 16 16 16 15 12 13 15 16 16 17 15 11 10 12 11 12 13 15 15 14 15 12 20 15 19 16 14 12 10 11 15 16
15 16 17 17 18 18 17 18 18 20 20 20 20 21 20 19 20 16 15 16 19 15 18 19 18 17 16 12 16 15 17 13 13 15 14 13 20 16 18 19 14 12 13 15 18
14 13 14 16 16 16 16 16 17 17 18 18 18 21 24 24 22 22 18 17 17 19 18 22 24 22 23 20 19 18 19 17 6 12 12 9 23 22 18 17 16 14 13 15 15
16 16 17 18 18 18 18 19 18 18 18 18 17 17 20 25 25 25 24 21 22 19 21 22 26 29 26 25 23 23 20 19 15 12 10 9 15 17 15 15 15 13 13 16 19
21 20 20 21 23 23 23 23 23 22 22 22 23 21 21 22 23 25 28 27 26 25 22 24 26 30 29 27 28 27 22 21 18 14 14 8 17 17 13 12 14 12 11 15 19
25 25 23 24 24 25 25 25 25 24 25 26 25 25 26 24 25 25 24 29 31 29 27 27 28 28 30 30 31 30 25 23 25 19 14 13 15 13 14 11 12 13 14 17 20
30 31 28 26 26 28 28 29 30 27 24 25 27 28 28 28 27 29 29 28 31 35 33 31 27 29 28 31 35 37 26 23 27 23 17 16 17 14 12 13 13 12 15 16 19
33 33 34 33 33 33 32 32 30 31 31 29 27 29 31 32 31 32 33 33 33 35 39 38 31 28 28 28 34 34 27 25 25 26 22 22 20 19 19 18 16 16 16 18 22
35 36 37 38 39 38 37 39 38 35 34 36 33 30 32 34 33 35 36 38 39 38 37 41 38 26 24 29 29 32 33 32 31 29 29 26 27 23 22 23 18 18 17 17 18
36 36 37 38 38 37 38 41 43 44 41 36 39 40 38 39 37 35 37 42 45 43 42 41 40 33 34 34 34 32 34 34 34 34 32 30 31 26 25 26 26 23 21 18 15
39 40 40 41 40 42 42 43 43 43 43 44 44 45 47 44 45 44 40 44 48 50 48 46 38 40 41 39 38 37 34 35 39 40 38 36 39 35 31 32 28 26 25 23 19
40 42 43 42 40 40 40 40 41 41 42 43 44 42 45 47 48 47 45 46 48 50 54 53 47 45 46 46 42 41 36 36 40 43 43 43 41 41 35 35 32 28 23 21 19
44 44 42 41 43 43 42 39 39 40 39 38 40 37 35 41 43 43 48 50 51 52 54 57 51 51 50 46 47 39 41 41 43 48 47 49 48 43 40 41 32 23 24 26 24
45 42 41 41 40 39 39 36 31 33 33 32 34 32 30 28 30 34 38 45 47 51 53 57 57 57 58 50 52 46 49 48 48 52 62 51 53 48 48 46 32 26 28 30 29
43 40 38 36 34 32 29 27 29 29 27 28 26 25 28 31 31 29 31 32 35 35 43 52 57 61 62 59 56 53 55 53 54 59 60 51 58 46 48 43 39 33 29 31 31
39 35 31 30 31 28 26 25 25 25 25 25 27 30 34 36 36 36 36 38 39 40 38 39 48 59 64 64 60 56 59 60 59 59 57 55 64 47 45 40 41 38 35 37 34
33 32 30 29 28 25 24 25 24 25 28 31 35 39 39 40 41 41 41 42 44 44 45 43 41 42 57 65 66 59 63 58 60 59 60 63 62 53 43 47 44 44 43 36 35
35 34 30 26 22 18 19 22 26 30 34 36 37 38 38 38 40 42 44 46 47 47 49 50 46 44 44 47 63 61 58 66 65 63 65 67 64 58 45 43 46 49 44 39 36
19 16 15 16 19 25 29 31 32 33 32 34 35 36 39 40 41 42 45 46 49 51 51 54 54 49 48 46 44 61 64 67 66 66 65 69 66 55 46 39 49 49 44 41 35
23 23 22 24 25 26 28 30 30 30 32 34 36 38 39 40 41 43 45 46 48 50 52 54 58 59 54 49 49 51 69 69 69 70 68 67 67 52 45 42 49 50 46 44 38
24 25 23 24 25 26 29 30 31 33 34 37 39 39 39 40 41 41 42 41 41 44 47 51 57 61 62 55 54 56 58 70 71 68 73 69 67 50 43 40 45 49 48 49 43
21 24 25 25 23 23 25 27 30 32 34 36 38 36 35 35 36 35 36 34 33 38 39 44 49 58 61 61 63 66 62 65 73 73 75 75 61 50 45 39 41 51 55 53 50
22 27 25 25 26 27 28 30 32 34 35 34 30 27 28 29 30 29 30 31 33 38 41 43 49 60 64 67 67 70 71 66 78 77 75 69 67 47 44 46 38 47 54 59 53
24 24 25 26 28 28 30 25 25 36 34 27 22 20 21 24 25 26 28 34 37 38 41 43 46 51 58 60 62 69 74 72 81 78 75 68 65 49 44 47 49 50 56 62 60
21 24 26 27 30 34 38 37 31 35 26 25 22 20 20 24 23 28 33 36 37 36 36 32 33 36 39 38 54 72 75 73 80 78 73 68 58 48 42 47 50 48 55 59 59

GFSSW_500_spd_048.txt.gz
Wind_Speed
16 16 16 16 16 16 15 15 14 12 12 9 10 9 8 8 9 10 10 13 16 15 13 9 9 15 18 12 10 9 11 10 8 8 9 8 12 9 13 12 11 13 14 13 15
18 18 18 18 18 19 19 19 19 18 16 17 13 12 12 11 9 8 11 13 13 16 15 14 12 14 17 15 12 11 13 15 14 12 11 8 11 10 6 10 12 13 11 14 16
18 19 18 18 18 19 19 20 19 19 19 19 20 18 16 15 13 9 9 14 14 13 17 18 16 12 14 17 15 14 13 15 15 14 9 15 15 11 11 10 9 8 10 14 16
15 16 16 16 14 15 16 17 18 18 18 18 19 21 20 20 18 14 11 13 14 14 15 20 20 18 16 16 18 17 17 17 16 16 19 17 13 14 15 14 12 11 12 14 17
14 14 15 14 14 15 16 15 16 16 15 16 17 18 20 20 22 19 17 15 14 13 17 18 22 22 21 21 20 18 18 19 17 10 13 14 19 20 16 14 14 13 13 14 16
16 16 17 17 17 17 17 17 17 17 17 17 17 17 18 19 19 20 22 21 19 17 16 19 21 25 24 24 21 21 19 19 14 8 13 10 14 21 18 14 17 15 15 16 17
22 20 21 21 22 21 20 20 20 19 19 20 20 20 21 19 20 18 20 23 24 22 20 19 21 22 26 26 25 21 20 18 18 13 13 9 12 17 14 15 16 17 15 16 18
28 27 27 27 26 26 25 24 23 24 24 23 22 22 21 23 24 22 20 20 22 26 25 24 21 22 23 25 28 26 21 19 20 17 16 13 15 14 13 14 16 17 17 18 23
31 33 32 31 30 30 30 28 26 27 27 26 25 23 22 22 23 26 25 23 23 23 26 27 26 22 23 23 29 30 24 21 21 21 20 15 15 13 14 14 16 17 18 20 21
35 36 34 33 32 34 34 34 32 32 32 32 30 29 29 25 25 26 27 28 27 26 27 27 28 26 24 25 24 29 27 24 23 26 22 21 18 18 17 17 18 17 18 19 23
35 37 36 37 37 36 36 35 37 37 40 38 36 33 32 34 26 28 30 30 31 31 29 30 28 26 28 26 29 27 31 30 29 30 30 25 23 22 19 18 17 18 19 20 25
37 37 38 37 37 38 38 37 38 38 38 39 42 43 40 35 38 34 30 32 32 34 35 33 30 29 34 34 31 32 31 33 36 36 34 30 28 27 24 22 22 18 18 19 18
35 36 38 38 38 38 38 40 38 39 40 40 40 41 40 42 40 37 37 35 37 38 37 37 36 37 33 36 37 35 35 36 40 41 37 37 37 33 30 30 24 23 23 19 20
38 38 40 40 40 39 38 37 38 39 41 40 38 39 40 40 43 45 41 40 40 41 42 42 41 41 40 41 41 40 36 38 41 42 40 41 39 38 36 32 29 28 25 22 20
38 36 37 38 38 36 36 36 37 39 36 39 37 37 37 38 39 41 41 42 41 43 45 46 44 45 45 46 44 43 42 40 44 48 47 50 47 40 40 38 35 32 27 23 23
41 38 39 39 37 36 33 31 30 32 36 32 30 28 32 35 35 37 38 41 42 41 45 48 47 50 51 53 51 48 47 45 46 50 57 51 52 49 40 42 40 36 32 27 26
38 36 33 34 33 30 28 27 28 28 28 28 28 29 28 27 28 29 32 36 39 38 42 46 49 53 56 58 58 55 53 51 52 56 55 50 56 55 49 40 42 41 32 30 32
33 32 31 29 27 26 26 26 25 27 26 25 25 25 26 24 26 27 29 32 33 33 37 38 43 53 59 60 62 61 59 59 57 55 54 54 61 56 53 51 46 47 39 36 35
23 22 23 27 27 25 23 22 23 22 23 25 26 29 31 31 34 34 37 39 38 39 41 40 40 46 57 59 62 62 66 57 57 46 53 43 57 58 53 52 50 50 45 39 36
23 22 20 15 11 12 13 16 20 21 23 26 30 35 38 42 38 39 41 43 45 46 46 47 45 44 44 48 57 60 58 61 64 59 64 50 54 48 58 48 55 56 52 44 40
23 20 19 18 17 17 19 20 22 25 27 30 33 38 39 42 41 42 43 45 45 48 51 51 51 49 46 46 43 45 62 59 51 64 64 61 55 53 57 49 49 53 51 48 45
22 20 18 15 15 16 18 19 20 23 25 30 32 36 40 43 44 45 45 45 47 49 50 53 55 54 53 51 48 51 54 64 58 61 70 52 35 40 57 53 44 51 50 49 49
18 20 17 15 14 15 17 19 21 23 26 29 33 38 40 43 46 47 47 47 47 49 52 52 54 53 53 54 52 55 48 49 59 70 64 63 62 47 63 52 46 50 52 50 52
17 16 19 18 18 19 22 27 31 33 34 37 38 39 37 37 38 40 39 42 44 47 50 55 55 56 58 51 48 58 57 58 56 66 71 74 49 48 55 47 45 47 53 55 58
17 17 18 20 24 26 30 33 37 37 39 39 30 24 23 25 29 31 32 33 37 41 44 48 55 57 61 64 60 57 61 62 62 66 80 74 53 62 59 49 45 45 54 59 59
21 21 24 27 28 30 36 38 36 31 27 22 17 16 17 18 22 22 26 27 29 32 33 37 45 48 56 58 63 65 64 66 67 63 73 81 74 69 61 52 45 46 56 63 62
23 24 26 26 30 35 37 31 21 26 28 20 23 21 18 16 19 21 24 25 26 28 29 32 34 40 49 50 57 69 69 67 69 68 67 81 73 61 64 56 52 53 53 61 65

GFSSW_500_spd_051.txt.gz
Wind_Speed
18 18 18 19 18 17 17 17 15 14 13 11 11 10 9 8 8 12 11 15 16 14 11 11 12 16 20 15 12 10 10 7 6 8 9 12 11 11 11 7 5 12 11 11 11
21 21 21 21 21 20 19 19 19 19 19 18 16 14 12 10 8 9 12 14 15 17 17 15 10 14 20 19 15 12 12 10 9 13 11 10 10 11 2 5 8 9 8 11 13
21 21 21 21 21 21 20 20 20 20 20 20 20 18 18 16 11 10 11 12 15 14 18 19 19 12 12 18 18 15 15 17 15 15 11 12 9 8 4 7 7 6 9 11 15
18 18 18 17 18 18 18 17 17 17 19 19 20 20 19 20 17 15 13 13 11 15 16 20 20 20 15 15 19 18 16 16 17 17 14 10 21 17 13 19 10 11 12 11 14
17 17 18 18 18 18 17 17 16 16 17 17 17 18 18 18 18 20 18 16 14 13 18 18 20 22 21 19 20 18 17 16 15 16 16 15 17 15 12 10 10 9 10 11 13
20 19 19 20 20 20 19 19 19 19 19 19 19 19 18 17 17 19 20 21 19 17 15 17 19 20 23 23 19 20 18 16 17 16 13 15 12 15 16 15 12 11 11 13 14
24 24 24 24 23 23 23 22 21 20 20 19 21 22 22 21 18 17 19 20 23 22 20 18 17 19 21 23 23 18 17 17 17 15 12 10 9 15 14 15 12 12 13 14 14
27 28 28 29 29 28 28 28 26 25 24 23 23 23 22 24 23 22 21 20 21 22 24 22 19 18 20 21 22 22 19 17 16 16 13 12 14 11 14 14 13 14 15 16 17
32 32 31 31 30 31 30 31 31 30 28 27 25 25 24 24 24 24 26 24 23 22 22 23 23 20 20 19 21 23 22 18 18 16 16 14 17 28 12 14 12 13 16 17 20
38 37 36 36 35 34 33 32 33 34 34 33 31 29 28 28 27 25 26 27 27 26 25 22 23 25 23 20 18 19 23 22 20 19 20 20 21 15 15 13 7 13 16 18 18
39 40 38 37 37 37 37 36 36 36 36 37 36 36 33 32 29 30 29 29 30 29 28 26 26 21 23 24 23 25 22 27 20 24 25 26 21 16 15 18 10 12 16 17 20
36 37 38 37 37 36 36 36 38 39 37 38 37 37 37 39 38 35 33 34 32 32 32 32 27 26 27 29 29 28 25 27 27 27 30 31 25 24 20 22 18 16 16 18 21
38 38 39 38 37 37 35 35 36 37 38 39 40 41 39 40 42 42 40 38 37 34 35 34 32 33 32 30 32 32 30 29 33 34 34 33 35 28 25 30 24 18 17 16 18
37 36 36 37 36 35 35 36 36 37 37 43 40 41 40 42 44 42 43 44 41 40 38 37 36 38 37 36 33 34 32 33 38 41 40 33 34 32 36 22 30 24 21 17 20
35 35 36 35 36 37 37 35 34 34 32 42 42 40 40 43 44 43 43 44 45 45 46 42 41 41 39 40 39 37 38 39 38 41 45 40 38 29 36 31 30 33 24 19 18
33 32 33 34 33 33 32 31 31 31 28 39 37 34 36 38 41 43 42 43 45 47 48 46 49 47 45 44 43 43 43 43 43 41 51 45 41 38 33 36 23 36 28 23 20
29 28 29 29 29 29 29 27 27 24 33 40 34 32 33 36 38 40 40 40 40 42 45 47 50 51 49 48 49 48 48 46 47 49 47 43 52 45 34 33 33 36 34 27 26
19 16 16 16 21 25 25 23 22 23 29 33 27 26 28 35 35 35 36 36 37 41 39 34 45 51 51 51 50 54 53 49 46 41 46 45 51 52 43 33 46 42 39 34 33
22 20 17 15 15 9 17 18 15 24 24 24 25 25 29 33 31 29 32 33 42 35 37 32 30 50 56 56 52 47 52 53 38 30 38 35 46 47 44 51 51 28 39 36 37
19 16 13 11 9 6 3 9 14 15 15 18 20 24 28 32 31 36 36 39 40 35 37 40 42 44 52 54 53 55 51 45 53 43 41 34 36 36 44 52 56 54 45 42 32
15 12 14 11 9 7 7 11 13 15 18 21 25 29 34 35 42 41 43 46 45 43 44 46 45 41 46 48 45 50 57 56 40 44 45 38 36 31 28 37 51 52 54 47 44
12 14 10 10 11 10 9 9 9 11 13 18 22 27 34 39 42 47 42 45 51 46 45 49 52 52 51 44 45 47 35 44 56 53 46 46 40 26 26 29 38 48 49 51 49
15 15 16 15 15 15 16 18 21 23 26 27 29 33 36 41 45 47 47 45 53 51 45 50 51 52 53 54 51 51 54 50 48 47 45 42 45 26 30 42 42 46 49 51 52
16 16 16 17 18 19 23 24 25 25 24 26 26 29 32 34 38 42 42 45 50 51 51 52 53 53 52 31 45 50 55 52 46 45 51 47 39 37 27 30 28 52 43 50 57
16 16 17 18 21 25 25 20 18 19 18 17 24 28 25 21 24 29 33 36 40 42 46 47 50 53 56 56 53 57 67 62 62 61 50 53 49 58 43 39 29 30 39 49 55
17 17 17 22 26 23 19 19 20 16 17 19 22 28 25 22 22 21 24 27 32 35 39 42 47 52 58 59 58 61 63 66 66 66 65 68 69 68 61 48 42 39 30 46 56
15 16 20 24 23 20 18 19 16 16 22 21 21 24 25 25 20 19 23 31 34 30 29 33 37 41 51 54 57 67 67 67 66 70 70 68 70 67 74 58 46 45 40 49 50

GFSSW_500_spd_054.txt.gz
Wind_Speed
20 20 20 20 19 19 19 18 17 16 14 12 11 10 9 8 10 13 13 16 15 15 12 11 15 17 18 15 11 10 10 9 4 3 7 9 10 5 9 4 2 7 10 8 8
20 21 22 22 21 20 20 20 19 19 19 18 16 15 12 10 10 10 15 15 17 17 17 14 11 15 18 20 15 12 11 8 7 8 12 8 6 8 5 3 7 7 7 8 9
19 19 20 21 21 20 20 20 20 21 20 20 18 18 18 17 12 12 12 14 16 17 19 20 17 12 9 17 19 15 13 16 10 3 6 12 13 15 13 10 8 11 7 6 8
17 18 18 19 19 18 18 18 18 20 20 19 19 18 18 18 15 18 15 14 13 17 17 21 21 19 14 11 18 17 16 15 16 16 14 13 18 15 17 18 5 8 9 6 7
20 20 20 20 21 20 19 18 18 18 18 19 17 17 17 18 15 21 19 18 15 15 19 18 21 21 20 16 15 19 17 15 15 10 15 14 18 9 4 3 1 5 7 5 7
24 23 23 23 23 22 21 21 20 21 21 20 19 18 18 17 18 17 20 21 20 17 15 18 19 21 22 22 16 16 19 16 15 17 14 15 13 18 11 13 12 9 5 7 6
29 27 27 26 26 25 24 24 24 24 23 24 23 21 21 17 18 18 18 19 22 22 19 18 18 19 21 23 20 16 14 16 14 16 14 12 10 11 15 16 12 7 7 8 5
33 31 30 29 29 29 29 29 29 27 27 26 27 25 22 21 21 21 20 20 20 22 24 22 19 18 20 22 24 21 16 14 14 14 15 12 15 9 19 16 7 10 9 8 8
37 38 38 37 35 33 31 32 32 32 31 30 29 29 29 25 23 23 23 23 23 22 23 24 23 21 20 20 22 23 20 17 13 14 17 15 18 19 13 10 11 11 9 9 10
38 39 41 42 41 40 37 35 35 34 33 34 34 32 32 29 27 25 24 24 26 27 25 22 23 26 24 20 17 20 21 20 16 13 17 19 22 15 21 11 10 4 9 9 9
38 39 40 39 38 38 39 40 38 37 35 36 35 36 35 33 31 29 28 26 27 28 29 26 26 23 23 22 21 25 20 17 19 12 20 23 26 25 17 23 10 5 6 8 9
38 39 38 37 37 35 35 37 38 39 36 36 37 37 36 37 36 34 31 30 30 27 30 32 29 24 25 27 27 27 26 25 17 16 22 28 27 31 18 27 20 11 8 8 7
33 34 37 37 37 37 34 34 35 36 38 37 35 37 37 36 38 38 37 36 34 33 32 33 31 30 30 29 31 31 27 25 23 21 21 27 37 37 26 28 36 17 13 13 9
33 32 32 33 33 35 34 32 31 31 35 39 36 39 36 38 39 40 39 40 41 38 36 35 34 38 36 34 33 33 31 29 33 31 26 32 30 33 30 24 28 26 17 16 12
30 30 27 26 28 28 31 31 30 30 23 35 40 35 37 37 44 42 41 43 41 42 42 39 39 40 40 39 37 36 33 35 34 37 36 31 34 29 33 38 32 23 23 18 13
23 22 23 24 25 26 27 26 27 25 18 33 38 34 33 34 41 43 39 42 44 46 46 47 43 43 44 42 42 40 38 38 41 40 44 41 40 34 30 36 35 25 26 24 16
20 17 12 10 13 20 23 20 19 17 19 32 35 36 31 34 33 34 38 40 43 44 46 46 46 50 50 47 43 43 44 42 43 45 43 35 42 40 27 33 34 32 32 23 17
21 17 13 12 9 10 15 15 12 9 10 30 36 28 24 29 34 35 33 33 35 39 45 45 47 47 50 48 50 48 48 45 47 44 39 36 42 38 35 29 26 32 29 31 24
17 15 10 7 6 6 1 7 4 16 29 31 23 18 19 25 28 33 29 32 26 35 42 40 36 25 40 48 49 45 41 43 42 30 37 27 31 38 35 37 28 32 37 37 38
15 12 8 5 3 1 4 13 15 22 15 15 14 17 16 7 26 28 31 30 31 44 40 39 47 37 33 40 50 51 47 34 42 43 40 29 29 26 27 37 45 48 46 48 38
12 10 10 8 6 4 4 7 6 4 12 15 19 21 24 24 26 20 22 31 39 44 34 33 41 42 22 43 52 49 53 52 48 41 50 37 33 25 21 28 29 41 52 53 45
16 15 15 14 11 10 6 3 4 6 7 13 14 19 24 29 32 37 37 30 43 43 43 41 42 42 45 35 40 46 48 48 50 48 53 42 42 26 20 24 33 33 39 49 49
14 13 12 11 11 10 9 8 11 12 13 12 11 13 17 25 33 38 42 41 46 46 51 48 47 49 44 48 38 41 44 44 33 48 51 49 41 32 17 30 20 26 26 34 43
11 12 12 13 13 11 11 10 10 10 10 8 8 11 14 22 26 28 30 40 50 55 52 51 43 47 50 37 43 41 44 45 45 40 42 55 33 44 28 34 36 37 33 36 36
11 10 12 14 13 12 12 11 10 10 11 10 12 16 17 21 24 30 30 30 32 40 51 53 50 51 54 54 48 53 56 54 50 56 49 47 44 53 40 47 46 46 46 40 36
6 10 13 12 12 12 10 11 9 9 12 14 15 18 20 21 21 25 32 25 27 30 37 40 44 47 57 57 56 61 55 57 58 58 56 58 62 62 44 49 50 52 52 52 53
7 9 12 12 13 12 13 13 13 11 11 12 15 19 19 23 22 20 22 25 19 26 28 33 31 31 46 51 56 62 62 60 59 61 64 67 67 70 62 59 49 47 47 52 55

GFSSW_500_spd_057.txt.gz
Wind_Speed
17 17 18 18 18 18 18 18 17 17 16 13 13 11 10 9 11 14 15 15 16 14 13 14 20 19 18 14 13 13 15 10 7 1 5 6 8 2 5 2 15 11 13 9 5
17 18 18 18 18 18 18 18 19 19 17 17 16 16 13 11 10 11 16 16 17 18 17 15 13 20 22 20 17 14 13 12 10 1 7 7 6 3 3 4 6 9 9 6 2
17 18 18 18 18 17 18 19 19 20 20 19 18 17 18 15 12 17 13 17 17 20 19 18 15 10 13 20 21 17 14 14 11 1 6 12 18 6 2 1 11 11 9 5 1
20 20 19 19 18 18 17 18 19 19 20 19 19 19 18 18 17 18 14 14 16 19 20 22 21 17 13 12 21 20 17 16 13 18 9 9 22 5 8 10 7 9 9 4 2
26 25 25 24 22 21 20 19 19 19 19 19 19 18 18 18 16 21 20 18 15 18 21 20 23 22 19 16 15 21 19 17 13 11 10 10 15 16 7 6 5 5 6 5 2
29 29 30 29 28 26 25 23 21 21 21 21 20 19 18 17 16 20 20 21 20 18 17 20 20 22 23 21 15 17 23 19 15 14 15 14 13 9 9 7 7 2 3 5 4
36 34 32 32 32 31 30 28 26 25 24 23 23 22 21 17 22 20 18 20 22 22 19 19 21 22 23 24 21 16 15 21 15 14 13 13 13 11 8 9 11 7 3 6 5
38 39 37 36 34 33 33 33 31 30 28 27 26 24 24 23 22 21 20 20 21 22 24 23 21 21 23 25 24 21 15 10 13 13 11 11 15 6 6 4 12 7 7 8 7
39 41 39 38 37 37 37 36 35 34 34 33 30 29 27 27 24 24 24 23 23 23 24 25 24 22 22 22 23 21 16 12 12 13 15 13 15 9 14 13 13 9 6 7 9
39 44 43 42 41 40 40 40 41 39 37 36 34 34 33 30 28 27 25 25 27 27 25 24 25 25 24 21 17 20 22 20 15 15 16 14 19 17 18 15 17 11 9 11 10
36 37 40 43 39 38 38 36 38 40 39 40 37 36 35 32 31 30 27 27 27 30 29 26 25 23 23 23 21 23 28 30 22 4 10 14 16 12 16 15 21 16 13 11 9
37 35 36 36 40 39 37 36 34 35 35 38 39 38 37 34 36 35 32 30 29 28 28 30 26 23 25 28 27 27 26 26 27 15 9 19 24 21 21 17 29 30 16 10 6
35 34 32 34 33 36 38 37 36 33 33 34 35 37 39 36 35 38 36 35 32 32 30 29 28 29 29 28 31 31 28 23 27 24 26 25 32 24 21 25 19 25 14 15 8
32 30 31 30 30 31 34 35 34 31 31 33 32 35 37 35 37 41 33 37 37 35 33 32 31 33 34 33 31 33 31 27 26 34 32 26 22 29 29 26 26 27 24 15 13
27 24 21 25 26 25 27 30 30 28 27 31 31 31 32 34 39 40 38 38 37 36 38 35 34 36 36 36 35 32 35 34 31 35 37 34 30 33 31 30 21 29 38 19 18
22 19 17 15 15 20 22 23 23 20 18 25 25 25 24 29 33 37 36 36 38 39 41 40 40 40 39 38 40 39 36 38 40 40 42 36 40 32 28 25 21 20 16 15 16
24 18 15 13 13 8 13 14 10 6 5 18 25 26 25 27 29 28 32 35 37 38 40 40 38 41 43 43 42 42 43 42 43 43 40 34 40 33 32 21 22 14 13 16 24
24 18 15 12 9 7 5 12 20 12 18 20 24 27 14 20 26 28 28 29 30 34 40 44 41 39 42 46 45 45 43 46 44 40 38 36 42 30 26 30 23 19 10 20 24
19 14 11 7 4 2 14 23 18 18 20 28 14 11 12 16 18 23 23 22 24 35 37 39 44 42 43 43 42 41 48 41 46 44 44 39 35 29 20 24 29 27 25 22 22
15 12 7 1 2 6 18 17 14 25 23 24 21 16 15 14 15 19 24 23 25 35 36 39 38 39 38 38 47 45 39 44 45 48 50 47 39 25 0 9 20 24 28 27 34
19 13 14 11 7 7 7 4 5 8 12 21 22 21 20 19 21 21 15 22 33 39 40 40 40 35 39 41 35 42 51 50 49 51 49 47 43 33 17 7 18 16 21 22 25
11 11 10 9 7 3 1 2 4 1 11 12 17 17 20 24 27 28 29 32 28 29 37 40 41 41 45 46 49 48 46 51 54 51 54 51 44 29 23 10 16 18 25 23 25
10 9 7 7 8 7 8 4 9 9 6 11 17 16 11 9 11 20 27 32 37 37 36 34 35 39 43 41 37 48 48 49 54 57 57 54 50 41 31 15 9 27 32 27 23
10 6 5 10 10 8 5 5 3 2 2 2 6 6 4 7 8 10 13 15 19 33 39 45 40 41 42 53 49 48 48 44 52 58 60 56 53 46 41 31 22 29 40 36 36
6 7 10 11 10 9 9 8 8 8 7 7 5 7 6 8 14 17 17 16 16 24 33 40 51 50 48 51 55 58 54 51 51 59 64 62 58 52 52 45 36 37 39 41 37
8 8 8 8 9 12 11 12 11 11 11 7 9 9 9 10 16 19 21 20 23 26 32 34 41 46 56 54 56 59 62 61 60 55 63 65 67 59 62 58 48 45 43 40 39
10 13 14 11 12 13 13 14 15 16 15 16 17 19 19 17 16 15 17 24 27 27 27 25 28 28 40 47 56 63 59 61 62 60 60 63 64 68 71 72 60 52 50 47 38

GFSSW_500_spd_060.txt.gz
Wind_Speed
17 18 18 18 18 18 18 18 17 16 16 14 14 11 11 11 14 16 18 17 14 17 22 20 19 19 18 17 15 13 15 10 9 1 5 8 9 6 3 8 8 15 10 7 4
17 17 18 19 20 21 20 20 20 19 18 17 17 16 13 12 13 16 19 20 19 17 16 20 23 23 23 20 15 11 14 13 12 6 2 4 7 1 4 5 5 8 10 8 5
19 19 20 19 20 21 21 22 22 21 21 19 19 18 18 16 17 15 15 19 21 21 22 19 15 15 23 22 18 15 18 16 16 5 4 12 12 8 3 5 7 9 9 8 5
24 24 24 23 23 21 21 22 22 22 22 21 21 21 20 19 22 19 16 17 20 22 24 23 20 16 12 12 19 21 20 19 18 15 3 7 18 12 7 7 11 11 6 4 5
28 29 30 29 27 26 25 23 23 23 23 22 22 22 22 22 22 23 22 20 18 21 23 24 23 22 17 18 13 20 25 25 21 19 11 7 9 5 5 9 11 13 9 6 6
31 32 33 34 34 33 31 29 27 25 24 23 23 21 21 21 22 25 25 24 21 20 19 22 25 28 26 24 17 20 25 26 28 19 11 5 6 3 3 8 4 7 7 8 6
34 33 34 37 37 37 36 34 33 30 27 26 24 23 22 23 23 25 23 25 25 23 21 23 24 23 27 25 25 24 17 19 27 15 9 6 7 3 1 6 10 9 7 10 6
35 36 39 40 41 40 38 39 36 35 33 30 27 25 24 25 25 25 24 24 25 25 26 26 25 27 24 26 28 22 12 8 17 13 8 10 4 3 3 8 12 10 9 11 8
33 33 33 37 43 44 42 41 40 38 35 34 32 29 27 25 25 27 27 25 25 26 29 30 26 24 24 25 21 22 16 12 9 9 8 13 9 4 8 8 15 14 10 12 9
34 33 34 35 33 40 44 43 42 42 40 36 35 35 33 29 28 27 26 27 27 28 28 28 27 26 23 20 17 20 23 24 20 8 10 15 12 8 14 10 6 13 9 9 11
34 36 37 38 37 36 39 41 41 40 41 43 39 38 36 34 33 30 30 28 28 30 28 28 26 24 23 22 22 25 27 24 23 18 14 15 13 12 9 3 7 15 12 10 12
35 32 31 32 35 35 36 35 39 37 35 37 41 41 38 35 36 36 34 32 31 29 30 31 26 23 26 28 28 27 26 20 25 23 23 19 14 13 11 12 7 16 10 15 13
36 31 29 29 32 34 34 34 37 37 31 33 35 39 40 40 38 36 37 36 33 32 31 30 26 31 29 30 32 30 26 23 28 29 27 24 21 20 18 15 10 14 16 19 15
33 28 26 25 26 26 29 32 30 33 32 32 32 35 38 36 37 37 37 36 36 34 34 33 30 33 33 31 31 33 28 27 31 31 28 26 20 20 16 17 15 11 16 23 16
26 24 23 21 18 16 20 23 24 26 28 28 30 32 33 34 37 39 37 37 38 38 39 37 35 33 33 33 33 29 31 29 31 36 35 28 30 26 26 23 12 10 12 27 19
24 24 23 19 16 14 11 13 13 16 21 20 20 24 28 31 34 35 34 37 38 37 39 38 36 37 36 36 36 35 35 34 34 38 38 34 34 32 28 17 14 12 11 6 23
23 22 17 14 13 10 1 9 18 20 19 13 20 24 24 24 29 29 32 36 37 39 40 39 39 37 37 37 37 38 39 38 39 41 38 37 38 31 25 22 13 9 8 10 19
20 18 13 9 7 5 15 25 27 24 19 18 12 15 18 22 25 25 26 25 34 38 41 42 39 42 41 41 38 41 41 40 39 37 42 38 41 29 25 24 14 10 13 10 19
17 15 12 5 1 4 17 29 26 26 20 14 16 11 16 20 17 21 25 30 31 32 37 42 41 41 43 44 44 41 40 40 40 42 44 38 39 35 36 31 29 25 20 17 14
16 18 14 4 4 5 14 23 24 22 23 19 12 8 8 14 21 23 29 29 33 34 36 38 37 40 40 43 43 41 39 42 42 43 47 39 32 31 31 29 21 23 18 15 18
13 13 11 9 6 4 0 5 14 16 17 19 19 20 19 16 18 23 22 22 27 31 32 34 35 36 38 44 45 47 49 46 45 45 44 41 32 32 32 28 29 30 25 17 8
14 12 10 10 11 10 8 6 7 7 15 22 22 26 24 24 22 21 20 15 15 15 15 20 30 30 37 38 41 48 52 55 55 48 48 43 37 42 36 32 31 34 35 30 25
8 9 8 10 10 9 7 4 10 7 12 15 14 13 16 21 28 26 22 20 19 20 22 23 28 29 39 41 42 46 49 53 58 57 51 49 41 45 43 40 35 35 34 29 28
8 5 7 8 10 8 7 3 3 2 1 2 4 6 10 10 10 13 15 14 15 17 19 23 28 31 40 48 47 51 51 52 54 59 60 54 42 47 49 45 42 32 37 36 36
8 8 7 12 11 11 11 9 7 5 4 2 9 11 12 12 11 8 11 16 18 20 21 23 26 31 37 48 56 51 56 56 56 58 61 61 52 50 52 51 46 35 43 40 40
9 9 9 10 9 9 10 9 9 9 7 10 9 11 12 15 15 14 14 20 27 27 28 26 25 26 28 40 57 65 55 56 60 59 61 61 58 58 55 58 50 41 34 43 41
11 13 13 10 11 10 10 10 13 13 14 14 13 14 20 21 21 20 21 20 21 27 29 30 33 34 35 33 44 64 67 57 55 58 60 61 60 61 63 60 61 48 32 40 45

GFSSW_500_spd_063.txt.gz
Wind_Speed
16 17 19 20 21 21 21 20 20 18 16 16 15 13 14 15 17 20 19 17 16 22 22 22 21 18 18 13 12 13 14 10 4 1 7 12 13 7 2 6 10 8 8 6 6
16 16 17 18 20 22 23 24 24 23 21 20 19 18 16 16 18 19 21 21 20 17 21 26 24 21 20 14 14 14 14 13 8 8 6 5 8 7 3 2 7 7 11 7 6
19 19 20 20 19 20 22 24 25 27 24 23 23 22 21 20 19 18 20 22 23 22 19 18 21 22 21 16 17 18 20 14 12 10 2 3 8 7 7 7 9 11 12 8 6
25 24 24 25 24 23 23 22 24 27 28 26 25 25 25 24 25 22 20 21 24 24 25 22 17 16 12 14 21 21 24 18 12 12 6 10 12 5 4 7 9 13 12 8 6
25 25 26 27 28 29 29 28 26 25 28 28 27 27 28 27 27 27 26 22 21 24 26 26 27 25 18 18 16 23 28 22 16 15 4 9 11 2 9 8 13 15 13 11 7
29 31 31 30 31 32 33 34 33 30 27 28 28 27 28 29 29 30 30 27 24 23 23 25 29 32 28 23 20 24 25 23 19 14 16 16 7 7 2 7 9 14 11 11 10
32 33 31 32 34 36 37 38 38 36 34 30 29 27 27 29 29 30 30 29 28 26 24 29 28 27 29 26 30 25 14 7 16 19 18 17 15 11 6 11 8 11 8 9 10
34 32 30 30 31 35 41 42 43 41 37 36 32 30 30 28 28 29 27 28 29 29 32 28 27 28 28 30 30 25 18 8 6 14 18 14 15 13 6 9 12 12 8 9 10
33 31 30 30 31 33 35 39 44 44 42 38 37 35 33 30 30 31 29 28 28 30 35 32 27 25 27 26 25 24 22 18 12 17 20 17 15 12 14 14 13 13 12 9 9
32 31 31 31 32 36 38 39 37 42 43 43 39 38 37 34 32 30 31 30 30 31 32 31 29 27 23 21 21 19 21 25 22 18 25 25 20 20 16 6 11 12 10 8 11
33 34 33 33 33 36 38 41 42 42 41 42 42 41 38 36 33 33 31 31 32 32 30 27 28 26 26 23 23 23 24 28 26 25 21 24 18 17 15 9 6 6 13 7 11
37 36 34 30 31 37 40 41 41 41 38 40 41 42 41 37 36 36 35 33 32 31 32 31 25 25 29 28 27 25 24 25 29 29 23 22 25 25 22 17 10 14 13 9 11
38 36 34 30 30 32 37 37 35 32 31 37 37 38 38 41 39 39 38 37 35 34 32 31 27 27 28 31 32 28 21 25 30 32 31 25 23 23 20 17 14 13 12 11 13
35 33 30 28 27 27 26 27 26 27 28 34 35 35 37 39 40 39 38 38 39 37 35 33 29 32 31 28 31 30 21 26 31 33 32 29 27 24 24 22 16 15 12 14 17
32 28 25 24 24 21 19 17 20 23 24 28 32 34 34 35 36 38 37 38 39 41 38 35 33 32 32 28 29 25 31 33 38 35 33 32 30 26 25 19 17 10 7 14 25
28 22 22 20 17 15 13 10 16 18 18 19 24 29 29 32 34 36 37 37 39 40 41 39 35 33 31 32 32 32 33 37 40 40 38 33 30 28 22 13 13 12 9 11 22
23 20 18 15 11 9 9 9 17 22 22 22 22 23 27 30 29 31 33 36 39 39 40 40 38 35 35 33 33 35 35 34 38 41 40 33 31 24 21 19 16 9 13 17 34
21 19 16 11 8 6 8 13 23 25 27 25 25 25 26 29 28 30 34 37 38 39 39 40 39 39 38 36 34 35 36 36 36 38 41 37 35 28 25 23 22 19 17 14 32
17 18 18 11 9 8 9 20 23 29 24 24 25 22 25 28 25 27 29 33 36 37 38 40 38 40 41 40 36 35 36 35 39 40 43 39 38 35 32 30 28 22 19 15 24
16 17 16 15 12 12 12 17 21 21 20 21 21 18 17 19 21 23 27 30 31 33 36 37 38 40 41 42 41 39 39 40 39 42 42 37 42 43 41 39 33 28 21 23 28
12 14 13 13 14 13 3 18 15 16 15 16 16 14 11 9 11 19 22 24 26 28 31 32 33 35 40 42 42 43 42 44 42 42 41 38 40 43 46 44 40 34 30 29 29
10 11 13 12 11 7 4 3 20 17 16 18 18 18 17 17 16 17 18 22 17 18 24 28 27 26 35 40 42 44 44 45 46 48 46 43 42 44 39 42 41 34 31 35 32
9 10 9 10 10 8 5 5 0 3 14 16 15 14 16 18 19 17 13 15 16 18 21 23 26 32 37 38 42 44 46 46 47 48 47 47 48 46 43 39 40 38 36 35 39
7 8 9 8 9 9 6 6 4 1 2 8 12 13 14 17 17 16 13 10 9 10 13 16 21 28 41 44 42 41 44 46 48 50 49 51 54 50 49 42 42 42 41 40 40
10 8 9 9 8 9 10 9 6 3 2 3 6 8 9 12 14 13 12 13 14 17 19 20 21 20 26 46 47 45 46 47 49 51 50 54 57 55 52 49 49 44 45 43 44
13 12 10 8 8 10 10 12 12 10 8 6 8 11 15 17 18 19 18 17 16 20 24 23 25 24 23 25 43 52 49 52 54 55 53 55 57 58 56 52 49 51 51 47 51
16 15 13 11 8 8 10 10 11 12 13 13 14 14 15 19 21 23 23 22 21 24 25 27 28 28 28 25 24 34 55 58 59 61 59 59 60 62 60 58 53 51 53 51 52

GFSSW_500_spd_066.txt.gz
Wind_Speed
14 14 16 17 18 19 20 20 20 19 18 17 16 15 14 15 18 21 18 16 17 20 21 18 16 16 14 13 13 12 10 6 2 2 8 10 11 7 7 5 9 7 11 11 12
19 18 17 16 17 18 19 20 21 21 21 21 20 19 18 17 18 19 21 21 20 16 22 22 21 19 16 14 15 14 12 8 5 2 3 1 7 5 1 7 7 11 11 10 11
23 23 23 22 21 20 19 19 20 21 22 23 24 24 23 22 21 19 20 23 24 21 17 17 22 22 17 15 17 17 13 9 9 4 1 6 8 8 5 5 6 6 8 7 10
21 22 21 21 23 25 25 23 22 22 22 23 24 26 27 27 27 24 21 22 24 24 23 16 17 22 18 17 22 22 16 12 9 7 3 10 11 11 8 5 6 9 10 7 8
25 25 25 25 25 26 26 27 27 26 24 24 25 26 29 31 29 28 27 23 22 25 26 25 22 22 22 21 21 25 22 15 12 9 5 6 8 10 9 9 11 10 9 7 6
26 27 27 28 29 28 28 28 30 30 30 28 26 27 29 32 32 31 31 29 26 23 25 28 31 28 26 26 24 27 18 17 15 14 15 12 12 7 6 9 16 16 13 10 7
28 28 28 29 28 27 28 28 31 34 35 33 32 29 29 30 33 32 30 31 30 28 27 30 31 30 29 26 26 18 9 11 19 19 15 12 16 19 9 9 9 22 14 10 6
30 29 27 27 26 27 27 29 32 35 37 38 35 34 32 31 33 35 32 31 32 33 32 29 28 29 32 29 31 21 13 10 10 17 18 14 18 16 14 11 8 16 12 9 7
32 30 29 28 27 28 27 28 30 31 34 39 39 38 37 34 34 34 34 34 32 34 35 32 27 27 28 28 32 27 22 17 14 14 17 19 24 22 18 12 15 12 12 12 8
31 30 28 26 27 27 27 28 30 33 34 34 40 41 41 39 36 35 35 33 34 32 34 32 30 28 24 24 24 25 26 24 20 16 17 24 22 24 17 7 13 11 13 12 11
32 30 29 28 28 27 26 28 32 35 37 39 37 40 41 40 38 36 35 34 34 32 32 29 30 25 23 23 25 24 24 27 25 23 18 26 25 23 20 19 11 21 17 12 12
31 31 28 26 25 26 24 28 36 38 41 41 41 40 41 41 41 38 35 33 33 34 32 29 24 27 31 28 26 25 27 26 29 29 24 22 24 24 22 19 18 17 18 15 11
30 31 26 24 23 22 25 30 34 39 39 41 40 41 42 42 42 40 39 36 34 34 33 30 27 29 29 30 29 27 25 27 30 31 29 24 23 25 22 12 12 18 19 17 10
30 28 24 20 19 20 22 22 26 33 32 36 36 38 38 40 42 43 39 39 36 34 34 31 30 31 28 29 30 29 26 27 30 31 31 29 25 21 23 22 20 15 16 12 12
28 26 21 18 17 18 20 18 20 21 25 27 33 36 34 39 40 40 40 39 38 37 35 32 31 31 31 27 26 27 31 30 31 31 28 30 28 24 19 20 19 15 16 13 10
24 23 18 17 15 15 17 16 15 16 22 21 27 33 31 33 36 38 38 39 39 38 37 36 34 32 30 31 30 31 32 34 33 32 29 28 26 26 21 24 25 20 15 17 18
21 21 21 18 14 13 14 13 11 18 20 20 25 28 30 30 31 33 36 39 38 38 36 37 36 35 33 32 33 33 31 34 34 36 33 28 25 22 26 24 26 24 23 21 22
18 18 18 14 9 10 11 9 15 20 22 23 24 28 31 31 31 32 33 35 37 37 36 37 37 37 36 36 33 33 33 33 35 38 36 34 31 25 25 26 27 22 19 18 25
15 15 14 13 10 10 5 9 14 23 23 23 25 24 27 30 30 33 34 34 36 38 38 36 36 37 38 37 36 34 34 35 37 41 40 41 38 32 29 27 24 25 17 18 17
12 12 12 11 12 10 6 5 8 19 21 21 20 21 21 25 25 26 31 32 34 34 37 37 36 37 38 39 38 37 36 37 38 40 41 41 37 39 33 31 28 25 22 22 18
11 10 12 10 8 7 1 6 5 11 12 13 21 15 15 16 18 19 22 23 24 26 29 33 34 38 39 41 40 40 41 41 40 40 40 39 38 38 36 34 32 30 27 25 21
13 11 12 11 9 1 3 8 10 11 11 10 8 14 18 19 19 22 24 23 24 25 26 25 28 32 36 39 40 41 41 41 43 42 42 42 40 38 36 36 34 35 33 31 28
10 10 10 10 12 11 8 0 11 18 19 19 15 16 18 20 21 20 22 22 22 24 26 25 28 28 34 38 40 42 42 42 42 43 44 45 45 43 40 37 34 35 37 37 36
13 11 9 9 8 10 10 6 3 2 4 15 18 12 14 16 18 17 15 15 18 24 27 29 27 33 37 40 41 41 43 44 44 45 46 48 48 47 43 38 35 36 36 37 37
15 14 10 6 7 8 7 7 6 3 2 2 5 7 9 13 16 14 13 15 20 22 24 28 29 32 37 42 44 45 44 45 44 47 48 50 50 50 48 44 38 37 37 39 39
17 14 10 11 6 6 6 5 3 4 3 4 5 7 10 11 10 10 11 12 14 15 14 15 17 17 22 29 37 43 44 43 44 46 49 52 53 53 52 50 45 39 41 41 43
19 16 14 12 11 9 9 9 8 7 7 6 7 10 12 15 18 19 18 18 18 18 17 18 20 22 23 25 26 30 41 46 45 46 48 51 52 54 55 54 53 47 46 51 50

GFSSW_500_spd_069.txt.gz
Wind_Speed
18 16 15 15 15 15 16 17 17 17 16 15 16 15 14 16 18 19 15 17 16 18 18 17 16 14 14 12 11 8 5 4 3 5 7 9 10 6 14 15 13 16 12 8 13
19 20 20 21 20 18 16 16 16 17 18 18 19 19 18 17 18 19 20 20 17 16 20 22 20 17 15 15 11 9 6 4 2 2 4 2 4 12 10 13 4 13 12 9 12
19 19 19 19 19 20 21 21 19 18 17 19 20 20 22 21 20 18 20 22 22 18 17 19 22 19 16 15 14 12 9 8 5 4 4 2 2 5 4 8 5 9 10 6 10
20 21 20 20 19 20 19 20 22 24 21 20 20 21 22 24 24 23 21 20 23 23 20 18 22 23 19 19 17 15 13 10 7 6 4 2 5 9 7 7 9 10 9 7 7
24 24 24 22 22 22 22 23 24 25 26 25 23 22 23 24 25 25 25 22 21 25 25 23 22 25 25 23 22 19 17 12 9 7 6 2 2 6 6 7 7 11 10 7 5
26 26 26 26 26 27 26 24 25 27 29 29 28 27 25 24 25 26 27 27 24 23 27 28 28 24 27 28 27 22 18 16 13 11 10 12 6 5 10 11 9 12 12 8 6
28 29 28 28 29 31 29 28 27 29 31 34 33 32 30 27 27 27 28 28 29 27 27 30 31 26 23 25 26 21 16 21 20 17 19 15 14 12 8 8 13 18 13 8 7
28 29 30 30 28 30 31 31 30 30 32 35 36 36 34 32 30 29 30 30 31 31 31 28 29 30 30 25 25 15 13 17 18 23 22 21 16 14 15 12 13 20 17 12 11
28 28 28 28 27 26 28 29 29 30 31 32 33 38 39 36 35 32 31 31 32 33 33 31 28 28 30 30 29 23 18 16 14 17 24 23 19 18 15 16 11 17 19 13 10
27 27 27 25 25 25 26 27 30 31 31 32 33 34 38 38 38 35 33 31 31 32 33 32 31 26 27 27 29 29 27 22 19 15 19 23 23 20 17 15 12 15 14 12 12
27 27 25 23 23 24 26 27 30 33 36 36 36 36 35 37 41 38 37 35 32 31 31 31 30 26 24 27 29 30 30 29 26 23 17 19 21 20 13 16 17 16 16 12 12
27 24 24 24 24 22 24 27 31 35 39 41 42 40 39 38 39 41 39 37 33 32 31 30 26 29 32 32 31 28 28 30 31 29 24 19 20 21 18 14 11 20 21 17 12
27 26 26 24 24 22 25 28 32 37 41 38 36 43 42 41 40 40 38 38 37 34 32 28 27 31 34 33 31 27 28 31 33 33 32 23 22 22 20 18 13 17 13 17 14
28 26 23 22 21 19 18 18 21 28 34 34 32 37 39 42 42 42 41 41 41 37 34 33 34 33 32 33 33 30 29 31 32 31 36 29 24 21 19 15 13 17 21 22 15
26 22 18 17 16 14 13 12 15 15 20 25 30 36 38 40 39 42 41 40 42 38 34 33 32 34 31 29 33 32 31 32 32 32 31 33 26 24 22 22 18 18 19 19 18
23 19 15 17 13 14 12 11 11 12 17 17 26 32 34 37 38 40 41 42 42 42 38 35 33 34 34 33 31 33 35 35 33 31 29 30 30 27 25 27 26 26 21 19 18
21 14 15 14 6 5 7 7 9 13 13 17 23 29 31 34 37 38 39 40 40 40 40 38 34 36 35 36 36 34 35 36 35 34 29 26 30 33 29 26 29 27 24 22 18
18 12 11 8 2 2 4 5 5 7 13 16 24 30 31 32 32 35 36 36 37 38 38 39 37 37 36 35 35 35 34 33 36 34 28 26 28 33 33 29 25 27 23 20 16
13 11 10 9 4 8 8 4 5 10 18 20 24 27 29 30 28 31 33 33 34 36 36 38 39 38 37 38 37 37 37 36 35 33 29 32 30 30 32 30 27 26 23 19 20
12 11 10 9 7 9 5 3 2 11 22 22 20 22 25 25 27 27 29 31 33 34 34 36 37 39 39 38 38 38 38 39 38 37 35 34 34 33 31 29 28 27 25 21 20
13 11 11 9 9 6 3 1 2 3 19 20 17 17 17 22 23 23 25 27 27 30 32 32 36 37 39 40 39 38 40 40 40 39 39 36 36 33 32 32 30 29 26 26 22
15 12 10 14 11 9 5 1 2 4 2 3 2 20 19 18 18 18 20 20 21 21 25 28 32 33 37 38 39 39 40 41 42 42 42 39 37 34 32 30 32 33 30 28 26
18 14 10 5 10 11 10 7 1 6 8 8 7 7 11 18 20 21 22 22 22 21 22 23 27 32 34 37 38 39 40 41 42 43 44 42 42 36 33 33 32 33 34 32 31
18 15 12 5 6 7 8 9 6 3 2 6 11 14 13 16 18 18 19 22 24 26 24 26 27 29 33 35 36 38 39 40 42 44 44 47 44 41 37 34 33 33 36 37 36
20 18 12 10 6 6 6 3 3 3 2 3 1 6 12 16 17 19 20 21 23 26 27 29 32 34 36 37 40 42 42 42 43 45 46 47 46 45 42 39 37 36 37 39 40
21 20 15 11 9 8 6 5 4 3 4 4 4 3 4 6 7 11 17 20 23 26 28 31 30 32 32 35 37 38 40 41 43 45 46 48 47 47 47 45 42 39 39 39 40
19 18 18 17 16 13 13 12 9 6 5 5 5 6 7 8 9 8 9 13 17 19 20 20 21 22 24 27 31 35 38 39 40 40 42 46 47 48 48 48 47 45 45 44 44

GFSSW_500_spd_072.txt.gz
Wind_Speed
16 16 16 16 16 15 14 14 15 16 16 15 15 15 14 14 17 16 15 17 18 21 20 18 15 15 13 10 8 5 6 5 5 6 5 7 11 16 18 18 19 16 10 10 18
17 17 17 17 16 16 16 17 15 15 16 18 17 17 17 16 16 18 19 18 18 20 23 22 19 17 16 14 11 8 7 6 3 4 3 2 10 15 11 11 19 15 12 10 12
21 21 20 20 19 18 18 17 17 18 17 16 18 20 20 19 19 17 18 21 20 18 20 22 21 19 17 15 14 12 9 7 5 4 3 2 3 6 10 8 18 13 11 12 11
23 23 23 24 24 23 23 22 20 19 18 20 19 19 22 22 21 20 18 18 22 21 20 21 23 21 20 18 17 14 12 9 7 5 4 0 1 3 9 10 16 12 7 12 12
26 26 26 26 27 26 27 26 25 23 22 21 22 22 21 23 23 23 21 20 20 24 24 23 24 27 25 23 20 18 15 10 9 7 6 3 4 5 6 4 4 10 11 8 10
29 28 28 29 29 30 30 31 31 29 28 27 27 27 26 24 23 25 24 23 23 23 26 26 24 25 28 28 27 21 16 13 12 11 9 8 7 3 7 9 6 8 10 9 9
29 29 28 28 30 31 32 33 34 34 33 33 32 32 31 28 26 26 26 26 25 26 25 27 28 24 23 29 27 23 19 19 17 14 13 15 11 7 7 6 12 11 12 10 9
29 30 30 31 31 29 31 33 34 35 36 36 35 36 35 33 30 29 27 27 27 27 27 25 26 28 27 20 24 23 19 20 22 20 19 17 12 14 10 8 7 18 15 13 11
26 28 29 30 29 27 28 31 33 34 35 36 36 36 37 37 35 32 30 28 28 28 28 28 25 26 28 26 25 20 18 19 21 24 24 22 19 16 12 11 10 15 18 14 10
25 23 24 24 25 26 28 29 31 35 35 36 36 36 37 39 38 36 33 30 29 28 28 29 28 26 28 30 30 25 24 21 20 19 23 27 25 20 14 10 9 11 23 16 14
21 21 21 21 22 24 26 28 30 32 36 37 36 37 38 38 39 37 36 34 31 30 29 27 29 28 25 28 38 33 30 29 24 19 18 22 24 23 16 13 12 13 15 18 14
23 22 23 23 23 26 28 29 32 34 36 38 39 39 39 40 39 39 38 36 33 31 30 28 26 31 33 32 33 30 31 33 29 25 22 19 19 21 18 13 12 13 21 16 13
26 27 27 25 25 25 26 29 31 34 35 38 41 43 41 42 42 39 38 36 35 34 31 29 28 32 34 35 32 31 30 36 34 33 27 21 17 20 18 16 13 12 19 19 17
27 25 23 22 23 25 27 28 29 32 31 32 34 36 39 42 45 43 41 40 39 36 36 34 33 33 36 35 35 32 32 35 35 31 27 27 12 21 21 18 18 17 16 17 16
26 23 20 20 20 20 20 20 19 21 22 28 30 30 33 35 44 45 43 42 41 40 37 36 35 36 35 36 37 37 33 33 35 31 37 31 24 22 23 22 22 26 21 20 17
25 22 16 12 13 14 16 16 16 15 23 20 25 27 30 36 39 44 42 43 43 41 39 42 38 39 36 36 38 42 36 33 31 29 30 30 30 26 28 25 26 20 21 18 13
21 16 11 12 14 11 11 12 14 18 16 18 20 19 27 36 38 39 40 41 41 41 41 42 39 40 40 39 40 39 39 35 33 33 24 26 34 37 32 30 28 24 19 16 14
16 9 11 13 12 9 8 7 9 11 12 13 17 25 32 33 35 37 38 37 39 40 37 41 43 41 42 41 40 39 38 28 31 31 26 28 30 42 34 32 31 30 24 19 17
12 11 13 13 13 6 3 3 2 3 7 13 19 30 32 33 33 34 37 38 38 40 37 39 42 43 41 41 42 42 41 31 28 29 24 30 37 32 38 36 30 25 25 23 20
12 12 12 12 11 7 4 5 3 6 11 18 23 31 19 33 28 32 34 35 35 37 39 40 41 43 41 40 41 42 40 40 36 26 27 29 34 39 38 40 34 27 23 25 24
17 11 11 12 10 10 7 5 6 9 20 18 16 20 31 30 30 26 29 31 34 33 36 37 39 42 42 43 43 42 43 42 32 27 25 28 36 37 35 35 36 31 27 26 23
16 14 10 6 12 11 9 6 3 6 7 18 15 11 10 23 18 25 22 22 25 32 36 35 38 38 43 42 42 42 45 43 40 38 35 28 37 34 36 35 34 31 30 29 29
15 13 8 7 6 9 10 7 6 4 3 4 5 9 15 13 18 16 14 21 17 21 27 39 38 36 38 39 41 43 43 42 43 39 30 30 38 33 35 33 34 34 32 31 31
18 13 12 5 6 6 6 4 4 1 1 2 5 6 7 14 19 19 18 18 16 15 16 19 30 38 26 33 39 42 42 43 43 41 28 34 43 38 35 35 35 33 35 36 34
21 19 14 11 9 8 8 6 4 2 1 1 4 13 16 14 13 15 16 16 20 21 22 22 22 24 37 39 39 40 41 42 44 45 44 39 45 41 37 37 37 38 38 40 40
23 20 19 17 15 13 11 10 7 4 3 3 4 5 10 16 19 19 23 25 26 27 28 28 27 29 30 30 35 39 40 43 44 45 46 52 46 43 43 41 41 40 40 41 45
20 20 20 19 18 18 18 18 14 7 4 2 2 4 6 8 11 12 16 23 26 30 31 32 31 30 31 30 32 34 37 39 43 44 48 48 49 46 46 45 44 44 44 44 45

GFSSW_500_spd_075.txt.gz
Wind_Speed
20 19 18 17 17 16 15 13 14 16 17 16 16 16 14 15 15 15 17 20 24 23 21 18 16 15 15 12 8 6 5 6 4 3 5 10 13 15 19 17 16 14 12 12 16
23 22 21 20 19 19 18 17 16 15 16 18 19 18 17 16 15 16 18 18 22 24 24 23 20 18 16 15 13 10 7 6 4 2 6 7 13 12 16 18 17 14 10 12 14
25 26 25 25 24 23 23 21 20 19 18 16 19 21 21 19 18 15 19 19 20 24 25 23 22 19 16 15 14 13 10 7 5 2 4 8 11 8 12 17 17 13 12 13 11
28 27 27 27 27 27 26 26 25 24 22 21 20 19 23 24 21 20 18 20 21 21 23 25 23 20 18 16 15 13 12 10 6 5 2 5 3 7 12 13 15 13 10 13 12
30 30 30 30 30 30 29 29 29 28 27 25 23 23 21 23 23 22 22 20 20 23 24 25 26 25 22 21 18 16 14 12 10 9 6 5 3 5 4 7 13 14 9 7 12
29 29 31 31 31 31 32 32 32 32 31 30 28 26 25 25 23 24 24 23 23 23 26 25 25 28 29 25 22 20 15 14 13 11 8 7 8 6 4 3 6 10 10 9 11
26 27 27 30 30 31 32 33 33 34 35 34 33 32 30 25 25 25 26 26 26 25 24 28 27 23 26 26 25 18 16 16 15 14 11 11 9 7 7 5 9 11 10 10 11
26 27 28 29 30 31 33 33 35 34 35 36 37 36 36 30 30 29 27 27 28 28 26 24 27 26 21 25 24 21 19 15 19 17 14 13 9 11 8 5 10 13 13 12 10
29 29 28 28 31 31 33 33 33 35 33 36 37 39 40 36 34 33 31 29 30 30 29 26 23 27 28 21 21 23 20 14 24 21 20 12 14 15 9 6 9 8 19 17 12
27 25 25 26 27 27 30 31 32 33 34 35 37 38 38 36 38 35 34 32 29 29 30 31 28 27 30 30 24 17 19 17 20 23 23 22 20 21 17 10 8 7 18 20 15
19 19 19 22 23 24 26 28 30 32 35 35 35 41 37 40 36 38 36 34 33 30 30 30 31 29 26 28 24 18 22 21 22 20 16 20 15 24 21 16 11 10 10 25 18
22 23 23 23 25 24 25 27 28 30 32 35 36 39 37 36 38 39 38 37 34 30 29 31 30 30 30 30 36 29 25 23 27 17 16 21 24 23 24 20 13 10 14 16 17
22 21 22 24 25 27 28 30 30 33 33 35 38 37 36 37 37 37 37 38 35 34 32 29 27 33 36 35 35 30 25 24 31 23 21 17 14 13 22 22 16 12 13 19 18
28 23 20 21 26 28 29 27 28 30 27 34 34 35 37 35 38 39 40 41 39 38 35 33 36 38 38 38 33 30 32 26 28 28 27 22 10 23 17 23 23 14 16 14 16
30 26 22 20 19 25 23 18 16 19 7 30 29 32 33 31 39 40 40 40 43 41 40 36 42 39 36 37 37 24 31 34 30 28 16 24 20 21 23 29 22 20 16 14 21
31 24 16 10 10 11 14 12 10 9 16 19 19 18 24 29 40 41 39 41 43 42 42 38 41 38 36 36 37 36 34 37 33 24 28 24 22 23 16 24 26 23 18 18 15
25 16 13 12 13 10 7 9 10 4 16 16 13 12 17 26 24 36 40 42 42 43 43 41 45 42 41 39 39 39 33 30 26 25 22 24 23 32 35 26 25 28 24 23 18
21 12 13 14 15 10 3 8 2 17 14 14 13 9 14 17 18 28 32 36 38 40 24 41 42 41 42 41 34 39 29 25 20 22 21 19 24 45 45 28 29 27 19 15 16
17 13 10 13 13 9 4 6 13 18 15 17 14 14 21 20 22 16 21 23 29 40 36 26 25 40 45 37 32 33 39 29 18 20 21 27 40 46 44 42 29 30 25 19 18
17 11 9 13 9 7 7 8 10 11 12 14 14 22 20 19 16 24 28 38 44 40 39 34 35 44 42 47 47 42 34 34 29 25 28 30 34 36 41 36 36 32 32 31 29
14 12 9 8 11 10 4 2 3 3 6 10 25 22 28 18 20 23 22 39 37 36 40 41 27 32 46 47 41 44 40 36 28 23 26 24 32 46 37 33 36 37 32 30 29
11 12 7 5 9 10 7 3 2 7 4 10 26 26 31 32 28 27 22 32 37 37 40 45 39 22 38 41 48 48 32 35 35 34 26 32 35 42 36 32 32 38 37 34 30
12 11 7 8 5 7 8 9 6 4 2 6 2 10 21 36 27 38 35 30 36 39 41 40 36 19 36 44 45 45 46 44 31 26 31 30 37 31 38 35 34 37 38 36 37
15 12 11 9 7 7 7 5 5 2 4 6 4 1 1 7 24 18 19 24 26 37 37 39 42 33 24 21 34 44 46 46 44 32 28 33 40 31 37 35 37 37 39 39 38
18 15 14 13 12 10 8 6 4 4 3 3 5 8 8 7 7 12 14 17 16 19 22 26 38 47 37 39 34 30 48 47 46 41 25 37 43 49 41 40 35 39 41 41 39
15 13 13 15 17 16 17 11 5 2 3 4 5 5 11 19 21 16 11 15 20 18 18 18 13 26 41 43 47 46 47 51 49 46 43 27 46 50 48 44 38 39 41 42 44
11 12 12 12 12 14 16 18 13 8 3 2 4 7 8 10 16 15 20 21 22 22 24 25 21 24 18 34 47 49 52 43 44 46 42 37 58 47 42 43 41 40 41 43 45

GFSSW_500_spd_078.txt.gz
Wind_Speed
24 23 22 21 21 20 19 16 16 18 19 18 17 16 14 13 14 17 23 25 24 22 19 16 16 15 16 13 9 6 3 4 3 4 11 10 8 12 19 14 12 8 8 7 11
29 28 27 25 24 24 22 21 20 17 18 20 20 18 17 15 15 18 20 24 26 24 23 21 19 18 17 16 13 8 10 5 1 5 9 9 9 12 15 14 14 10 6 7 9
30 30 29 29 28 27 26 25 23 22 20 19 21 22 20 18 18 16 21 21 23 26 26 24 22 20 18 17 18 2 7 7 2 3 5 11 9 10 19 12 11 10 7 8 7
31 31 30 31 30 29 28 28 27 26 25 23 21 22 23 23 19 20 19 21 22 24 26 25 23 20 18 17 16 12 8 8 6 3 4 7 6 11 7 10 10 8 5 9 9
25 26 26 27 31 32 31 30 29 28 28 28 26 24 23 25 23 23 21 20 23 23 24 26 25 23 20 18 17 14 14 9 8 7 5 5 5 11 15 16 15 10 7 7 9
19 20 23 24 24 29 33 32 32 31 30 30 30 29 27 26 19 25 24 23 24 26 26 25 28 26 24 22 21 15 10 12 9 9 7 5 6 3 4 10 13 13 10 8 10
22 20 22 24 24 25 28 30 31 32 32 32 32 32 30 30 23 23 26 26 26 26 28 27 27 30 27 24 22 20 14 15 13 12 10 6 3 4 4 6 10 12 10 9 9
27 26 23 25 26 25 26 28 30 31 31 33 34 34 35 30 28 27 26 28 28 28 27 30 30 26 28 28 24 21 19 13 14 12 14 12 9 11 7 4 8 11 12 10 9
28 28 25 23 24 28 28 28 30 31 32 32 34 36 39 33 33 32 29 28 30 30 29 28 28 27 25 23 25 22 18 11 20 18 18 20 17 16 13 10 7 7 10 14 11
20 21 22 21 20 23 26 27 30 31 31 33 34 34 38 32 34 33 33 29 29 32 32 28 28 31 30 28 21 17 17 13 19 13 19 26 18 23 14 7 6 11 7 17 14
23 23 22 23 24 23 23 24 26 30 32 34 34 37 38 37 37 36 35 33 31 30 31 32 33 31 29 27 22 17 15 21 19 22 13 26 29 35 13 13 8 8 9 9 18
24 22 23 25 26 26 27 27 25 26 30 32 35 37 39 37 35 36 36 36 34 29 30 33 33 30 28 29 29 27 21 18 19 23 22 22 22 22 15 14 12 13 13 14 19
26 25 22 20 26 30 30 30 30 30 29 32 32 36 34 34 34 37 36 36 35 32 32 31 28 32 33 30 31 34 29 21 27 26 11 19 22 14 16 14 20 17 15 15 15
32 30 25 18 17 28 29 25 25 27 23 31 30 29 34 33 37 38 37 37 38 37 34 32 32 35 36 35 35 33 30 18 27 16 23 17 10 23 17 17 14 22 15 15 14
36 29 20 14 11 12 13 9 9 10 3 21 29 32 29 30 31 37 37 41 41 39 38 35 37 40 41 40 35 28 32 28 28 30 23 25 19 23 27 26 19 19 16 15 13
29 22 13 14 12 9 6 1 10 13 2 14 18 14 23 25 29 34 37 41 40 40 39 39 38 40 41 42 40 32 30 38 18 23 25 20 18 31 36 31 21 19 25 22 17
24 18 11 14 15 5 7 13 19 5 13 5 9 11 12 24 24 27 37 40 40 42 43 39 36 43 41 41 40 37 30 30 34 24 21 18 17 32 41 40 28 8 22 17 12
22 16 12 14 16 11 6 18 7 18 8 11 9 7 12 13 15 22 31 37 39 38 20 29 38 43 43 40 37 37 31 25 26 24 17 20 24 39 47 41 21 17 24 22 18
17 12 11 11 12 6 8 4 15 10 10 10 8 10 9 16 15 17 19 25 30 33 28 28 31 30 36 36 38 27 36 30 18 12 14 23 35 45 48 41 35 28 24 32 22
14 9 10 14 12 8 5 3 16 12 8 12 11 10 18 20 20 19 14 26 32 34 41 30 31 27 28 39 42 40 32 34 34 35 26 28 34 44 44 37 36 37 28 25 27
13 7 9 7 12 16 13 7 10 10 13 18 25 21 28 20 27 24 33 36 38 42 44 36 36 30 27 43 46 46 34 48 36 24 20 25 41 41 48 44 36 34 34 32 31
10 10 6 2 5 1 6 11 8 4 12 12 27 33 21 25 25 36 32 27 35 34 31 37 36 17 20 36 43 45 38 36 41 34 29 36 40 43 47 36 30 34 32 36 35
9 9 8 7 10 6 8 7 7 5 3 13 22 33 32 30 28 23 27 26 21 35 37 47 40 22 15 21 41 52 53 40 34 31 39 34 40 29 32 37 27 24 32 34 37
8 9 7 5 4 7 8 7 5 5 5 6 7 7 25 36 35 31 36 30 34 34 38 40 41 21 30 27 23 41 47 47 46 39 24 38 41 40 31 25 29 28 28 34 38
8 9 9 10 9 8 8 6 5 4 4 4 6 7 11 25 9 36 28 38 35 29 39 43 47 25 30 30 32 27 38 45 50 48 31 34 45 37 29 30 27 29 30 37 39
7 8 7 8 8 10 12 9 5 2 3 4 3 6 10 7 15 14 16 17 22 27 34 44 42 51 51 33 35 35 23 33 44 48 23 45 39 42 47 38 36 36 32 38 42
4 5 6 7 8 10 10 11 10 7 4 1 4 4 6 9 13 12 11 15 16 18 23 32 39 37 47 40 40 45 48 46 50 47 32 30 36 55 42 48 43 41 39 37 45

GFSSW_500_spd_081.txt.gz
Wind_Speed
28 27 26 24 23 22 21 20 18 18 20 19 18 16 15 14 13 22 31 26 22 20 18 17 16 17 17 14 13 7 5 6 6 6 13 7 8 16 14 14 11 4 5 6 11
30 29 29 28 28 26 25 24 23 21 20 21 21 19 17 17 17 20 30 29 24 23 21 20 19 18 19 17 14 9 10 7 6 8 8 6 6 10 20 13 9 5 2 4 8
29 30 29 29 28 28 28 27 26 25 24 21 23 23 21 19 19 20 24 29 29 27 25 23 22 21 19 18 13 4 13 9 4 7 5 9 7 11 5 7 7 6 3 5 7
20 20 23 27 28 29 28 28 28 27 27 25 24 24 24 22 19 21 22 24 27 29 27 26 23 22 20 19 16 6 8 5 10 5 10 8 5 6 14 9 8 4 4 5 8
18 19 21 22 23 24 26 28 28 28 28 28 28 26 25 25 22 23 22 24 24 25 28 28 25 23 21 20 17 12 7 12 8 7 5 4 2 4 7 14 8 6 4 5 5
20 19 19 22 23 23 24 25 28 29 29 29 29 30 27 25 22 26 25 25 28 27 27 29 27 26 26 25 21 17 18 11 14 11 5 2 3 2 9 12 11 7 6 6 6
22 23 23 21 23 24 23 26 27 28 29 30 30 31 30 29 22 28 27 26 27 30 28 28 30 31 30 28 28 14 13 11 9 10 10 6 3 1 14 10 12 9 6 5 8
25 23 24 22 22 24 24 24 26 27 28 29 30 30 31 32 27 28 29 29 29 29 32 31 32 34 30 29 24 23 18 9 9 6 6 6 6 9 11 9 10 9 7 7 5
25 22 21 22 19 18 23 25 26 27 29 29 29 28 32 30 30 32 29 31 32 31 30 33 32 30 31 28 26 24 19 13 10 17 13 10 15 24 16 10 10 9 8 10 8
24 25 25 22 23 20 20 23 26 27 29 31 31 31 32 31 33 33 32 31 33 33 32 31 32 29 29 28 25 20 15 17 15 17 20 18 17 16 13 9 10 8 1 6 10
25 25 25 26 25 24 24 24 25 26 27 30 30 33 34 33 35 36 34 32 33 35 34 32 29 31 29 24 20 23 20 17 17 16 25 16 19 16 15 11 14 6 5 6 6
25 25 24 25 25 27 28 28 27 27 28 30 30 34 36 35 36 36 37 36 35 31 32 34 33 30 31 30 27 26 30 19 21 25 26 24 15 10 20 17 17 11 5 11 6
28 29 28 23 21 24 29 32 31 30 29 29 27 33 35 35 35 36 36 36 35 33 33 32 29 31 30 33 33 29 32 23 18 23 28 26 15 10 13 20 11 14 13 12 9
32 33 32 24 17 16 25 31 24 22 23 27 25 28 33 31 35 37 37 37 37 36 35 32 32 35 33 32 35 33 30 18 20 27 21 17 11 10 12 12 10 13 18 14 11
31 28 24 19 16 14 11 9 6 8 11 15 24 29 30 29 32 37 37 38 39 37 38 34 35 37 38 35 34 35 34 21 20 19 17 17 16 13 17 17 13 13 19 19 15
27 26 17 13 16 15 8 1 13 15 15 7 3 5 16 24 30 35 33 39 40 41 41 37 37 35 39 39 37 37 38 28 22 19 34 20 15 24 24 20 21 18 22 17 13
24 20 10 12 15 10 1 12 17 19 17 12 2 3 7 18 24 31 35 39 41 41 44 40 41 40 38 38 41 39 47 34 26 25 25 19 21 33 27 23 23 29 19 20 18
21 13 11 10 13 5 3 16 6 6 17 20 13 3 10 19 21 19 29 37 37 38 37 40 42 43 40 40 42 40 49 40 30 25 19 15 25 28 35 29 26 24 3 15 16
15 12 13 10 9 8 3 8 12 6 20 17 11 7 7 12 13 14 16 26 32 34 29 24 33 30 40 43 36 35 41 37 14 18 26 18 28 33 34 35 29 16 19 12 22
9 8 9 6 4 9 1 5 8 9 3 14 14 20 21 17 14 18 13 17 21 35 36 32 36 41 37 28 34 30 36 38 30 26 23 26 33 34 35 36 30 18 14 20 19
11 7 9 9 8 6 6 13 12 11 2 20 18 24 30 33 35 29 29 32 33 35 38 37 28 33 29 36 31 37 40 46 40 38 35 33 30 36 38 31 28 25 22 22 24
10 3 5 8 10 13 10 13 11 11 2 12 14 23 20 33 37 21 28 31 34 37 37 44 29 37 36 33 35 39 40 37 47 42 32 33 40 37 36 38 30 32 29 28 26
7 9 6 6 3 5 8 12 10 8 6 13 19 24 25 27 22 29 23 26 34 35 37 38 35 32 35 37 37 44 35 45 46 47 39 37 39 28 29 35 39 31 29 28 30
5 4 6 6 7 11 11 8 6 6 4 4 14 23 32 29 20 23 25 32 34 29 36 36 38 34 38 33 37 43 46 49 41 53 43 46 39 34 26 30 23 27 31 27 27
3 2 5 6 6 8 10 10 7 4 5 2 10 16 27 36 34 28 31 24 31 23 19 33 33 43 34 34 34 44 52 50 47 48 44 44 36 35 30 26 30 26 26 32 29
2 1 2 4 7 8 12 11 8 4 4 3 4 7 12 3 28 30 30 34 24 24 22 30 38 43 43 32 33 33 36 46 44 40 43 55 54 42 41 28 21 29 27 28 31
2 2 3 4 4 7 9 10 9 7 3 0 3 7 3 8 12 29 19 26 20 24 32 34 35 43 48 46 37 37 34 34 43 40 54 59 61 59 42 31 30 34 29 29 28

GFSSW_500_spd_084.txt.gz
Wind_Speed
28 27 27 26 26 25 24 23 22 20 21 21 19 18 17 15 14 27 35 31 26 21 18 17 17 20 20 17 12 8 6 4 5 9 12 10 20 18 13 9 10 12 13 11 11
21 24 26 27 27 27 27 26 26 25 22 22 22 20 18 19 19 22 33 31 27 24 22 20 20 21 20 19 16 10 5 4 6 6 14 9 8 15 10 7 5 10 12 11 12
17 15 15 18 22 26 26 27 28 27 27 24 23 23 21 21 22 21 35 34 29 26 24 24 22 22 21 19 13 10 10 4 6 5 10 10 8 7 16 9 5 6 11 11 10
16 16 15 15 19 23 24 26 26 27 27 28 26 24 24 22 23 25 28 36 32 28 25 22 21 21 18 19 13 17 16 8 5 11 12 9 7 10 8 11 5 7 7 8 11
19 18 17 16 18 22 24 25 26 26 27 28 29 27 25 25 26 26 28 32 34 32 29 26 24 22 21 21 19 16 13 12 11 14 9 9 4 3 8 10 6 7 7 8 6
22 20 19 19 19 21 23 26 27 27 26 28 28 28 27 27 27 27 28 30 32 33 33 28 27 28 25 25 23 24 16 9 10 9 10 6 5 4 8 13 10 5 6 7 12
20 21 22 21 22 22 24 26 28 29 29 28 29 27 28 28 27 30 29 30 32 32 31 33 34 32 30 27 27 25 18 16 9 6 10 8 8 2 7 8 8 4 2 3 6
23 24 23 22 22 20 22 27 26 29 30 30 29 29 28 29 28 33 32 31 32 32 34 37 37 38 34 31 28 16 22 13 18 14 11 10 9 8 11 10 7 6 4 3 3
24 23 23 23 22 21 20 23 27 27 31 30 31 30 32 26 28 32 32 34 35 34 35 37 37 36 35 33 29 31 19 18 15 17 15 12 11 5 14 10 9 7 5 5 5
25 24 24 24 22 23 22 22 24 27 28 29 30 33 34 33 33 35 33 33 35 36 36 38 36 33 34 31 24 19 20 20 19 16 17 11 9 6 6 10 6 6 2 3 4
26 23 23 22 24 24 23 23 24 23 27 30 29 35 36 36 35 36 37 35 37 38 36 36 36 32 27 24 24 20 23 23 20 18 15 14 12 8 10 12 4 4 7 5 7
25 25 26 23 20 21 24 24 26 28 29 30 32 34 37 37 36 38 39 39 38 35 37 37 31 30 32 29 27 24 27 26 25 25 20 17 14 14 11 16 10 11 13 9 6
26 29 27 24 21 14 17 23 26 26 27 27 30 35 37 36 36 38 39 39 36 34 35 35 29 33 35 34 33 30 31 35 32 23 22 19 23 11 12 15 15 15 14 10 11
27 28 28 26 18 11 9 15 24 24 22 27 27 31 36 36 36 40 42 41 39 38 35 29 37 37 36 34 33 33 27 32 29 23 18 21 20 21 17 15 17 13 17 17 15
26 27 23 17 12 12 11 14 11 18 19 20 24 27 30 31 32 37 39 43 43 38 38 31 37 38 38 35 33 30 32 31 28 26 24 19 16 16 18 14 15 15 15 20 16
24 25 16 10 13 12 13 13 9 9 14 16 15 13 20 26 31 36 38 40 42 45 44 39 35 36 36 35 34 35 38 34 32 26 26 15 16 17 13 10 12 14 12 16 20
20 17 12 10 13 16 13 5 4 15 19 15 10 11 13 23 28 30 39 41 43 44 44 42 41 39 40 39 39 43 44 38 35 29 26 21 25 16 18 15 11 15 13 16 22
19 12 11 11 13 10 7 3 6 14 20 15 13 12 14 19 23 26 32 37 39 40 43 43 42 41 40 42 41 42 50 41 37 28 14 25 30 24 20 20 20 12 6 5 18
15 10 10 11 11 9 4 3 9 5 20 21 19 15 21 21 16 19 26 21 29 28 37 42 43 42 43 42 39 43 53 43 32 30 22 28 26 28 26 22 18 16 9 5 11
12 11 9 11 7 8 5 3 1 3 15 20 19 22 27 23 22 14 16 17 31 33 35 42 44 44 42 42 40 37 49 43 37 36 34 29 33 31 24 22 21 16 9 9 15
8 9 5 3 4 5 6 5 4 4 4 15 15 20 29 28 29 28 21 19 29 35 38 42 40 43 42 43 35 38 47 47 44 39 33 40 35 35 31 26 20 20 21 20 17
6 9 9 7 4 4 5 9 10 5 3 20 18 16 22 26 29 31 25 20 22 36 35 36 37 42 42 39 32 35 44 47 46 39 41 44 48 33 28 24 24 21 20 22 22
4 5 4 6 10 11 10 11 10 6 2 10 21 18 17 19 24 27 25 26 30 28 31 36 34 36 36 33 34 41 48 53 54 48 46 46 44 43 31 22 27 28 27 24 25
4 2 4 4 5 9 13 12 5 6 4 5 11 19 21 18 21 34 22 29 28 31 28 30 33 32 41 41 41 48 49 58 57 53 51 49 48 42 39 34 28 25 28 28 28
4 2 5 3 5 8 11 10 9 4 4 6 7 10 16 21 20 18 21 26 25 27 29 31 34 40 40 48 42 47 50 49 55 55 57 53 49 48 40 38 34 26 22 23 27
3 1 4 6 9 5 8 13 12 6 2 6 4 3 11 11 17 28 25 27 26 17 17 37 34 37 50 43 50 49 54 51 44 52 49 53 55 51 48 39 38 32 29 26 23
6 5 5 7 8 8 8 10 11 9 4 2 2 4 8 14 8 16 25 24 24 25 20 28 30 39 43 47 37 38 45 45 50 48 54 44 48 58 54 42 31 27 19 28 25

GFSSW_500_spd_087.txt.gz
Wind_Speed
25 25 27 26 26 27 27 26 25 23 22 21 22 19 19 18 16 19 31 30 28 24 20 19 17 16 18 16 11 5 2 2 3 8 9 14 18 15 12 13 8 8 9 13 13
22 21 21 23 25 27 27 28 28 27 24 23 22 22 20 20 20 20 31 32 29 25 23 20 19 19 19 17 12 9 5 3 4 8 14 12 18 16 14 13 8 9 9 11 14
20 19 17 16 19 23 25 26 27 28 27 26 24 23 23 22 23 21 35 34 31 28 25 22 20 21 22 20 16 11 11 5 3 7 12 17 10 14 18 15 8 7 9 10 11
18 18 17 15 14 16 22 25 27 27 28 27 26 25 24 24 25 24 36 36 33 29 25 22 19 18 19 18 15 14 14 8 5 10 10 10 13 11 11 14 10 7 11 11 11
19 19 18 17 17 17 18 21 25 28 27 28 27 26 26 27 27 27 30 38 35 31 27 24 22 20 20 19 15 15 18 11 9 15 11 13 11 15 8 11 7 6 12 11 10
20 20 20 19 18 20 20 20 22 25 30 28 27 26 28 28 29 28 30 37 38 34 31 28 28 25 25 23 23 19 16 14 11 12 13 8 9 4 8 9 10 7 9 13 14
23 23 24 24 24 21 22 24 25 26 27 31 29 27 27 31 29 30 31 32 38 38 34 35 33 31 28 26 26 22 17 11 19 14 10 10 5 4 9 13 11 8 7 12 11
25 24 24 25 26 25 22 24 23 29 28 31 32 30 30 28 28 32 33 33 35 37 40 42 39 34 32 27 27 28 22 25 18 22 15 12 12 10 9 15 15 10 7 9 11
27 25 24 24 25 26 26 23 24 25 30 29 32 33 35 28 31 34 35 35 37 39 40 41 40 39 34 30 27 22 22 21 19 19 19 11 7 15 11 8 11 10 8 8 13
28 27 25 23 24 24 25 23 24 25 29 31 31 32 37 34 36 38 35 38 37 39 41 39 39 41 38 32 24 21 22 18 23 16 15 13 6 4 13 5 10 10 11 10 11
28 26 25 24 25 24 25 27 25 26 26 30 32 33 36 36 38 38 39 38 41 40 40 39 39 36 31 28 29 23 28 28 26 17 21 20 12 6 8 15 8 7 7 10 16
28 26 24 25 23 21 23 27 27 25 27 27 32 35 34 35 39 43 40 41 39 39 38 40 37 32 32 30 29 24 25 30 31 23 21 8 17 12 15 14 15 7 7 8 11
26 24 25 24 25 17 16 19 22 24 27 30 31 35 36 36 36 42 41 42 40 38 40 38 33 36 36 33 31 30 28 31 28 29 25 19 12 15 14 15 20 14 12 7 8
23 24 26 25 17 14 11 6 14 20 21 28 32 33 35 36 37 40 43 44 44 41 39 36 36 38 41 38 34 34 28 32 30 31 27 24 19 17 18 16 16 19 14 13 11
18 21 23 17 10 11 10 8 7 5 13 20 30 33 34 33 37 39 43 45 45 43 41 34 38 39 38 37 38 31 32 33 32 32 32 30 23 18 16 15 19 17 13 12 14
17 18 16 11 9 12 12 7 6 4 13 15 23 21 28 29 36 40 39 42 45 46 42 38 40 41 37 34 37 35 37 38 36 35 38 32 24 18 14 20 18 16 13 11 14
16 17 10 10 10 11 10 9 5 3 10 19 20 16 29 29 32 37 39 42 45 47 43 43 41 39 39 40 39 43 41 42 40 41 38 30 26 22 21 19 16 13 14 11 11
14 15 10 10 9 10 6 4 6 9 13 19 18 15 19 28 31 30 35 42 44 47 45 44 43 40 39 41 40 43 45 45 45 42 37 30 33 27 25 24 19 14 9 3 12
13 13 9 9 10 8 3 4 8 7 15 20 19 16 19 23 25 25 28 38 40 43 44 43 42 40 39 40 43 43 47 45 42 41 37 36 32 29 29 25 20 16 10 5 10
11 13 11 8 6 4 1 6 8 9 16 22 19 18 21 24 24 26 26 35 41 41 39 42 40 42 41 41 42 45 47 48 47 39 43 39 33 28 31 24 20 17 19 12 12
10 9 12 9 5 3 5 7 4 7 17 17 16 22 26 27 22 27 28 27 37 36 39 43 40 41 40 41 41 46 48 50 47 49 41 39 33 28 28 25 22 22 19 18 19
10 9 8 7 4 4 7 10 6 7 8 21 18 22 23 17 24 23 25 24 27 35 33 39 38 39 41 41 40 39 49 52 50 48 46 42 41 33 29 30 24 19 21 25 22
8 7 6 6 5 9 9 8 7 6 6 8 22 20 17 26 26 26 23 23 24 30 34 36 34 36 38 38 33 38 46 49 55 53 53 48 44 42 40 30 28 26 25 29 29
6 3 6 5 6 10 13 14 7 4 7 3 11 22 19 19 20 25 31 27 26 32 35 34 32 33 39 38 40 39 43 48 54 57 55 51 49 48 45 40 29 24 28 31 29
6 5 5 6 9 11 12 12 11 3 5 3 2 8 14 16 16 18 30 27 22 26 33 30 31 34 35 43 40 41 42 47 51 56 57 53 52 50 49 41 39 34 32 35 33
7 7 5 4 7 8 9 11 13 10 4 3 3 6 9 7 13 19 22 23 23 24 27 23 25 34 39 36 45 43 42 46 48 54 56 55 54 53 48 40 39 37 36 29 23
9 8 5 5 7 8 9 10 10 13 8 1 5 6 7 11 13 17 20 23 21 23 24 18 21 29 35 43 43 46 47 45 48 52 55 55 55 54 50 44 44 43 38 34 35

GFSSW_500_spd_090.txt.gz
Wind_Speed
22 23 23 24 25 27 27 27 25 24 23 21 20 21 19 19 20 19 19 18 24 23 20 18 16 16 15 12 11 7 5 5 5 11 13 21 18 10 13 16 13 13 8 16 15
20 22 22 22 22 22 25 27 27 27 26 25 23 21 21 21 21 21 18 23 27 25 23 20 17 17 17 15 11 7 4 4 5 7 13 19 16 12 12 15 14 16 11 13 14
19 20 21 21 21 19 19 23 27 27 27 27 25 24 22 22 23 20 22 27 29 27 23 19 19 18 16 16 14 10 4 2 6 6 14 17 16 13 9 12 11 10 14 14 15
19 18 20 22 21 19 17 17 20 27 28 27 26 25 25 24 24 23 22 29 31 28 24 20 17 19 17 16 14 10 7 7 6 5 14 19 17 16 9 10 10 10 13 17 15
22 21 20 21 21 20 21 21 19 20 26 28 27 26 25 26 25 24 23 32 33 30 27 23 21 22 19 19 16 10 12 10 8 9 12 16 9 18 16 7 7 9 13 13 14
24 23 22 22 23 23 22 22 22 21 21 25 28 28 28 28 26 26 27 34 36 34 30 28 27 26 21 20 19 11 14 11 10 6 11 15 16 8 18 8 6 7 9 12 14
26 25 24 24 24 25 26 24 24 26 25 24 27 29 30 31 27 28 28 31 40 38 35 34 32 28 25 23 18 15 14 14 12 10 11 10 10 11 14 11 9 9 8 10 11
26 25 25 25 25 26 26 26 25 26 28 28 27 28 32 31 30 30 32 33 38 40 38 37 35 31 29 25 22 20 16 13 13 15 13 11 11 9 15 13 13 10 8 12 12
27 26 25 25 25 26 27 28 26 27 28 29 30 29 31 32 33 34 34 35 37 42 43 40 36 34 31 28 26 24 20 17 17 19 18 17 15 8 14 18 15 12 11 9 13
30 27 26 25 24 24 26 27 27 26 28 27 31 31 33 33 36 38 36 37 37 39 46 45 40 36 34 28 26 24 22 24 22 25 25 26 12 9 14 16 16 14 12 11 14
30 28 26 26 24 24 24 25 27 26 28 28 28 34 32 32 35 39 39 38 39 40 41 44 44 39 31 31 31 26 24 24 22 14 20 19 14 12 18 12 16 14 12 16 13
30 27 25 25 28 24 21 22 25 26 30 29 29 33 35 34 35 39 40 39 39 40 40 41 39 37 36 33 31 28 27 26 22 17 23 23 19 18 19 16 19 16 8 11 14
26 24 22 24 25 22 13 15 17 19 26 29 30 31 33 35 36 36 39 40 39 41 38 36 35 38 36 35 35 30 28 25 24 23 23 24 18 21 22 25 20 17 12 8 12
23 21 20 23 18 13 9 10 14 18 18 25 30 31 32 37 37 39 38 41 40 39 40 36 37 39 38 35 35 32 27 25 27 27 26 19 11 21 22 19 18 14 10 13 11
20 18 19 19 14 11 11 12 12 8 13 19 26 32 33 37 40 40 40 41 43 40 39 40 39 39 38 36 35 33 30 30 33 31 29 25 17 15 15 14 16 15 12 14 13
17 16 17 18 14 12 12 5 5 3 8 15 21 25 31 34 40 40 40 43 43 44 40 39 41 40 39 37 35 36 37 36 31 35 35 27 26 20 20 20 22 17 16 17 16
15 14 16 16 13 12 10 8 7 7 4 6 15 18 25 31 37 40 42 44 45 46 44 40 41 42 40 39 39 43 42 40 39 38 36 33 33 24 23 21 23 23 24 19 15
13 12 14 14 13 10 9 5 9 12 11 11 12 15 17 26 33 36 39 41 44 46 43 42 43 43 42 42 38 41 44 44 43 42 37 34 34 25 24 23 24 22 19 21 17
11 12 13 12 12 10 5 3 8 9 11 13 12 17 19 21 27 33 35 37 41 44 44 43 43 41 40 42 40 40 44 42 42 40 38 37 31 25 25 29 22 15 15 15 17
10 13 13 11 10 10 8 7 9 9 11 14 15 17 16 20 27 24 30 33 38 41 41 43 41 40 40 42 43 42 40 45 46 43 43 40 31 27 27 27 22 20 20 16 15
11 13 10 9 9 8 8 9 10 14 14 13 16 16 15 16 23 24 26 29 34 36 37 41 41 38 38 41 43 43 44 45 46 44 43 41 34 26 25 29 27 20 26 21 18
11 10 8 8 7 8 10 12 11 10 10 13 14 15 17 18 24 26 27 26 31 35 35 36 34 36 40 40 40 43 44 45 46 45 45 44 39 32 29 24 27 27 27 24 24
10 6 5 8 5 8 12 13 12 10 12 12 20 18 15 22 19 23 27 25 25 29 34 33 33 36 39 41 40 41 44 47 47 46 46 44 42 35 31 28 26 25 29 27 25
9 4 2 3 4 7 12 15 18 9 9 9 8 21 23 14 13 18 19 23 20 20 31 32 32 33 37 42 43 43 43 45 47 46 47 47 44 39 36 34 30 27 28 24 23
8 6 4 2 7 11 13 15 13 10 5 5 3 11 23 18 17 18 23 24 22 23 26 32 30 31 37 37 40 41 41 42 42 46 48 48 48 43 41 40 36 34 33 25 25
9 5 4 4 6 9 11 11 12 12 4 4 4 8 14 18 21 20 20 12 26 22 23 28 21 31 32 36 39 38 37 37 38 42 46 48 50 50 47 46 42 38 37 35 30
10 4 3 4 6 9 9 9 9 9 8 2 4 5 4 11 15 21 16 13 21 25 21 16 24 29 25 34 36 38 36 37 37 39 42 46 49 52 52 51 49 43 36 35 36

GFSSW_500_spd_093.txt.gz
Wind_Speed
15 16 16 17 18 18 19 21 22 23 22 21 19 18 20 20 19 19 17 14 12 19 21 17 15 14 12 12 8 5 3 7 11 20 18 18 16 15 14 16 15 14 12 16 17
17 19 19 19 18 19 17 18 21 23 24 25 23 21 20 21 21 20 17 15 14 23 23 20 18 16 13 14 10 6 6 6 10 9 19 19 16 17 15 17 19 18 10 12 18
16 16 16 18 19 20 18 16 17 21 24 26 25 24 22 21 23 20 20 16 16 27 23 18 16 16 16 15 12 9 7 4 8 12 20 20 15 17 14 16 13 17 15 13 18
17 17 18 18 19 19 19 18 17 17 20 25 26 26 25 23 22 22 20 17 18 28 23 20 17 16 17 16 13 9 6 4 8 9 16 17 16 15 13 16 16 12 17 18 16
20 20 20 20 21 21 20 20 19 20 19 21 25 27 27 26 23 23 21 19 21 31 26 22 20 20 18 13 14 12 8 8 5 8 12 15 13 16 11 13 14 14 13 15 16
24 22 22 22 22 23 23 23 23 21 21 21 21 26 27 29 26 24 24 23 25 33 28 25 25 23 22 16 12 9 12 9 10 10 15 15 10 20 17 11 13 14 14 15 16
27 25 23 24 24 24 25 23 24 25 25 25 23 24 27 30 28 27 27 26 28 33 32 30 28 26 24 19 14 13 12 12 11 12 18 17 15 14 13 13 10 13 13 14 16
30 27 25 26 26 26 26 26 25 26 27 28 28 25 28 27 29 30 30 29 29 34 36 32 31 28 27 23 18 16 15 15 15 13 21 15 18 14 17 13 13 11 14 14 15
32 30 28 26 26 26 25 26 27 26 28 29 27 30 30 28 30 33 33 33 32 37 40 36 34 31 27 26 23 21 19 18 16 15 13 13 20 17 23 17 15 12 12 14 14
36 32 30 25 24 24 25 24 26 26 26 29 29 30 32 30 33 33 35 36 35 35 41 43 37 33 30 26 25 22 22 19 17 18 15 12 13 23 17 17 17 14 13 14 15
36 32 29 24 21 22 24 23 23 25 27 28 30 30 32 32 32 33 35 38 38 36 39 43 42 33 29 29 29 28 28 25 21 17 22 22 24 18 19 20 16 15 12 12 14
33 29 24 22 20 23 25 24 22 21 21 28 30 30 30 33 33 34 34 38 39 38 38 42 41 36 35 33 30 29 27 25 20 18 22 21 22 21 21 22 20 16 11 12 12
29 25 23 20 21 23 19 16 16 15 14 23 29 29 29 33 33 34 35 35 39 39 38 36 38 42 39 35 32 29 28 26 23 22 19 18 23 28 24 24 23 17 11 12 15
26 24 20 17 21 18 14 12 12 12 10 16 23 28 31 35 35 36 37 38 38 38 38 37 39 41 42 38 34 31 30 28 28 28 23 21 12 25 26 23 22 17 13 11 14
25 22 17 16 19 14 12 12 5 10 11 10 17 24 30 33 37 38 38 40 39 38 38 38 38 41 41 38 35 32 33 31 31 29 27 25 15 30 29 28 15 15 15 13 13
25 19 15 16 17 14 12 7 8 7 8 6 6 14 22 31 36 39 40 41 42 40 39 39 39 41 41 38 36 36 36 34 32 33 29 25 19 20 14 21 21 19 18 14 16
22 15 13 15 15 13 10 7 4 3 3 5 2 6 14 24 30 38 41 43 44 42 42 40 41 42 41 41 40 41 38 38 36 36 32 28 22 14 15 17 16 17 21 20 24
18 12 14 13 13 11 9 6 6 7 7 2 4 1 7 15 24 32 40 43 45 44 41 42 42 44 42 40 39 41 40 41 41 40 33 28 30 25 21 20 18 17 20 23 22
14 11 13 12 11 9 9 8 8 9 9 10 5 8 8 9 16 26 36 40 44 45 43 43 41 40 41 41 40 41 43 40 40 37 35 36 29 27 24 23 20 16 19 19 21
10 10 11 10 10 7 10 9 11 10 12 12 5 9 13 10 12 23 29 36 42 44 44 43 42 41 39 41 43 40 39 41 43 41 37 36 34 27 24 24 22 18 20 22 21
8 8 8 8 8 7 9 10 10 16 12 11 9 11 13 12 13 21 26 29 37 40 42 42 42 42 38 40 41 43 42 41 43 41 37 36 32 23 22 24 22 24 21 21 20
6 7 6 7 5 6 8 11 13 11 14 10 9 13 11 9 13 25 22 23 29 31 33 37 36 39 41 39 37 40 42 41 41 43 40 37 33 25 23 23 23 24 22 25 24
6 5 3 4 3 5 8 11 13 12 7 8 8 12 11 9 16 18 23 21 24 24 27 32 32 34 38 38 36 38 41 43 42 41 40 37 33 30 22 24 24 21 27 25 27
6 3 1 3 3 6 7 10 12 14 5 5 8 14 19 16 18 21 17 22 19 22 27 29 30 32 35 40 39 39 39 41 42 40 41 38 36 32 27 25 25 24 23 24 27
6 3 4 4 4 6 8 9 11 13 4 4 7 11 18 23 11 13 19 21 22 21 27 30 32 31 34 36 37 37 36 37 40 41 40 40 38 36 34 30 28 29 26 24 26
8 5 5 2 4 5 8 9 7 8 5 3 5 6 14 21 18 11 10 16 14 21 16 30 29 36 29 33 36 37 36 37 37 36 37 39 39 38 39 36 34 31 33 33 31
10 7 5 2 3 5 7 8 7 7 6 1 4 3 6 11 18 18 17 13 11 20 20 16 37 24 42 30 34 36 38 39 39 37 36 35 35 36 40 40 40 39 36 36 35

GFSSW_500_spd_096.txt.gz
Wind_Speed
11 11 11 12 12 13 14 14 17 19 21 21 20 18 17 19 19 18 13 13 10 12 19 21 20 16 12 10 7 6 4 5 11 23 20 15 14 16 17 17 16 14 13 14 16
11 11 11 12 13 14 14 15 15 17 21 22 23 22 21 20 20 19 16 15 13 14 21 24 21 19 14 13 10 8 6 7 14 23 22 17 17 19 18 18 16 13 10 9 14
16 15 15 16 16 16 17 17 16 15 17 21 24 25 24 23 22 19 19 17 15 16 21 22 19 17 15 14 13 10 8 7 11 18 20 17 14 17 18 17 16 19 13 10 15
19 17 16 17 17 17 19 20 20 18 17 18 23 26 26 26 24 21 20 18 16 16 23 24 21 18 18 16 14 11 9 7 11 15 19 18 16 14 15 17 17 15 19 14 14
22 22 21 20 20 19 20 21 22 22 21 19 20 24 27 28 26 25 23 20 19 19 27 26 24 22 19 18 15 12 9 9 10 11 20 18 17 16 15 16 18 15 14 15 16
27 26 25 23 22 21 22 24 25 25 25 23 23 22 26 28 29 27 25 23 22 22 31 28 26 23 22 18 17 15 11 11 11 11 17 20 19 15 14 15 17 19 16 16 14
32 30 28 25 25 25 25 27 27 28 28 28 27 26 26 27 29 29 27 27 25 25 34 31 29 25 25 20 17 15 15 14 12 13 14 18 18 23 15 15 17 18 17 15 13
34 32 30 27 27 27 27 29 30 31 31 31 30 30 29 27 28 30 30 29 28 27 36 34 31 27 27 22 22 21 14 13 14 16 17 18 17 22 23 17 15 17 18 17 16
36 34 31 28 27 27 27 28 29 31 30 30 31 31 32 29 30 30 32 32 32 33 37 35 31 28 27 23 20 20 19 18 18 18 22 21 20 20 21 17 15 18 18 17 17
37 35 32 28 26 25 24 24 25 26 26 26 30 30 32 32 31 32 32 33 33 34 39 41 34 30 29 27 23 24 24 22 19 18 16 18 22 24 26 21 19 17 19 19 19
36 34 29 26 24 23 23 22 22 22 24 26 29 30 29 32 33 33 32 35 35 36 40 42 39 31 27 30 28 32 29 23 22 26 13 17 7 28 25 22 21 18 19 19 17
35 30 26 24 21 18 21 19 17 14 15 22 27 28 29 30 33 32 33 34 34 36 38 41 40 34 37 31 28 29 15 21 24 20 16 14 10 13 13 27 24 21 17 15 16
32 26 25 21 16 18 18 15 14 11 10 12 20 26 29 31 35 34 34 34 35 35 37 38 36 44 35 32 29 28 25 26 24 17 16 15 17 15 16 23 24 22 19 18 18
28 24 23 16 14 17 14 12 12 10 11 8 14 22 27 31 33 35 36 37 36 34 36 38 41 39 40 36 32 30 31 29 27 25 23 21 15 18 30 26 27 21 17 19 18
25 23 20 14 13 15 13 11 7 11 8 5 8 17 24 29 32 35 36 38 37 37 35 39 39 39 41 38 36 37 33 31 27 25 31 23 16 14 24 31 29 23 18 17 19
23 21 15 12 12 14 12 9 7 9 7 4 5 14 20 27 31 34 37 39 41 39 36 40 39 40 38 43 38 35 34 33 29 27 27 23 24 20 22 27 30 24 16 16 15
22 19 14 11 11 12 10 8 5 5 6 3 2 9 18 22 28 31 36 39 38 39 40 40 38 41 41 39 40 37 36 35 31 23 16 22 18 22 21 11 6 11 15 12 16
20 14 12 8 9 10 7 7 4 4 6 8 2 6 11 18 22 27 32 36 41 42 38 41 40 43 43 41 39 39 37 31 30 22 21 29 23 17 12 10 12 11 12 7 13
16 11 9 5 7 6 5 5 4 4 7 5 8 8 7 10 15 22 27 30 37 39 40 44 40 42 43 40 41 41 43 37 30 24 21 26 29 20 22 20 16 12 12 15 19
13 8 7 4 4 4 5 7 7 8 5 7 5 10 8 9 8 11 24 28 26 42 45 44 42 43 40 42 41 42 40 39 40 26 23 20 23 21 26 23 21 15 15 19 21
9 6 6 3 3 2 5 8 8 10 11 6 7 8 14 11 9 13 20 28 31 35 42 43 41 40 39 41 42 42 38 42 31 30 22 22 18 30 26 24 24 21 20 24 26
7 6 5 2 2 1 4 6 8 11 13 7 7 9 12 10 9 13 17 20 26 31 35 40 35 28 41 40 40 42 39 38 36 29 32 22 22 26 26 23 26 26 25 23 29
6 7 4 3 3 2 6 8 8 10 10 5 7 9 11 11 10 13 18 19 21 27 32 32 35 28 34 41 38 37 38 39 29 27 28 28 23 27 21 24 24 27 24 28 23
7 7 5 3 2 3 6 7 9 10 11 5 7 7 10 13 11 10 16 22 22 23 26 30 30 29 25 31 30 41 38 38 39 27 24 25 24 29 25 21 25 27 22 27 28
8 9 6 3 2 3 6 7 8 10 12 6 8 8 11 16 18 19 19 21 27 32 27 28 30 28 34 29 36 36 35 35 35 29 24 22 27 32 31 24 25 27 27 22 23
11 10 9 5 2 4 6 6 8 8 10 6 7 7 6 8 13 16 20 23 22 28 35 31 29 32 30 34 33 32 31 32 34 35 35 35 30 28 30 29 27 28 29 28 26
13 12 9 6 4 5 4 5 7 6 6 5 6 5 4 5 9 12 6 4 21 22 23 31 31 32 32 32 30 30 34 34 35 33 33 29 36 35 33 30 30 31 30 31 32

GFSSW_500_spd_099.txt.gz
Wind_Speed
8 8 7 9 11 12 12 12 14 17 19 20 20 20 20 18 16 16 13 14 11 11 13 18 21 16 12 11 7 4 4 3 8 19 16 15 16 18 16 15 15 13 11 12 14
13 11 9 9 10 12 14 16 16 16 18 21 23 23 23 22 19 17 17 16 15 14 14 19 23 19 14 12 10 6 2 4 18 23 17 17 19 19 18 15 13 12 10 8 13
18 18 17 16 16 14 13 14 17 18 18 19 23 25 26 26 24 18 19 18 16 16 14 18 24 20 14 15 13 9 5 10 16 22 19 16 17 19 19 18 16 15 12 9 10
21 21 20 19 18 18 18 17 17 19 20 21 21 23 27 28 29 23 22 20 18 17 15 21 26 21 18 19 16 11 9 11 13 22 18 15 16 15 17 17 16 14 15 13 10
22 23 23 20 19 20 20 20 20 21 23 25 25 24 26 29 30 27 25 23 21 19 18 25 29 25 22 21 19 15 11 11 15 19 20 14 14 17 17 17 16 14 12 13 12
26 26 26 25 24 21 22 22 23 25 26 28 29 29 27 31 25 29 27 25 25 23 21 27 31 27 21 22 21 17 14 14 14 14 19 17 15 14 17 16 17 18 16 15 12
29 30 29 28 27 25 24 23 25 28 30 33 33 32 30 31 28 29 29 28 28 27 26 31 34 27 25 24 23 20 18 16 16 13 19 26 19 15 15 18 19 19 18 16 11
32 34 34 34 31 28 25 24 27 29 33 33 34 33 35 27 29 30 30 30 30 30 30 32 34 30 25 24 24 21 21 19 19 17 15 22 17 20 16 16 19 20 19 16 13
35 36 36 35 32 28 25 24 25 27 29 30 31 32 34 32 30 31 31 31 32 31 32 35 34 29 27 28 27 23 23 20 19 20 21 23 23 23 23 19 21 20 20 18 16
36 37 35 32 29 27 24 23 23 24 26 27 26 29 32 35 32 31 31 31 32 32 35 39 36 31 28 31 21 25 25 24 21 20 21 27 33 24 27 25 22 22 22 21 20
36 35 34 30 28 24 21 20 21 21 23 24 25 29 27 29 33 32 32 32 32 34 35 41 38 36 27 26 29 24 31 36 27 28 26 22 22 23 24 29 24 22 22 22 21
34 32 29 28 25 21 19 18 16 16 15 16 22 26 28 29 33 34 32 32 33 33 35 41 41 34 31 31 36 27 26 26 31 30 24 19 19 26 18 27 24 23 21 22 21
32 29 26 25 21 18 17 14 13 15 15 14 14 22 27 29 31 34 33 34 33 34 36 36 35 35 38 40 32 31 30 32 21 19 23 20 17 9 26 12 33 25 24 22 21
27 26 24 21 18 16 13 10 11 10 14 10 9 15 23 27 30 33 35 34 34 34 36 34 34 40 46 36 32 17 30 38 21 24 20 19 14 8 12 12 29 26 24 22 22
24 24 22 18 14 11 9 9 8 10 4 16 12 10 18 24 35 30 33 36 36 34 36 35 37 43 44 35 34 34 21 27 9 16 16 19 12 19 21 18 31 32 24 22 20
23 22 20 16 11 8 7 7 6 10 7 11 8 7 14 22 25 33 35 34 37 37 36 28 39 41 40 38 40 40 32 23 21 23 15 16 21 22 18 10 35 33 25 26 23
23 20 16 14 7 5 6 6 8 5 8 8 3 4 7 10 19 27 31 34 36 37 37 40 41 39 38 40 44 44 31 14 16 18 8 21 18 27 27 19 27 30 25 27 24
22 18 14 12 4 4 3 2 6 6 5 9 6 4 8 12 10 23 27 31 34 34 19 36 36 35 38 40 42 38 31 20 11 13 17 14 12 18 22 24 14 16 23 21 16
21 16 12 8 3 2 1 12 11 6 7 8 7 2 8 14 12 14 18 22 24 36 21 20 24 32 39 39 38 38 39 23 18 19 21 20 18 19 18 13 11 8 4 14 5
18 13 11 6 4 3 4 4 7 9 8 7 3 7 7 9 11 13 14 17 19 27 32 16 23 27 35 39 40 32 30 33 28 13 21 15 17 17 19 18 15 14 14 10 14
15 11 9 6 5 3 6 15 7 7 10 11 10 10 13 10 13 12 19 26 29 29 36 25 30 26 33 39 38 39 37 31 27 27 20 16 13 20 14 25 23 18 15 15 15
12 11 8 6 6 4 6 7 9 13 12 13 13 13 14 25 13 15 15 27 35 19 15 40 12 21 25 27 37 27 34 27 30 25 27 22 25 26 20 23 24 22 20 19 21
10 10 8 8 5 7 9 10 12 14 14 12 7 12 14 13 15 22 26 21 21 28 30 25 32 25 20 23 29 35 33 35 23 26 25 25 30 34 23 18 28 28 25 25 23
9 10 8 10 6 9 8 9 13 11 12 9 7 6 7 5 12 16 19 24 25 30 35 35 25 29 23 24 23 34 34 27 27 23 23 19 31 34 27 20 24 30 29 29 27
9 12 12 9 8 8 6 8 10 13 12 8 4 6 7 10 10 12 16 16 23 22 26 32 30 24 28 29 21 26 29 27 31 28 24 23 25 37 40 33 26 31 29 28 26
12 15 14 11 7 6 6 8 9 10 9 8 5 4 6 10 12 19 15 13 20 27 27 29 28 29 24 23 25 24 26 24 24 27 26 23 34 7 31 33 30 31 32 30 24
14 18 16 13 8 6 9 7 7 8 6 6 4 6 8 6 9 14 9 5 23 18 29 29 33 25 25 32 18 21 24 29 24 25 27 25 29 41 35 34 35 31 32 32 32

GFSSW_500_spd_102.txt.gz
Wind_Speed
9 10 9 8 9 9 10 12 13 12 14 16 18 19 18 17 15 13 12 14 13 12 11 13 17 16 12 10 7 2 7 15 26 17 11 13 13 13 12 11 9 7 9 9 10
15 14 14 14 14 14 11 9 10 13 15 16 17 19 21 21 19 17 15 15 15 15 14 14 17 18 14 12 7 5 5 6 24 18 13 14 16 16 15 11 10 8 8 8 9
16 16 17 16 15 13 16 14 13 12 13 17 19 19 21 23 24 18 21 18 17 16 15 15 18 20 17 15 12 10 11 9 19 16 15 13 16 17 14 13 13 11 9 7 5
18 18 18 18 16 16 15 15 17 16 16 17 19 21 22 24 28 23 24 22 20 18 16 16 20 22 20 18 15 12 1 7 9 15 16 11 16 15 16 16 12 11 11 10 5
20 20 21 20 20 21 18 16 14 14 17 20 22 23 25 28 30 28 28 26 23 22 20 20 23 25 23 20 18 13 9 9 12 19 15 12 14 15 16 16 13 10 9 10 9
23 26 27 27 27 25 23 19 17 17 20 24 26 30 31 31 28 28 31 29 27 26 24 22 25 29 24 23 21 17 12 11 16 15 15 15 14 17 12 13 14 14 12 11 10
26 29 29 31 30 28 25 24 22 21 23 28 32 35 35 37 26 30 30 32 31 29 27 26 27 31 28 27 23 21 17 14 11 18 21 18 17 15 20 17 17 17 15 13 11
29 29 30 32 33 30 27 25 25 25 27 30 34 36 38 34 29 32 32 34 33 32 30 30 30 33 31 28 26 26 20 16 17 21 16 18 23 17 16 16 17 18 17 15 12
31 31 32 34 34 30 28 26 26 26 26 27 29 31 36 31 32 32 31 33 34 34 33 33 30 33 32 28 28 26 21 21 24 24 18 16 19 17 19 17 18 19 19 17 15
31 31 31 32 31 28 27 26 25 25 26 26 26 28 30 31 32 33 31 33 34 35 34 32 35 35 32 31 31 26 22 26 22 32 20 18 22 23 22 22 20 21 22 20 17
28 29 29 29 27 27 26 25 25 23 23 24 24 26 28 26 27 31 32 31 34 34 34 34 38 37 33 28 31 31 22 31 32 30 24 24 26 27 24 26 26 24 23 23 21
27 28 27 26 25 24 23 23 22 20 21 18 20 19 23 24 26 31 32 32 34 32 32 36 40 36 28 13 24 37 41 38 39 22 32 26 27 31 32 35 29 23 20 24 22
28 27 25 24 22 21 20 18 17 18 20 18 16 16 17 22 26 31 32 31 32 32 33 35 36 33 31 27 22 23 35 40 35 37 19 31 32 24 22 30 34 30 26 26 24
26 26 24 22 20 19 16 13 15 15 18 16 15 13 10 17 22 28 31 31 32 32 33 33 32 32 32 32 32 21 21 30 30 21 16 29 22 20 20 22 20 36 30 32 25
24 23 23 22 19 17 12 11 12 13 7 11 23 16 7 16 23 26 29 32 33 31 33 32 35 33 30 27 29 26 28 29 25 15 15 15 19 16 19 10 9 42 31 29 33
23 22 22 19 16 12 7 8 8 6 4 13 18 13 3 12 16 25 29 31 33 35 34 35 32 37 26 28 31 29 21 26 24 27 5 2 5 15 12 13 12 37 34 28 27
22 22 21 17 12 9 5 4 7 12 14 4 8 14 9 2 9 21 26 30 33 34 35 32 35 31 32 31 30 30 20 14 19 16 15 8 0 9 15 17 22 25 40 32 27
21 22 19 14 10 6 4 8 7 6 5 14 12 8 6 5 5 19 18 26 31 33 18 29 35 38 37 34 21 26 21 22 11 16 16 12 20 9 18 16 21 21 29 30 34
21 21 18 12 6 4 2 1 0 2 13 8 1 8 9 5 14 15 10 19 25 29 22 11 19 18 27 31 29 21 29 24 17 10 5 16 6 8 9 13 26 24 29 28 37
21 19 14 9 5 4 3 8 6 11 12 8 1 8 12 10 6 10 11 9 15 18 28 19 18 21 25 29 35 32 10 26 30 17 10 12 17 2 3 5 2 5 7 6 21
21 16 12 6 5 4 5 3 12 14 9 9 11 9 14 19 18 13 21 24 27 29 30 24 16 14 25 28 30 33 30 20 26 23 22 14 17 6 7 11 10 15 11 9 14
19 16 9 5 7 5 10 9 13 17 14 12 11 15 13 25 21 20 30 30 29 38 30 36 20 15 22 19 24 24 20 18 20 29 22 18 21 26 24 20 16 16 19 20 15
16 13 8 6 8 9 16 16 14 16 14 12 11 9 18 19 21 16 20 34 27 30 33 34 39 30 10 16 15 24 25 21 18 22 25 21 30 35 32 17 17 19 20 23 26
13 10 4 8 10 6 10 12 11 11 12 11 12 9 8 9 17 25 22 31 25 31 39 32 42 39 19 23 20 20 24 20 21 18 18 15 28 32 31 21 12 17 24 25 24
11 8 10 6 11 11 15 14 14 10 14 12 6 6 10 17 16 12 24 24 23 15 23 31 28 35 22 22 31 20 17 24 18 22 13 21 26 30 27 30 28 22 23 29 26
15 17 15 12 18 13 11 13 11 11 10 6 7 7 7 6 21 20 14 4 14 17 25 27 31 40 43 18 26 23 17 20 18 21 19 28 34 35 15 33 26 27 23 28 28
19 14 16 21 13 9 8 17 11 9 10 9 7 7 7 7 13 11 15 22 22 11 20 27 36 42 40 23 18 12 28 24 24 33 27 33 26 24 42 28 15 16 23 26 28

GFSSW_500_spd_105.txt.gz
Wind_Speed
14 14 13 12 12 11 10 7 7 8 10 11 11 13 14 15 13 12 11 12 11 13 11 13 13 15 14 10 8 7 13 6 16 10 11 10 15 8 8 7 8 7 7 8 11
15 15 15 14 12 11 12 10 10 9 9 10 10 12 14 16 17 16 15 14 13 14 14 15 15 15 16 11 10 9 12 11 19 16 15 11 13 12 10 9 10 9 8 8 9
14 14 14 15 14 13 12 9 11 10 10 11 11 12 14 15 18 19 21 18 16 15 15 16 17 16 18 14 13 12 11 15 27 24 20 16 14 12 10 9 10 7 7 7 6
12 14 15 16 15 14 14 12 8 7 8 9 11 13 15 17 16 21 22 22 20 19 18 18 17 19 20 19 17 16 8 5 19 23 17 10 14 15 15 12 10 8 5 7 6
13 16 19 20 20 20 19 16 13 9 9 11 13 14 16 18 19 22 24 26 24 23 22 21 21 21 22 22 18 11 9 6 8 32 30 16 14 13 14 10 8 6 4 6 6
17 19 21 22 22 24 23 20 17 15 14 14 16 18 24 26 23 22 28 29 29 27 26 24 23 23 24 22 20 15 10 6 13 31 27 10 14 14 17 11 13 10 6 5 4
21 22 24 24 24 25 25 24 20 18 17 18 20 25 30 33 30 26 31 32 32 31 30 28 28 27 25 26 22 14 15 11 13 24 17 13 13 14 11 14 14 12 10 8 6
22 24 26 26 27 26 26 24 23 20 21 20 21 26 32 34 34 32 34 33 34 34 33 32 32 29 28 28 27 24 16 11 12 18 15 27 15 13 18 15 11 13 11 11 10
23 24 25 26 27 26 26 24 24 24 23 21 23 25 26 29 30 32 33 32 35 35 35 35 34 32 31 30 29 22 18 14 10 15 37 14 19 21 17 17 17 15 13 13 13
24 23 23 25 25 24 24 24 24 24 23 22 22 25 24 26 25 29 33 34 35 36 37 37 34 33 32 33 31 27 22 15 17 31 38 15 17 19 22 19 19 18 18 17 15
23 22 23 23 24 24 23 22 23 22 22 20 21 22 24 23 21 24 30 34 34 37 35 32 35 35 32 29 26 28 28 22 18 20 31 24 22 23 31 20 14 15 21 20 18
22 22 21 21 22 22 22 22 22 20 15 18 19 21 20 19 19 24 30 33 32 33 31 35 35 34 30 29 26 29 32 33 38 32 42 27 23 27 28 22 20 20 22 25 24
22 22 22 21 20 21 21 19 20 20 17 16 13 15 14 15 17 24 27 31 31 30 30 34 28 29 26 32 28 27 27 33 38 41 24 34 33 29 32 26 24 23 22 26 22
22 23 22 20 20 20 18 19 15 16 18 18 13 12 14 11 14 19 24 28 30 30 29 30 27 33 24 26 26 26 18 22 33 46 37 30 32 35 29 24 19 26 33 29 27
23 24 21 20 20 18 16 15 12 12 14 15 19 19 15 7 10 15 20 26 29 30 28 26 25 30 29 14 30 28 20 18 23 25 24 21 25 41 35 23 19 17 33 37 30
24 22 20 20 18 16 14 9 10 7 16 15 18 17 16 7 7 9 17 24 27 31 32 28 28 28 22 13 26 27 23 19 21 26 19 3 11 20 18 17 16 15 23 40 30
25 21 20 20 15 13 7 8 5 8 11 10 15 16 18 12 6 5 7 20 26 28 30 29 31 30 20 17 23 35 21 20 6 10 23 12 7 11 11 3 6 15 12 37 33
25 19 19 18 14 9 5 5 2 8 3 5 7 4 8 8 5 8 12 15 23 25 27 21 23 28 30 31 23 37 19 12 11 10 13 28 20 11 10 2 5 16 18 37 35
24 19 19 17 12 7 6 8 5 4 10 11 5 9 10 9 10 11 14 5 16 21 24 13 11 10 16 21 26 23 24 18 25 6 8 5 9 3 7 4 5 8 16 35 34
22 19 18 12 9 6 6 8 8 7 10 8 7 5 14 10 11 5 11 7 9 5 18 20 15 20 15 13 19 24 16 21 22 18 20 17 4 7 14 9 9 9 5 25 36
21 18 15 10 8 8 6 4 7 14 6 9 10 9 16 16 11 17 18 20 17 16 19 29 24 23 24 24 20 31 25 21 22 23 20 17 18 11 6 10 15 13 13 4 26
20 16 14 9 8 11 6 14 5 15 18 15 13 13 13 21 23 22 22 23 28 29 27 33 27 27 23 18 21 20 31 21 18 19 24 23 23 13 5 9 6 15 15 15 14
21 16 13 7 10 9 10 9 10 16 20 18 12 15 17 25 28 23 33 29 28 35 35 30 28 30 28 24 11 9 26 35 28 25 25 23 26 19 12 11 7 8 12 16 15
21 16 11 7 9 8 9 3 7 22 17 15 11 14 12 13 22 17 28 25 35 29 30 32 34 28 29 21 21 21 17 27 30 33 29 25 23 21 19 14 9 11 14 27 28
23 22 21 13 13 16 18 11 17 19 23 15 12 9 9 19 20 20 21 17 29 30 21 34 29 37 26 17 17 25 18 24 25 26 19 21 22 26 27 24 17 20 15 13 22
24 20 19 16 15 13 18 14 16 19 14 13 13 10 14 15 18 12 19 9 12 14 17 22 33 37 47 33 21 21 21 26 25 25 18 22 22 24 24 16 23 24 29 26 21
21 11 12 17 19 13 11 15 18 10 13 12 10 9 16 13 9 9 8 5 4 14 15 22 23 35 35 45 28 33 28 25 21 28 18 27 24 26 27 26 29 32 31 26 25

GFSSW_500_spd_108.txt.gz
Wind_Speed
13 13 13 11 10 9 10 7 6 4 3 4 6 9 12 12 13 13 11 12 9 12 13 12 10 13 13 12 6 7 12 9 11 11 11 8 9 9 6 7 8 6 8 8 13
10 10 11 10 9 8 8 7 7 7 6 5 4 6 9 13 16 17 16 15 12 12 14 16 12 13 14 11 10 10 11 10 13 17 15 13 17 8 9 5 7 7 6 8 10
8 7 8 9 9 9 9 7 6 5 4 4 5 6 7 10 14 17 19 18 16 15 16 17 14 10 13 15 14 11 14 26 24 17 14 11 14 9 7 11 8 8 5 7 9
6 7 9 11 11 12 12 11 7 5 4 5 5 7 9 11 12 15 20 21 20 19 18 19 19 15 14 17 15 9 11 16 10 15 13 14 14 12 9 10 9 7 4 6 10
12 13 13 14 14 15 15 14 12 11 9 8 10 11 10 13 15 18 21 24 24 24 23 22 22 20 16 19 20 15 7 13 13 22 21 16 15 15 11 10 9 7 6 5 8
15 16 16 16 17 17 17 18 17 15 13 11 12 13 16 21 18 21 24 27 27 28 27 24 25 26 21 23 21 20 12 10 24 31 32 18 12 11 12 14 10 11 9 7 10
17 17 18 19 19 19 20 21 21 17 17 16 15 17 18 23 24 24 30 30 31 31 30 29 31 28 25 22 24 22 5 11 13 25 37 21 14 13 12 15 11 13 10 9 11
21 22 22 22 22 20 19 19 19 20 19 19 19 18 22 22 25 29 35 32 33 33 34 33 33 32 27 24 23 21 16 12 11 14 26 17 18 12 13 16 14 10 9 8 9
19 20 21 20 19 18 18 19 19 19 19 19 19 20 20 20 22 24 25 34 34 35 35 37 37 35 32 26 25 24 13 16 9 11 20 21 23 12 12 15 14 10 11 7 8
19 19 18 18 18 17 18 19 19 19 19 20 19 19 21 19 21 22 22 28 31 37 40 39 36 35 32 27 23 23 26 22 16 31 18 18 16 15 11 18 17 17 16 12 10
18 17 16 18 19 19 19 19 19 20 19 18 19 21 20 17 21 23 24 27 31 37 36 38 36 32 27 24 32 32 30 24 16 16 30 20 19 17 15 16 17 17 17 13 14
19 17 18 19 21 21 20 19 19 17 17 18 20 22 20 18 22 23 27 29 31 34 34 35 32 27 28 32 35 32 28 29 31 25 28 28 28 19 17 19 17 16 16 14 18
19 19 20 21 22 20 21 21 19 17 13 16 17 17 18 18 17 20 24 28 29 31 31 31 26 28 30 32 30 28 23 29 34 31 33 18 41 22 19 15 21 17 20 16 18
19 20 22 22 20 19 20 20 20 16 15 12 11 13 13 11 11 14 22 27 28 28 30 27 26 26 30 29 26 29 26 23 21 34 31 37 28 41 32 29 27 20 19 18 13
20 21 23 23 18 17 19 17 15 15 12 13 13 15 13 6 3 7 16 20 24 27 31 28 27 24 28 25 24 26 27 22 16 19 24 30 39 39 49 29 22 18 20 25 22
20 22 22 19 17 18 16 13 13 11 10 13 15 10 10 10 5 5 13 16 21 24 27 27 28 27 28 22 19 22 23 33 13 15 17 19 37 24 31 31 26 28 24 25 22
22 22 20 17 17 16 14 11 11 10 7 7 10 10 7 9 8 4 4 7 15 18 20 27 29 30 28 25 21 23 23 26 2 2 5 14 14 7 25 30 39 31 23 15 25
24 22 19 17 17 13 9 11 10 11 13 6 8 10 5 5 6 6 8 5 9 14 16 22 29 27 25 22 21 21 10 15 13 2 3 6 21 14 16 34 28 30 34 22 23
23 23 19 17 14 10 9 11 11 10 5 5 10 11 12 12 8 4 0 5 7 10 15 18 28 35 21 16 23 19 15 15 15 5 2 3 18 23 16 24 15 15 22 23 32
21 22 20 17 13 8 11 14 14 11 8 4 6 14 8 6 15 13 13 14 11 21 22 22 32 33 34 19 16 22 19 22 22 19 16 11 1 1 9 14 13 13 14 20 33
23 21 21 16 13 11 16 15 12 13 5 4 7 13 21 17 14 15 15 17 19 16 25 26 28 26 25 27 21 21 22 18 17 13 18 17 20 14 2 8 0 16 10 24 38
23 22 20 16 15 12 16 13 12 15 8 8 7 13 21 26 25 19 24 19 20 23 28 33 28 30 24 20 21 19 21 18 17 12 16 16 16 6 2 3 9 11 16 18 32
23 24 19 16 16 10 17 18 17 14 13 12 12 17 20 24 24 25 23 27 29 27 29 34 29 26 28 21 21 23 30 27 25 21 16 18 18 17 11 4 4 9 12 17 17
22 23 19 15 13 12 14 17 17 15 14 9 13 13 21 23 20 16 12 17 36 30 36 30 30 31 30 31 29 26 31 37 30 25 23 20 20 21 24 12 8 10 13 16 15
21 18 15 12 13 18 16 18 18 13 19 18 15 11 16 15 13 12 13 11 22 33 30 32 32 37 34 34 27 27 31 33 37 34 32 25 26 26 25 28 22 14 16 15 18
21 18 15 14 15 14 19 17 15 20 20 19 17 15 16 13 12 8 6 3 4 19 17 24 36 39 32 37 33 31 33 37 39 37 35 32 29 27 30 25 26 26 11 15 19
22 21 18 20 16 15 24 20 19 16 11 15 13 18 13 11 8 9 4 7 3 10 18 18 23 38 42 35 19 20 35 32 32 28 33 33 31 29 30 23 21 17 14 15 18

GFSSW_500_spd_111.txt.gz
Wind_Speed
9 9 9 8 6 5 5 4 3 2 3 5 7 8 11 13 14 12 12 12 11 13 15 13 8 7 8 8 8 5 4 4 10 9 12 9 9 6 3 6 7 6 5 7 10
6 6 7 7 7 6 7 6 6 6 5 4 6 7 10 12 16 15 17 15 13 13 16 16 11 7 6 8 10 8 10 12 10 16 11 11 15 11 8 9 7 6 6 7 8
5 4 4 6 6 6 6 7 7 6 6 7 7 8 9 11 13 15 18 17 17 16 16 17 13 9 7 10 8 10 10 17 23 17 16 13 15 12 10 10 7 7 6 8 7
7 9 10 9 9 9 10 10 8 7 6 7 9 10 11 14 14 16 18 20 20 20 20 19 17 14 11 13 14 14 11 13 14 15 14 15 15 11 11 10 8 6 8 9 5
13 13 13 13 13 12 11 12 11 10 8 9 12 11 15 16 17 18 20 21 22 23 23 22 22 19 16 13 16 17 13 10 10 12 12 14 13 15 18 12 10 8 9 7 7
15 16 16 16 16 16 15 14 14 15 13 12 13 14 17 21 19 21 21 23 25 26 25 24 28 26 20 16 17 15 17 12 13 7 16 15 16 15 14 11 10 8 9 6 7
14 15 17 18 19 20 20 18 17 16 17 16 16 18 20 24 23 24 26 27 27 27 27 30 31 31 24 17 19 16 17 17 11 15 23 23 18 20 17 18 13 10 12 8 9
17 18 18 19 19 18 16 15 14 16 18 19 19 20 21 23 25 27 30 31 30 29 32 33 34 33 30 22 20 19 19 18 14 17 14 26 21 17 15 16 13 13 15 14 11
17 19 19 19 17 16 15 15 17 19 20 20 20 20 20 19 22 24 29 30 31 33 35 37 36 36 33 25 21 22 23 21 21 20 15 32 24 16 17 16 20 17 16 15 10
22 20 20 18 17 15 16 18 19 20 21 21 21 19 18 19 21 22 27 25 28 32 35 35 35 37 34 23 23 27 26 24 12 16 19 29 30 23 22 18 19 17 15 19 15
26 25 22 19 17 18 19 21 20 21 22 22 21 20 20 19 21 20 21 24 25 29 31 34 33 31 27 27 28 33 31 27 18 26 16 33 33 23 22 23 24 12 12 14 16
26 26 24 20 19 19 21 19 20 20 21 23 22 21 19 17 19 22 22 25 27 28 32 30 25 27 32 33 32 34 28 28 26 26 19 24 28 37 26 21 23 15 14 13 18
24 24 23 20 19 20 20 19 19 20 19 19 20 21 22 21 17 20 23 26 27 29 28 26 26 32 33 33 33 32 32 29 31 32 21 29 22 46 24 24 22 16 15 14 14
25 24 21 20 20 21 19 19 19 19 15 16 18 18 15 17 19 19 20 21 23 28 28 28 30 29 32 31 30 31 32 30 21 28 25 31 26 39 44 26 28 19 22 16 12
23 21 19 18 20 20 19 20 20 15 11 15 16 15 11 9 13 13 13 15 22 27 27 27 29 29 29 26 30 32 30 25 28 18 21 24 25 33 46 29 29 24 16 18 15
20 19 19 19 17 16 17 19 17 11 11 13 11 9 8 1 3 8 9 11 18 21 19 22 26 27 26 30 30 31 29 25 25 11 15 17 20 25 28 30 40 32 30 20 23
20 19 20 20 16 16 17 18 15 10 12 13 10 4 6 2 4 4 2 10 12 15 16 19 27 27 29 30 30 29 25 20 18 16 9 10 17 16 21 35 39 37 25 27 23
19 18 18 18 16 16 16 16 14 10 11 17 16 9 4 4 4 9 6 9 10 12 15 20 29 32 30 27 19 23 27 27 24 13 3 4 11 14 9 27 37 40 30 32 19
18 19 18 18 16 15 15 17 14 11 12 15 14 9 9 10 8 5 4 8 15 20 20 23 30 32 29 23 22 16 19 23 24 25 13 7 6 17 10 8 27 41 40 32 30
23 23 20 19 15 15 16 17 13 12 11 15 14 9 7 12 10 11 12 10 12 18 18 23 34 30 34 27 27 20 14 18 17 16 16 10 10 4 7 10 29 37 34 30 35
24 23 22 18 17 14 15 15 15 15 13 18 17 15 12 13 15 15 18 17 18 16 26 24 37 32 28 28 23 27 28 25 20 16 24 16 9 18 12 6 3 16 31 29 28
25 21 21 18 17 14 14 16 18 18 18 16 15 18 16 15 15 17 18 21 21 22 28 31 33 37 36 27 25 19 22 23 22 17 17 18 10 14 4 4 9 11 16 23 29
26 21 19 17 13 13 14 17 19 22 20 20 23 16 17 17 16 15 15 16 27 26 30 35 35 38 39 39 32 26 24 25 20 19 19 22 15 16 14 6 1 5 12 10 17
25 23 17 15 12 15 16 18 23 25 24 26 11 15 14 16 10 8 10 14 20 32 33 34 36 32 37 34 34 33 27 28 25 23 21 22 17 15 14 16 11 9 6 7 6
22 21 18 15 14 14 15 20 23 23 23 22 13 11 12 9 8 10 12 12 13 21 34 37 38 38 41 36 33 36 30 31 31 28 25 19 17 14 13 17 15 16 9 9 9
23 21 20 19 17 17 18 27 24 20 22 18 14 13 12 8 6 12 11 10 13 16 24 38 33 40 38 37 44 40 30 25 29 32 31 27 24 20 19 17 16 17 20 12 9
27 25 23 21 21 19 22 23 19 19 21 16 14 17 13 9 11 15 13 12 11 12 17 15 19 31 38 44 42 42 31 25 25 34 36 36 33 28 24 23 25 20 17 18 15

GFSSW_500_spd_114.txt.gz
Wind_Speed
6 7 8 8 7 6 5 4 4 5 5 6 9 11 12 14 13 12 12 11 10 10 10 7 7 5 5 4 5 7 4 1 2 8 2 4 5 7 9 5 4 6 7 7 8
4 4 4 5 6 7 8 7 7 7 8 7 8 9 11 13 13 14 14 13 13 13 11 8 6 4 4 3 6 6 6 7 6 11 15 9 9 7 8 6 1 5 6 7 8
5 6 6 6 5 6 7 7 7 7 8 10 10 10 11 12 12 14 15 15 14 15 15 12 8 6 6 6 7 5 8 10 15 15 7 9 11 10 11 7 4 3 4 6 7
9 10 10 10 10 9 9 9 9 7 8 9 11 12 13 14 14 14 16 16 16 17 18 16 13 10 8 9 9 12 9 6 18 15 20 16 13 9 11 9 7 3 3 5 7
15 17 16 15 14 14 13 13 13 12 12 11 11 13 12 15 17 17 18 18 19 18 20 21 18 15 13 11 11 13 13 11 14 10 15 12 12 10 9 11 8 7 3 5 6
12 14 16 17 17 17 17 17 18 17 17 17 15 15 16 19 19 20 21 21 22 22 22 23 25 21 16 14 12 13 15 15 9 12 11 12 12 8 11 8 9 8 5 4 5
15 15 15 16 17 19 20 21 20 19 19 19 18 18 20 22 22 22 23 24 25 24 25 26 28 25 19 16 13 13 17 14 14 8 6 13 9 11 16 15 12 9 8 6 6
18 18 18 18 19 19 18 18 18 18 18 17 17 19 22 22 24 24 25 26 27 28 28 28 28 27 25 18 16 18 21 20 16 12 12 17 12 14 18 17 14 11 10 9 5
23 24 24 23 22 20 17 16 18 19 19 20 21 21 24 24 25 24 23 26 28 30 31 31 28 28 27 20 20 22 23 23 22 22 16 17 21 22 19 19 14 16 12 10 7
26 26 26 26 24 22 18 18 21 21 22 22 22 21 21 22 21 22 23 25 26 28 30 29 28 27 23 23 24 26 28 26 24 13 19 18 24 27 25 22 20 18 17 15 12
28 27 26 25 24 20 18 20 22 22 21 21 21 22 22 21 20 22 23 22 21 21 24 24 22 19 27 28 28 29 31 29 28 26 11 23 33 35 28 28 24 20 21 20 17
29 28 27 25 24 20 20 21 22 20 21 22 23 23 21 21 21 19 19 20 21 22 22 19 17 24 28 30 28 27 34 31 30 28 24 22 27 37 28 28 26 25 22 25 21
31 30 27 26 22 19 20 21 20 21 20 21 22 21 19 19 19 18 17 16 20 23 23 21 23 28 31 31 28 26 32 31 30 31 28 22 23 35 32 33 31 25 23 26 25
30 28 25 22 19 17 18 19 18 20 19 19 19 19 17 17 17 15 14 16 19 23 25 25 30 30 31 30 27 24 27 31 30 29 31 29 27 21 35 39 28 26 23 24 27
27 24 21 21 19 18 16 16 16 17 17 17 17 16 17 17 17 14 14 17 17 22 21 23 31 30 29 27 27 22 28 27 27 27 27 24 28 26 31 39 34 31 24 24 24
23 21 19 20 19 19 17 16 15 15 11 15 16 15 15 14 13 14 13 13 11 12 17 21 26 26 25 26 25 23 24 27 22 25 26 23 22 23 32 42 44 28 28 25 26
21 20 18 19 18 17 16 16 15 10 13 11 12 13 13 9 10 10 12 11 9 12 15 20 21 21 23 26 25 23 24 27 23 22 22 21 20 21 22 31 33 33 19 23 22
19 18 18 19 18 19 19 17 13 12 14 13 11 12 10 8 7 12 12 12 12 14 18 20 21 21 23 23 22 22 24 23 21 19 20 14 15 13 14 17 29 23 21 33 28
21 20 20 20 20 19 18 17 10 12 13 14 14 14 11 10 12 11 10 12 9 14 16 21 21 24 23 26 25 24 21 22 22 21 21 12 10 8 20 13 23 30 32 34 31
25 23 22 21 21 19 19 16 13 12 13 16 16 13 18 13 12 12 15 13 8 13 18 18 21 26 29 28 28 25 21 23 19 18 21 23 13 8 15 13 16 27 26 34 36
27 27 23 21 21 20 18 15 15 15 16 18 19 15 14 15 15 18 16 16 16 13 23 25 27 29 31 28 29 29 28 23 20 18 15 22 20 15 5 2 5 15 30 33 35
31 30 24 21 18 17 20 17 16 16 18 20 19 15 17 20 16 15 17 18 19 19 23 28 30 30 28 30 30 27 29 28 24 18 16 21 14 8 11 7 6 2 12 33 33
33 29 25 20 19 18 19 20 19 19 20 20 19 17 19 16 13 13 15 16 19 26 24 27 32 36 34 36 34 29 29 31 30 24 21 20 14 11 8 11 9 5 6 12 29
32 26 24 21 22 19 18 18 19 22 18 19 17 15 20 16 9 9 12 14 18 21 27 32 36 36 40 36 34 31 30 27 29 27 22 22 20 18 13 10 9 6 4 9 12
29 24 22 22 22 19 17 18 21 22 16 19 14 18 18 14 9 11 12 12 14 14 15 28 30 40 39 38 40 28 34 32 28 28 25 21 20 19 18 17 16 14 9 9 3
28 23 22 24 24 22 19 20 21 20 16 19 18 19 18 13 10 13 12 12 14 14 20 21 25 39 36 49 45 35 38 35 29 28 28 26 20 19 17 25 18 21 18 15 11
28 26 26 26 26 25 21 21 21 19 17 19 18 18 17 13 11 13 17 17 18 15 18 21 17 30 47 48 52 47 42 39 33 25 31 29 25 22 19 18 19 22 20 15 14

GFSSW_500_spd_117.txt.gz
Wind_Speed
6 6 7 7 7 7 7 6 6 6 6 6 6 8 10 11 11 11 11 10 8 6 3 2 1 3 3 1 3 1 1 4 8 8 2 4 2 4 1 11 10 11 13 10 10
4 4 4 4 4 5 5 5 6 8 7 7 7 7 8 10 11 12 10 12 11 9 7 4 2 3 3 2 2 1 5 3 8 7 7 9 6 5 2 10 11 10 9 9 9
6 8 8 8 7 7 8 7 7 7 8 9 8 9 9 9 10 11 12 12 13 12 11 10 6 4 5 5 4 5 8 6 5 14 14 9 11 9 5 8 11 8 7 8 9
11 12 13 13 12 11 11 11 10 10 9 9 10 10 10 11 11 11 12 13 14 15 14 13 11 9 8 5 5 4 7 7 8 20 8 12 11 12 6 5 7 8 6 7 8
12 14 15 15 15 16 16 15 14 15 14 13 12 12 12 14 15 14 15 15 15 17 18 16 14 11 11 8 9 8 8 7 6 11 5 13 12 12 8 6 5 5 5 7 7
12 13 14 13 13 15 16 17 18 19 19 19 18 17 16 18 17 16 16 18 17 17 20 20 18 14 12 10 10 12 9 9 10 5 2 11 11 9 7 9 6 5 4 5 6
15 15 15 16 17 18 18 18 19 19 19 19 20 20 18 20 19 18 19 20 19 18 21 22 20 16 14 10 12 13 10 11 11 10 8 12 15 10 10 10 9 7 6 4 6
21 22 22 22 20 19 19 21 20 19 18 18 18 18 20 21 21 21 21 20 21 21 21 22 23 18 15 13 13 15 14 12 13 13 7 5 13 17 15 15 11 11 10 7 8
24 25 25 25 24 23 22 21 20 18 17 18 18 19 22 22 22 23 24 22 21 22 22 22 22 20 20 17 17 19 20 19 17 19 14 13 12 17 18 20 16 15 13 11 10
26 27 27 26 25 25 25 23 21 20 19 19 20 20 20 20 21 21 22 21 20 21 22 21 19 20 22 23 20 21 23 23 20 21 18 16 11 21 19 19 19 21 18 15 12
26 27 29 29 26 25 26 24 20 19 19 19 19 20 19 19 20 20 20 20 21 20 19 17 17 19 24 26 24 21 24 25 25 24 23 16 16 23 24 24 25 22 19 17 16
26 28 28 27 25 24 23 22 19 18 17 17 18 19 19 20 20 18 20 20 19 19 18 17 18 22 25 26 23 21 24 26 25 27 24 32 22 17 28 32 31 28 25 23 18
26 27 26 24 22 20 18 18 18 17 16 15 15 17 17 15 16 16 18 18 18 17 17 18 19 24 27 27 24 21 22 25 25 26 28 30 28 23 17 38 35 29 31 29 22
25 25 24 21 20 19 17 18 16 15 16 15 16 16 12 13 13 12 12 13 16 13 16 19 22 26 26 25 26 22 21 25 25 27 28 27 26 23 24 27 33 32 30 27 24
23 21 22 21 17 15 17 18 16 14 15 17 14 12 12 11 11 11 11 10 10 11 14 18 21 22 22 23 26 21 20 24 25 25 27 26 27 23 26 27 34 34 32 27 29
23 21 23 20 16 15 16 16 15 15 16 13 11 11 13 13 12 10 9 8 8 11 14 17 19 21 21 24 24 22 19 21 22 24 22 22 26 25 17 21 32 36 34 30 28
23 20 21 21 18 17 16 17 16 14 11 8 8 9 12 13 14 14 8 7 6 10 14 13 17 20 21 22 22 19 18 21 23 23 19 16 18 21 21 20 22 36 29 29 32
23 21 20 21 20 18 18 18 15 14 10 9 9 6 8 12 15 16 12 4 6 10 10 11 14 16 19 20 19 18 19 20 22 21 19 17 14 14 18 19 24 32 43 38 37
25 21 21 21 22 20 19 16 15 15 12 12 9 6 7 9 13 15 15 10 10 9 8 11 15 18 20 19 22 19 19 18 20 20 19 16 13 6 11 18 21 29 32 34 35
27 25 23 22 24 21 18 15 15 15 15 14 10 9 8 8 10 13 15 15 12 11 11 15 16 20 21 21 23 21 20 22 22 23 20 17 13 8 8 15 19 19 30 29 30
29 28 26 25 24 22 19 15 16 15 17 16 12 11 10 10 11 15 16 16 18 18 15 18 19 21 25 25 26 24 23 22 23 25 21 17 11 13 7 4 11 18 24 28 36
30 28 28 26 26 23 22 18 15 17 18 17 13 11 13 12 17 20 18 19 20 22 22 21 26 26 27 30 31 29 26 26 28 23 20 18 11 13 10 9 7 9 18 28 33
30 29 27 27 26 23 24 20 17 16 17 15 13 12 17 14 13 17 20 20 16 18 19 24 27 31 31 32 32 34 33 30 29 26 19 21 15 6 14 8 7 5 10 28 42
31 29 27 26 26 25 24 21 19 18 17 14 12 12 15 15 18 18 18 13 12 15 17 22 29 32 36 34 35 38 36 33 33 29 28 25 21 12 16 9 4 6 1 3 8
32 29 28 25 25 25 24 21 21 21 17 14 10 12 14 18 18 18 16 13 13 14 17 21 19 31 38 41 41 40 37 36 33 28 26 27 26 16 14 13 11 10 8 3 8
31 28 28 27 26 26 25 22 22 23 17 12 13 15 16 19 17 16 16 15 14 16 17 19 19 23 28 38 42 45 39 37 38 31 25 25 26 21 13 19 13 15 14 10 9
39 31 29 29 28 28 26 26 25 23 18 14 16 16 17 16 15 14 16 17 16 17 18 17 17 18 23 31 46 45 45 41 39 31 28 26 27 26 21 15 15 16 14 13 8